[[{"header":{"parameterUnit":"m.s-1","parameterCategory":1,"la1":30.6,"la2":28.766,"lo1":-90.7593,"lo2":-88.6598,"dy":0.0162,"dx":0.0183,"nx":116,"ny":114,"refTime":"2024-05-24T12:00:00:Z","depth":0,"parameterNumber":2,"parameterNumberName":"U-component_of_WINDS"},"data":[0.0,0.0,0.0,0.0,0.0,0.0,0.0,0.0,0.0,0.0,0.0,0.0,0.0,0.0,0.0,0.0,0.0,0.0,0.0,0.0,0.0,0.0,0.0,0.0,0.0,0.0,0.0,0.0,0.0,0.0,0.0,0.0,0.0,0.0,0.0,0.0,0.0,0.0,0.0,0.0,0.0,0.0,0.0,0.0,0.0,0.0,0.0,0.0,0.0,0.0,0.0,0.0,0.0,0.0,0.0,0.0,0.0,0.0,0.0,0.0,0.0,0.0,0.0,0.0,0.0,0.0,0.0,0.0,0.0,0.0,0.0,0.0,0.0,0.0,0.0,0.0,0.0,0.0,0.0,0.0,0.0,0.0,0.0,0.0,0.0,0.0,0.0,0.0,0.0,0.0,0.0,0.0,0.0,0.0,0.0,0.0,0.0,0.0,0.0,0.0,0.0,0.0,0.0,0.0,0.0,0.0,0.0,0.0,0.0,0.0,0.0,0.0,0.0,0.0,0.0,0.0,0.0,0.0,0.0,0.0,0.0,0.0,0.0,0.0,0.0,0.0,0.0,0.0,0.0,0.0,0.0,0.0,0.0,0.0,0.0,0.0,0.0,0.0,0.0,0.0,0.0,0.0,0.0,0.0,0.0,0.0,0.0,0.0,0.0,0.0,0.0,0.0,0.0,0.0,0.0,0.0,0.0,0.0,0.0,0.0,0.0,0.0,0.0,0.0,0.0,0.0,0.0,0.0,0.0,0.0,0.0,0.0,0.0,0.0,0.0,0.0,0.0,0.0,0.0,0.0,0.0,0.0,0.0,0.0,0.0,0.0,0.0,0.0,0.0,0.0,0.0,0.0,0.0,0.0,0.0,0.0,0.0,0.0,0.0,0.0,0.0,0.0,0.0,0.0,0.0,0.0,0.0,0.0,0.0,0.0,0.0,0.0,0.0,0.0,0.0,0.0,0.0,0.0,0.0,0.0,0.0,0.0,0.0,0.0,0.0,0.0,0.0,0.0,0.0,0.0,0.0,0.0,0.0,0.0,0.0,0.0,0.0,0.0,0.0,0.0,0.0,0.0,0.0,0.0,0.0,0.0,0.0,0.0,0.0,0.0,0.0,0.0,0.0,0.0,0.0,0.0,0.0,0.0,0.0,0.0,0.0,0.0,0.0,0.0,0.0,0.0,0.0,0.0,0.0,0.0,0.0,0.0,0.0,0.0,0.0,0.0,0.0,0.0,0.0,0.0,0.0,0.0,0.0,0.0,0.0,0.0,0.0,0.0,0.0,0.0,0.0,0.0,0.0,0.0,0.0,0.0,0.0,0.0,0.0,0.0,0.0,0.0,0.0,0.0,0.0,0.0,0.0,0.0,0.0,0.0,0.0,0.0,0.0,0.0,0.0,0.0,0.0,0.0,0.0,0.0,0.0,0.0,0.0,0.0,0.0,0.0,0.0,0.0,0.0,0.0,0.0,0.0,0.0,0.0,0.0,0.0,0.0,0.0,0.0,0.0,0.0,0.0,0.0,0.0,0.0,0.0,0.0,0.0,0.0,0.0,0.0,0.0,0.0,0.0,0.0,0.0,0.0,0.0,0.0,0.0,0.0,0.0,0.0,0.0,0.0,0.0,0.0,0.0,0.0,0.0,0.0,0.0,0.0,0.0,0.0,0.0,0.0,0.0,0.0,0.0,0.0,0.0,0.0,0.0,0.0,0.0,0.0,0.0,0.0,0.0,0.0,0.0,0.0,0.0,0.0,0.0,0.0,0.0,0.0,0.0,0.0,0.0,0.0,0.0,0.0,0.0,0.0,0.0,0.0,0.0,0.0,0.0,0.0,0.0,0.0,0.0,0.0,0.0,0.0,0.0,0.0,0.0,0.0,0.0,0.0,0.0,0.0,0.0,0.0,0.0,0.0,0.0,0.0,0.0,0.0,0.0,0.0,0.0,0.0,0.0,0.0,0.0,0.0,0.0,0.0,0.0,0.0,0.0,0.0,0.0,0.0,0.0,0.0,0.0,0.0,0.0,0.0,0.0,0.0,0.0,0.0,0.0,0.0,0.0,0.0,0.0,0.0,0.0,0.0,0.0,0.0,0.0,0.0,0.0,0.0,0.0,0.0,0.0,0.0,0.0,0.0,0.0,0.0,0.0,0.0,0.0,0.0,0.0,0.0,0.0,0.0,0.0,0.0,0.0,0.0,0.0,0.0,0.0,0.0,0.0,0.0,0.0,0.0,0.0,0.0,0.0,0.0,0.0,0.0,0.0,0.0,0.0,0.0,0.0,0.0,0.0,0.0,0.0,0.0,0.0,0.0,0.0,0.0,0.0,0.0,0.0,0.0,0.0,0.0,0.0,0.0,0.0,0.0,0.0,0.0,0.0,0.0,0.0,0.0,0.0,0.0,0.0,0.0,0.0,0.0,0.0,0.0,0.0,0.0,0.0,0.0,0.0,0.0,0.0,0.0,0.0,0.0,0.0,0.0,0.0,0.0,0.0,0.0,0.0,0.0,0.0,0.0,0.0,0.0,0.0,0.0,0.0,0.0,0.0,0.0,0.0,0.0,0.0,0.0,0.0,0.0,0.0,0.0,0.0,0.0,0.0,0.0,0.0,0.0,0.0,0.0,0.0,0.0,0.0,0.0,0.0,0.0,0.0,0.0,0.0,0.0,0.0,0.0,0.0,0.0,0.0,0.0,0.0,0.0,0.0,0.0,0.0,0.0,0.0,0.0,0.0,0.0,0.0,0.0,0.0,0.0,0.0,0.0,0.0,0.0,0.0,0.0,0.0,0.0,0.0,0.0,0.0,0.0,0.0,0.0,0.0,0.0,0.0,0.0,0.0,0.0,0.0,0.0,0.0,0.0,0.0,0.0,0.0,0.0,0.0,0.0,0.0,0.0,0.0,0.0,0.0,0.0,0.0,0.0,0.0,0.0,0.0,0.0,0.0,0.0,0.0,0.0,0.0,0.0,0.0,0.0,0.0,0.0,0.0,0.0,0.0,0.0,0.0,0.0,0.0,0.0,0.0,0.0,0.0,0.0,0.0,0.0,0.0,0.0,0.0,0.0,0.0,0.0,0.0,0.0,0.0,0.0,0.0,0.0,0.0,0.0,0.0,0.0,0.0,0.0,0.0,0.0,0.0,0.0,0.0,0.0,0.0,0.0,0.0,0.0,0.0,0.0,0.0,0.0,0.0,0.0,0.0,0.0,0.0,0.0,0.0,0.0,0.0,0.0,0.0,0.0,0.0,0.0,0.0,0.0,0.0,0.0,0.0,0.0,0.0,0.0,0.0,0.0,0.0,0.0,0.0,0.0,0.0,0.0,0.0,0.0,0.0,0.0,0.0,0.0,0.0,0.0,0.0,0.0,0.0,0.0,0.0,0.0,0.0,0.0,0.0,0.0,0.0,0.0,0.0,0.0,0.0,0.0,0.0,0.0,0.0,0.0,0.0,0.0,0.0,0.0,0.0,0.0,0.0,0.0,0.0,0.0,0.0,0.0,0.0,0.0,0.0,0.0,0.0,0.0,0.0,0.0,0.0,0.0,0.0,0.0,0.0,0.0,0.0,0.0,0.0,0.0,0.0,0.0,0.0,0.0,0.0,0.0,0.0,0.0,0.0,0.0,0.0,0.0,0.0,0.0,0.0,0.0,0.0,0.0,0.0,0.0,0.0,0.0,0.0,0.0,0.0,0.0,0.0,0.0,0.0,0.0,0.0,0.0,0.0,0.0,0.0,0.0,0.0,0.0,0.0,0.0,0.0,0.0,0.0,0.0,0.0,0.0,0.0,0.0,0.0,0.0,0.0,0.0,0.0,0.0,0.0,0.0,0.0,0.0,0.0,0.0,0.0,0.0,0.0,0.0,0.0,0.0,0.0,0.0,0.0,0.0,0.0,0.0,0.0,0.0,0.0,0.0,0.0,0.0,0.0,0.0,0.0,0.0,0.0,0.0,0.0,0.0,0.0,0.0,0.0,0.0,0.0,0.0,0.0,0.0,0.0,0.0,0.0,0.0,0.0,0.0,0.0,0.0,0.0,0.0,0.0,0.0,0.0,0.0,0.0,0.0,0.0,0.0,0.0,0.0,0.0,0.0,0.0,0.0,0.0,0.0,0.0,0.0,0.0,0.0,0.0,0.0,0.0,0.0,0.0,0.0,0.0,0.0,0.0,0.0,0.0,0.0,0.0,0.0,0.0,0.0,0.0,0.0,0.0,0.0,0.0,0.0,0.0,0.0,0.0,0.0,0.0,0.0,0.0,0.0,0.0,0.0,0.0,0.0,0.0,0.0,0.0,0.0,0.0,0.0,0.0,0.0,0.0,0.0,0.0,0.0,0.0,0.0,0.0,0.0,0.0,0.0,0.0,0.0,0.0,0.0,0.0,0.0,0.0,0.0,0.0,0.0,0.0,0.0,0.0,0.0,0.0,0.0,0.0,0.0,0.0,0.0,0.0,0.0,0.0,0.0,0.0,0.0,0.0,0.0,0.0,0.0,0.0,0.0,0.0,0.0,0.0,0.0,0.0,0.0,0.0,0.0,0.0,0.0,0.0,0.0,0.0,0.0,0.0,0.0,0.0,0.0,0.0,0.0,0.0,0.0,0.0,0.0,0.0,0.0,0.0,0.0,0.0,0.0,0.0,0.0,0.0,0.0,0.0,0.0,0.0,0.0,0.0,0.0,0.0,0.0,0.0,0.0,0.0,0.0,0.0,0.0,0.0,0.0,0.0,0.0,0.0,0.0,0.0,0.0,0.0,0.0,0.0,0.0,0.0,0.0,0.0,0.0,0.0,0.0,0.0,0.0,0.0,0.0,0.0,0.0,0.0,0.0,0.0,0.0,0.0,0.0,0.0,0.0,0.0,0.0,0.0,0.0,0.0,0.0,0.0,0.0,0.0,0.0,0.0,0.0,0.0,0.0,0.0,0.0,0.0,0.0,0.0,0.0,0.0,0.0,0.0,0.0,0.0,0.0,0.0,0.0,0.0,0.0,0.0,0.0,0.0,0.0,0.0,0.0,0.0,0.0,0.0,0.0,0.0,0.0,0.0,0.0,0.0,0.0,0.0,0.0,0.0,0.0,0.0,0.0,0.0,0.0,0.0,0.0,0.0,0.0,0.0,0.0,0.0,0.0,0.0,0.0,0.0,0.0,0.0,0.0,0.0,0.0,0.0,0.0,0.0,0.0,0.0,0.0,0.0,0.0,0.0,0.0,0.0,0.0,0.0,0.0,0.0,0.0,0.0,0.0,0.0,0.0,0.0,0.0,0.0,0.0,0.0,0.0,0.0,0.0,0.0,0.0,0.0,0.0,0.0,0.0,0.0,0.0,0.0,0.0,0.0,0.0,0.0,0.0,0.0,0.0,0.0,0.0,0.0,0.0,0.0,0.0,0.0,0.0,0.0,0.0,0.0,0.0,0.0,0.0,0.0,0.0,0.0,0.0,0.0,0.0,0.0,0.0,0.0,0.0,0.0,0.0,0.0,0.0,0.0,0.0,0.0,0.0,0.0,0.0,0.0,0.0,0.0,0.0,0.0,0.0,0.0,0.0,0.0,0.0,0.0,0.0,0.0,0.0,0.0,0.0,0.0,0.0,0.0,0.0,0.0,0.0,0.0,0.0,0.0,0.0,0.0,0.0,0.0,0.0,0.0,0.0,0.0,0.0,0.0,0.0,0.0,0.0,0.0,0.0,0.0,0.0,0.0,0.0,0.0,0.0,0.0,0.0,0.0,0.0,0.0,0.0,0.0,0.0,0.0,0.0,0.0,0.0,0.0,0.0,0.0,0.0,0.0,0.0,0.0,0.0,0.0,0.0,0.0,0.0,0.0,0.0,0.0,0.0,0.0,0.0,0.0,0.0,0.0,0.0,0.0,0.0,0.0,0.0,0.0,0.0,0.0,0.0,0.0,0.0,0.0,0.0,0.0,0.0,0.0,0.0,0.0,0.0,0.0,0.0,0.0,0.0,0.0,0.0,0.0,0.0,0.0,0.0,0.0,0.0,0.0,0.0,0.0,0.0,0.0,0.0,0.0,0.0,0.0,0.0,0.0,0.0,0.0,0.0,0.0,0.0,0.0,0.0,0.0,0.0,0.0,0.0,0.0,0.0,0.0,0.0,0.0,-4.558,0.0,0.0,0.0,0.0,0.0,0.0,0.0,0.0,0.0,0.0,0.0,0.0,0.0,0.0,0.0,0.0,0.0,0.0,0.0,0.0,0.0,0.0,0.0,0.0,-2.3192,-2.4502,-2.5424,-2.5979,-2.6373,-2.6602,0.0,0.0,0.0,0.0,0.0,-2.4525,-2.4183,-2.4216,-2.462,-2.5087,-2.5702,-2.6491,-2.6337,-2.5392,-2.3842,0.0,0.0,0.0,0.0,0.0,0.0,0.0,0.0,0.0,0.0,0.0,0.0,0.0,0.0,0.0,0.0,0.0,0.0,0.0,0.0,0.0,0.0,0.0,0.0,0.0,0.0,0.0,0.0,0.0,0.0,0.0,0.0,0.0,0.0,0.0,0.0,0.0,0.0,0.0,0.0,0.0,0.0,0.0,0.0,0.0,0.0,0.0,0.0,0.0,0.0,0.0,0.0,0.0,0.0,0.0,0.0,0.0,0.0,0.0,0.0,0.0,0.0,0.0,0.0,0.0,0.0,0.0,0.0,0.0,0.0,0.0,-4.7862,0.0,0.0,0.0,0.0,0.0,0.0,0.0,0.0,0.0,0.0,0.0,0.0,0.0,0.0,0.0,0.0,0.0,0.0,0.0,0.0,0.0,-2.0403,-2.1478,-2.3276,-2.4826,-2.5831,-2.6489,-2.6878,-2.7005,-2.6912,0.0,0.0,0.0,-2.6034,-2.5523,-2.5679,-2.6173,-2.7044,-2.7429,-2.8411,-2.9908,-3.0513,-2.93,-2.6574,-2.5868,0.0,0.0,0.0,0.0,0.0,0.0,0.0,0.0,0.0,0.0,0.0,0.0,0.0,0.0,0.0,0.0,0.0,0.0,0.0,0.0,0.0,0.0,0.0,0.0,0.0,0.0,0.0,0.0,0.0,0.0,0.0,0.0,0.0,0.0,0.0,0.0,0.0,0.0,0.0,0.0,0.0,0.0,0.0,0.0,0.0,0.0,0.0,0.0,0.0,0.0,0.0,0.0,0.0,0.0,0.0,0.0,0.0,0.0,0.0,0.0,0.0,0.0,0.0,-5.1334,-5.2068,-5.2068,-5.2068,-5.2417,-5.2989,-5.1865,-5.0374,-4.8567,-4.6158,0.0,0.0,0.0,0.0,0.0,0.0,0.0,0.0,0.0,0.0,0.0,0.0,0.0,0.0,0.0,0.0,0.0,0.0,0.0,-2.0792,-2.2868,-2.3937,-2.5318,-2.7399,-2.7662,-2.8003,-2.864,-2.8188,0.0,0.0,-2.7611,-2.7427,-2.7517,-2.7538,-2.7953,-2.878,-3.076,-3.2183,-3.3116,-3.3649,-3.3577,-3.2825,-2.9285,-2.7988,-2.832,0.0,0.0,0.0,0.0,0.0,0.0,0.0,0.0,0.0,0.0,0.0,0.0,0.0,0.0,0.0,0.0,0.0,0.0,0.0,0.0,0.0,0.0,0.0,0.0,0.0,0.0,0.0,0.0,0.0,0.0,0.0,0.0,0.0,0.0,0.0,0.0,0.0,0.0,0.0,0.0,0.0,-3.6844,-3.8477,0.0,0.0,0.0,0.0,0.0,0.0,0.0,0.0,0.0,0.0,0.0,0.0,0.0,-5.0109,-5.2068,-5.3775,-5.4987,-5.5702,-5.662,-5.7042,-5.7042,-5.7042,-5.7116,-5.7189,-5.701,0.0,-5.0286,-4.7993,0.0,0.0,0.0,0.0,0.0,0.0,0.0,0.0,0.0,0.0,0.0,0.0,0.0,0.0,0.0,0.0,0.0,0.0,0.0,0.0,0.0,-2.4993,-2.6747,-2.8431,-2.9162,-2.9584,-2.9678,-2.9436,-2.9027,-2.8426,-2.8171,-2.801,-2.7909,-2.8338,-2.9454,-3.1237,-3.3517,-3.4882,-3.5385,-3.5635,-3.5764,-3.5721,-3.3128,-3.1414,-3.0356,-2.8401,0.0,0.0,0.0,0.0,0.0,0.0,0.0,0.0,0.0,0.0,0.0,0.0,0.0,0.0,0.0,0.0,0.0,0.0,0.0,0.0,0.0,0.0,0.0,0.0,0.0,0.0,0.0,0.0,0.0,0.0,0.0,0.0,0.0,0.0,0.0,0.0,0.0,0.0,0.0,-3.6578,-3.969,-4.0542,-4.1299,-4.1777,0.0,0.0,0.0,0.0,0.0,0.0,0.0,0.0,0.0,-5.1004,-5.2747,-5.4142,-5.5203,-5.6822,-5.7813,-5.8157,-5.8969,-5.9355,-5.9355,-5.9355,-5.9355,-5.9355,-5.9355,-5.764,-5.4633,-5.1803,-4.9856,-4.8354,0.0,0.0,0.0,0.0,-4.2971,-4.2568,0.0,0.0,0.0,0.0,0.0,0.0,0.0,0.0,0.0,0.0,0.0,0.0,-2.4103,-2.5978,-2.7745,-2.9243,-2.9969,-3.0396,-3.0497,-3.0189,-2.9694,-2.8997,-2.8865,-2.87,-2.8437,-2.9646,-3.1354,-3.3564,-3.5751,-3.6908,-3.7111,-3.7239,-3.7374,-3.7466,-3.6412,-3.4711,-3.2572,-3.1109,-2.901,-2.6476,0.0,0.0,0.0,0.0,0.0,0.0,0.0,0.0,0.0,0.0,0.0,0.0,0.0,0.0,0.0,0.0,0.0,0.0,0.0,0.0,0.0,0.0,0.0,0.0,0.0,0.0,0.0,0.0,0.0,0.0,0.0,0.0,0.0,0.0,0.0,0.0,0.0,-3.9095,-4.2089,-4.2912,-4.3975,-4.4557,0.0,0.0,0.0,0.0,0.0,0.0,-5.0435,-5.225,-5.3683,-5.469,-5.6492,-5.7611,-5.8015,-5.9226,-5.9918,-6.012,-6.0731,-6.1025,-6.1025,-6.1025,-6.1025,-6.1025,-6.1025,-6.0099,-5.8375,-5.5169,-5.2888,-5.1129,-4.831,-4.6951,-4.6556,-4.633,-4.6021,-4.5957,0.0,0.0,0.0,0.0,0.0,0.0,0.0,0.0,0.0,0.0,0.0,-2.3393,-2.6218,-2.664,-2.7652,-2.9942,-2.9508,-2.9733,0.0,-3.0143,-2.9746,-3.0456,-3.0131,-2.9904,-2.988,-3.2232,-3.409,-3.5365,-3.7271,-3.8222,-3.8222,-3.8746,-3.8846,-3.8606,-3.8557,-3.7606,-3.5844,-3.2682,-3.0797,-2.9751,-2.7372,0.0,0.0,0.0,0.0,0.0,0.0,0.0,0.0,0.0,0.0,0.0,0.0,0.0,0.0,0.0,0.0,0.0,0.0,0.0,0.0,0.0,0.0,0.0,0.0,0.0,0.0,0.0,0.0,0.0,0.0,0.0,0.0,0.0,0.0,0.0,0.0,0.0,0.0,-4.6544,-4.7827,0.0,0.0,0.0,0.0,-4.9669,-5.1647,-5.3537,-5.5177,-5.6069,-5.7299,-5.8836,-5.9019,-5.9813,-6.1337,-6.1429,-6.1869,-6.264,-6.2652,-6.2695,-6.2695,-6.2695,-6.2695,-6.2695,-6.2695,-6.1758,-6.0024,-5.6944,-5.4654,-5.2866,-5.0729,-4.9859,-4.9677,-4.9052,-4.8812,-4.8798,0.0,0.0,0.0,0.0,0.0,-1.6231,-1.7002,-1.8082,-1.9173,-2.0271,-2.2753,-2.4815,-2.5879,-2.774,-2.9436,-3.0841,-3.1137,-3.1512,-3.2122,-3.1243,-3.098,-3.1608,-3.0828,-3.1186,-3.2921,-3.4543,-3.6122,-3.7632,-3.8641,-3.9334,-3.9698,-3.9132,-3.9008,-3.9268,-3.8877,-3.8377,-3.7698,-3.5495,-3.3476,-3.1518,-2.9115,-2.7005,0.0,0.0,0.0,0.0,0.0,0.0,0.0,0.0,0.0,0.0,0.0,0.0,0.0,0.0,0.0,0.0,0.0,0.0,0.0,0.0,0.0,0.0,0.0,0.0,0.0,0.0,0.0,0.0,0.0,0.0,0.0,0.0,0.0,0.0,0.0,0.0,0.0,-4.9997,-5.1529,0.0,-5.2734,-5.3011,-5.3506,-5.4317,-5.557,-5.6767,-5.7868,-5.9171,-6.0144,-6.0731,-6.1263,-6.1771,-6.2383,-6.2383,-6.253,-6.278,-6.278,-6.278,-6.278,-6.278,-6.278,-6.278,-6.278,-6.1877,-6.0309,-5.9207,-5.7485,-5.5361,-5.3676,-5.2684,-5.2164,-5.1398,-5.1116,-5.1116,0.0,0.0,0.0,0.0,-1.6448,-1.6617,-1.7539,-1.8611,-1.9756,-2.0992,-2.375,-2.5896,-2.6657,-2.8755,-3.0551,-3.1672,-3.1969,-3.223,-3.2567,-3.1586,-3.1154,-3.1524,-3.1187,-3.2192,-3.4708,-3.5834,-3.7184,-3.8804,-3.9218,-3.9637,-4.0015,-3.9477,-3.9254,-3.9281,-3.9169,-3.9093,-3.9038,-3.7973,-3.6101,-3.366,-3.1482,-2.9812,-2.8363,0.0,0.0,0.0,0.0,0.0,0.0,0.0,0.0,0.0,0.0,0.0,0.0,0.0,0.0,0.0,0.0,0.0,0.0,0.0,0.0,0.0,0.0,0.0,0.0,0.0,0.0,0.0,0.0,0.0,0.0,0.0,0.0,0.0,0.0,-4.6559,-4.999,-5.2514,-5.4234,-5.5427,-5.5941,-5.6492,-5.7042,-5.7551,-5.8621,-5.9446,-5.9997,-6.1282,-6.1998,-6.1998,-6.253,-6.278,-6.278,-6.278,-6.278,-6.278,-6.278,-6.278,-6.278,-6.2515,-6.2394,-6.2394,-6.2121,-6.1218,-5.996,-5.996,-5.8851,-5.7071,-5.5825,-5.4888,-5.416,-5.3365,-5.3078,-5.3044,0.0,0.0,0.0,-1.6299,-1.6834,-1.7531,-1.831,-1.9328,-2.0829,-2.3071,-2.4712,-2.6505,-2.8722,-2.9651,-3.0772,-3.233,-3.1794,-3.1696,-3.2554,-3.1115,-3.0246,-3.0283,-3.1332,-3.2949,-3.5129,-3.6152,-3.7382,-3.8852,-3.9045,-3.9181,-3.9219,-3.9965,-3.9785,-3.8814,-3.9604,-3.9937,-3.9937,-3.9937,-3.8579,-3.6303,-3.4596,-3.3421,-3.2399,0.0,0.0,0.0,0.0,0.0,0.0,0.0,0.0,0.0,0.0,0.0,0.0,0.0,0.0,0.0,0.0,0.0,0.0,0.0,0.0,0.0,0.0,0.0,0.0,0.0,0.0,0.0,0.0,0.0,0.0,0.0,0.0,0.0,-4.7058,-4.8673,-5.0969,-5.4161,-5.5978,-5.6969,-5.6987,-5.8395,-5.9294,-5.9294,-6.0768,-6.163,-6.163,-6.2383,-6.278,-6.278,-6.2817,-6.286,-6.286,-6.2879,-6.2879,-6.286,-6.286,-6.2817,-6.278,-6.1969,-6.1586,-6.1576,-6.073,-5.9896,-5.9111,-5.9111,-5.8633,-5.7814,-5.7103,-5.6393,-5.5666,-5.4921,-5.4634,-5.4482,0.0,0.0,-1.6382,-1.662,-1.662,-1.7078,-1.8546,-1.972,-2.0955,-2.2403,-2.5271,-2.7435,-2.806,-2.9786,-3.1206,-3.1933,-3.2088,-3.2424,-3.2991,-3.1793,-3.1329,-3.1904,-3.3568,-3.5225,-3.6803,-3.7547,-3.8556,-3.9889,-4.0178,-4.0629,-4.1204,-4.0978,-4.0849,-4.0793,-4.078,-4.0781,-4.0781,-4.0781,-4.0396,-3.9588,-3.7367,-3.5624,-3.4142,0.0,0.0,0.0,0.0,0.0,0.0,0.0,0.0,0.0,0.0,0.0,0.0,0.0,0.0,0.0,0.0,0.0,0.0,0.0,0.0,0.0,0.0,0.0,0.0,0.0,0.0,0.0,0.0,0.0,0.0,0.0,-4.568,-4.7939,-4.8783,-5.1811,-5.4932,-5.7574,-5.93,-6.0511,-6.1098,-6.1533,-6.1808,-6.1808,-6.2236,-6.2475,-6.2475,-6.2695,-6.278,-6.278,-6.3411,-6.3741,-6.3741,-6.4328,-6.4328,-6.3741,-6.3741,-6.3411,-6.278,-6.1969,-6.1586,-6.1576,-6.073,-5.9896,-5.9111,-5.9111,-5.8633,-5.7865,-5.7679,-5.7154,-5.6478,-5.6275,-5.5513,-5.4482,0.0,-1.6081,-1.6353,-1.6554,-1.6777,-1.7431,-1.8918,-2.0215,-2.1558,-2.3028,-2.588,-2.7925,-2.8281,-2.977,-3.0969,-3.1533,-3.1873,-3.201,-3.1955,-3.16,-3.2063,-3.3537,-3.5037,-3.6559,-3.8145,-3.8742,-3.9618,-4.084,-4.0896,-4.1153,-4.1605,-4.1615,-4.1535,-4.1388,-4.154,-4.159,-4.159,-4.159,-4.159,-4.1479,-4.0065,-3.8524,-3.6802,-3.4491,-3.3537,-3.3293,-3.2137,-3.1715,-3.1659,-3.1329,0.0,0.0,0.0,0.0,0.0,0.0,0.0,0.0,0.0,0.0,0.0,0.0,0.0,0.0,0.0,0.0,0.0,0.0,0.0,0.0,0.0,0.0,0.0,0.0,-4.8765,-5.0894,-5.2399,-5.462,-5.7116,-5.9887,-6.1025,-6.1924,-6.2707,-6.278,-6.278,-6.278,-6.278,-6.278,-6.278,-6.3154,-6.3337,-6.3337,-6.4163,-6.4604,-6.4604,-6.5081,-6.5081,-6.4604,-6.4255,-6.3833,-6.3294,-6.1794,-6.1102,0.0,-5.9864,-5.9078,-5.8599,-5.8599,-5.8317,0.0,0.0,0.0,0.0,0.0,-5.6055,-5.4955,0.0,-1.6067,-1.6303,-1.6503,-1.7212,-1.818,-1.9494,-2.0782,-2.2308,-2.4242,-2.6353,-2.7976,-2.879,-2.9533,-3.0326,-3.1154,-3.1349,-3.1166,0.0,-3.1347,-3.2852,-3.5188,-3.6119,-3.745,-3.9291,-3.9819,-4.0597,-4.1675,-4.1412,-4.1309,-4.1389,-4.2103,-4.2047,-4.1389,-4.2121,-4.2433,-4.2433,-4.2433,-4.2433,-4.2433,-4.2341,-4.1387,-3.9698,-3.6692,-3.5977,-3.6358,-3.478,-3.4211,-3.41,-3.3403,0.0,0.0,0.0,0.0,0.0,0.0,0.0,0.0,0.0,0.0,0.0,0.0,0.0,0.0,0.0,0.0,0.0,0.0,0.0,0.0,0.0,0.0,0.0,0.0,-5.194,-5.4436,-5.6748,-5.7244,-5.84,-6.1263,-6.1667,-6.2016,-6.275,-6.278,-6.278,-6.278,-6.2872,-6.297,-6.297,0.0,0.0,0.0,0.0,-6.5448,-6.5448,-6.554,-6.554,-6.543,-6.4622,-6.4138,-6.3863,-6.1478,-6.0353,-6.0166,-5.8581,-5.7881,-5.7881,-5.7881,-5.7881,-5.7881,-5.7881,-5.7881,-5.7797,-5.707,-5.6393,-5.5716,0.0,-1.6039,-1.6332,-1.775,-1.7663,-1.8189,-2.0508,-2.1287,-2.2308,-2.4242,-2.5912,-2.7199,-2.7942,-2.8738,-2.9653,-3.0716,-3.117,-3.1879,0.0,0.0,-3.5128,-3.6942,-3.779,-3.9013,-4.0691,-4.1085,-4.1566,-4.2163,-4.2366,-4.2651,-4.3039,-4.3185,-4.3167,-4.3039,-4.3185,-4.3276,-4.3276,-4.3276,-4.3276,-4.3221,-4.2561,-4.1717,-4.0728,-3.9441,-3.8652,-3.812,-3.7144,-3.6776,-3.6758,-3.6611,-3.6119,-3.5532,-3.522,-3.3819,0.0,0.0,0.0,0.0,0.0,0.0,0.0,0.0,0.0,0.0,0.0,0.0,0.0,0.0,0.0,0.0,0.0,0.0,0.0,-5.1206,-5.4106,-5.6708,-5.8487,-5.985,-6.0896,-6.152,-6.2181,-6.264,-6.2762,-6.278,-6.278,-6.278,-6.3447,-6.3851,-6.3851,-6.4622,-6.5081,-6.5081,-6.5852,-6.6274,-6.6274,-6.6898,-6.6898,-6.6256,0.0,0.0,-6.2992,-6.1224,-6.0023,-5.9311,-5.8317,-5.7881,-5.7881,-5.7881,-5.7881,-5.7881,-5.7881,-5.7881,-5.7797,-5.707,-5.6714,-5.641,-1.7129,-1.69,-1.6891,-1.7748,-1.8318,-1.9149,-2.0669,-2.1611,-2.2722,-2.4292,-2.5794,-2.6979,-2.7722,-2.8339,-2.9024,-2.9783,-3.0436,0.0,0.0,-3.5188,-3.656,-3.8612,-3.9478,-4.0469,-4.168,-4.1857,-4.226,-4.2892,-4.3074,-4.3277,-4.3515,-4.3515,-4.3515,-4.3515,-4.3515,-4.3515,-4.3515,-4.3515,-4.3515,-4.346,-4.3057,-4.2653,-4.2121,-4.0506,-3.9643,-3.9203,-3.8377,-3.8102,-3.8102,-3.8102,-3.8102,-3.7955,-3.7147,-3.6141,-3.5034,0.0,0.0,0.0,0.0,0.0,0.0,0.0,0.0,0.0,0.0,0.0,0.0,0.0,0.0,-4.6434,-4.8067,0.0,-5.3078,-5.473,-5.6693,-5.8565,-6.0181,-6.108,-6.1741,-6.2144,-6.2567,-6.278,-6.278,-6.278,-6.278,-6.278,-6.3613,-6.409,-6.409,-6.5246,-6.5907,-6.5907,-6.6678,-6.71,-6.71,-6.7485,-6.7485,-6.7081,-6.6274,-6.5004,-6.3354,-6.1734,-6.0329,-5.9061,-5.8263,-5.7881,-5.7881,-5.7881,-5.7881,-5.7881,-5.7881,-5.7881,-5.7848,-5.7476,-5.734,-5.7137,-1.816,-1.8181,-1.8013,-1.7999,-1.9051,-2.012,-2.0811,-2.1819,-2.2921,-2.414,-2.5455,-2.6572,-2.7403,-2.7909,-2.8448,0.0,0.0,0.0,0.0,-3.5973,-3.7606,-4.0029,-4.091,-4.1717,-4.2525,-4.2525,-4.2837,-4.3515,-4.3515,-4.3515,-4.3515,-4.3515,-4.3515,-4.3515,-4.3515,-4.3515,-4.3515,-4.3515,-4.3515,-4.3515,-4.3515,-4.3515,-4.3258,-4.0983,-4.012,-4.001,-3.9038,-3.8597,-3.8487,-3.8652,-3.9019,-3.9237,-3.8098,-3.7621,-3.7151,-3.5369,-3.4612,0.0,0.0,0.0,0.0,0.0,0.0,0.0,0.0,-4.2065,-4.3791,-4.5718,-4.8343,-5.0729,-5.2197,-5.4436,-5.6473,-5.7776,-5.8951,-6.0126,-6.141,-6.1722,-6.2071,-6.2707,-6.278,-6.278,-6.278,-6.278,-6.2879,-6.3044,-6.3851,-6.4402,-6.4549,-6.5944,-6.6733,-6.6733,-6.7357,-6.7687,-6.7687,-6.7687,-6.7615,-6.7442,-6.661,-6.5274,-6.3472,-6.1996,-6.0421,-5.884,-5.8192,-5.7881,-5.7881,-5.7881,-5.7881,-5.7881,-5.7881,-5.7881,-5.7881,-5.7881,-5.7881,-5.7679,0.0,-1.963,-2.0223,-2.0164,-1.9763,-2.0051,-2.1845,-2.1901,-2.2159,-2.3365,-2.4237,-2.5156,-2.6245,-2.6995,-2.799,-2.9413,0.0,0.0,-3.488,-3.6486,-3.8432,-4.0857,-4.1754,-4.2543,-4.3349,-4.3369,-4.3423,-4.3515,-4.3515,-4.3515,-4.3515,-4.3515,-4.3515,-4.3515,-4.3515,-4.3515,-4.3515,-4.3515,-4.3515,-4.3515,-4.3515,-4.3515,-4.3296,-4.1607,-4.0967,-4.0765,-3.9258,-3.823,-3.7749,-3.8469,-3.8267,-3.786,-3.8395,-3.8065,-3.7452,-3.7206,-3.6084,-3.511,-3.5992,-3.6874,-3.7885,-3.9242,-4.0236,-4.1989,0.0,-4.6911,-4.7424,-5.0545,-5.205,-5.3078,-5.3977,-5.6106,-5.7776,-5.796,-5.9869,-6.1392,-6.1557,-6.2218,-6.2688,-6.278,-6.278,-6.278,-6.278,-6.278,-6.3135,-6.3888,-6.4714,-6.5485,-6.6182,-6.7063,-6.7559,-6.7559,-6.7659,-6.7687,-6.7687,-6.7687,-6.7304,-6.6553,-6.5655,-6.4059,-6.1743,-6.0841,-5.9564,-5.8046,-5.7954,-5.7881,-5.7881,-5.7881,-5.7881,-5.7881,-5.7881,-5.7881,-5.7881,-5.7881,-5.7881,-5.7679,0.0,-2.0335,-2.0898,-2.1092,-2.111,-2.136,-2.2189,-2.2135,-2.2343,-2.3277,-2.3838,-2.4657,-2.6056,-2.7246,-2.8291,-2.918,-3.0888,-3.2577,-3.4197,-3.6743,-3.9074,-4.1022,-4.2323,-4.3149,-4.3496,-4.3515,-4.3515,-4.3515,-4.3515,-4.3515,-4.3515,-4.3515,-4.3515,-4.3515,-4.3515,-4.3515,-4.3515,-4.3515,-4.3515,-4.3515,-4.3515,-4.3222,-4.2671,-4.1534,-4.0508,-3.9536,-3.8414,-3.7786,0.0,-3.7349,-3.7386,-3.7566,-3.7896,-3.7768,-3.7492,-3.7492,-3.7331,-3.7658,-3.9982,-4.1193,-4.2177,-4.3698,-4.5076,-4.6581,-4.86,-4.9517,-5.0472,-5.2325,-5.3702,-5.484,-5.5647,-5.7776,-5.9391,-5.9391,-6.1025,-6.231,-6.231,-6.2603,-6.278,-6.278,-6.278,-6.278,-6.278,-6.278,-6.3172,-6.4016,-6.4861,-6.565,-6.6457,-6.7247,-6.7687,-6.7687,-6.7687,-6.746,-6.6939,-6.6939,-6.6505,-6.5586,-6.5229,-6.3786,-6.1484,-6.1155,-5.9854,-5.7881,-5.7881,-5.7881,-5.7881,-5.7881,-5.7881,-5.7881,-5.7881,-5.7881,-5.7881,-5.7881,-5.7881,-5.7679,0.0,-2.1039,-2.1446,-2.1749,-2.2061,-2.2296,-2.2296,-2.2296,-2.2564,-2.3291,-2.3893,-2.4893,-2.6619,-2.787,-2.8682,-2.8964,-3.0265,-3.1751,-3.3366,-3.634,-3.8854,-4.0689,-4.2304,-4.3276,-4.3515,-4.3515,-4.3515,-4.3515,-4.3515,-4.3515,-4.3515,-4.3515,-4.3515,-4.3515,-4.3515,-4.3515,-4.3515,-4.3515,-4.3515,-4.3515,-4.3515,-4.302,-4.2194,-4.1167,-3.9918,-3.8579,-3.7547,-3.6868,0.0,-3.5807,-3.6005,-3.6519,-3.6725,-3.6978,-3.7309,-3.797,-3.9038,-4.0487,-4.2598,-4.4085,-4.5351,-4.6746,-4.8361,-4.9721,-5.0161,-5.1151,-5.2289,-5.3335,-5.4454,-5.5574,-5.662,-5.8602,-6.0144,-6.0364,-6.1759,-6.278,-6.278,-6.278,-6.278,-6.278,-6.278,-6.278,-6.278,-6.278,-6.3172,-6.4016,-6.4861,-6.565,-6.6457,-6.7247,-6.7687,-6.7687,-6.746,-6.7043,-6.6404,-6.6156,-6.5572,-6.4648,-6.4648,-6.3414,-6.1097,-6.0684,-5.9573,-5.7881,-5.7881,-5.7881,-5.7881,-5.7881,-5.7881,-5.7881,-5.7881,-5.7881,-5.7881,-5.7881,-5.7881,-5.7679,0.0,0.0,-2.2268,-2.2282,-2.2296,-2.2296,-2.2296,-2.2296,-2.2564,-2.3291,-2.4382,-2.5893,-2.8101,-2.8719,-2.8994,-2.9005,-2.9769,-3.0925,-3.2528,-3.4981,-3.7441,-3.9827,-4.1479,-4.269,-4.3478,-4.3515,-4.3515,-4.3515,-4.3515,-4.3515,-4.3515,-4.3515,-4.3515,-4.3515,-4.3515,-4.3515,-4.3515,-4.3515,-4.3515,-4.3515,-4.3515,-4.302,-4.2139,-4.0543,-3.9423,-3.8487,-3.6909,0.0,-3.3917,-3.388,-3.388,-3.4045,-3.4821,-3.5661,-3.6798,-3.9145,-4.1497,-4.3221,-4.2525,-4.4066,-4.6067,-4.6892,-4.8361,-5.0014,-5.1555,-5.1958,-5.2435,-5.4032,-5.4399,-5.4913,-5.651,-5.812,-5.9478,-6.0272,-6.1759,-6.278,-6.278,-6.278,-6.278,-6.278,-6.278,-6.278,-6.278,-6.278,-6.3172,-6.4016,-6.4861,-6.565,-6.6457,-6.7247,-6.7687,-6.7687,-6.6881,-6.6434,-6.6404,-6.549,-6.4614,-6.3755,-6.3755,-6.2469,-6.0084,-5.8646,-5.7969,-5.7881,-5.7881,-5.7881,-5.7881,-5.7881,-5.7881,-5.7881,-5.7881,-5.7881,-5.7881,-5.7881,-5.7881,-5.7679,0.0,0.0,0.0,-2.3663,-2.3342,-2.3038,-2.3038,-2.2615,-2.2564,-2.3291,-2.5045,0.0,0.0,0.0,0.0,0.0,-2.9739,-3.0668,-3.1733,-3.4633,-3.689,-3.8245,-4.0359,-4.1882,-4.269,-4.269,-4.2965,-4.3515,-4.3515,-4.3515,-4.3515,-4.3515,-4.3515,-4.3515,-4.3515,-4.3515,-4.3515,-4.3515,-4.3809,-4.4195,-4.313,-4.2543,-4.2121,-4.0506,-3.8377,-3.6105,0.0,0.0,-3.3642,-3.2559,-3.2559,-3.3133,-3.394,-3.4766,-3.6032,-3.9019,-4.1222,-4.3112,-4.4966,-4.6471,-4.7957,-4.9866,-5.0765,-5.1463,-5.2546,-5.2803,-5.3096,-5.4179,-5.3977,-5.4106,-5.5702,-5.6877,-5.8052,-5.941,-6.0951,-6.2199,-6.2707,-6.278,-6.278,-6.278,-6.278,-6.278,-6.278,-6.278,0.0,-6.4016,-6.4861,-6.565,-6.6457,-6.7247,-6.7415,-6.6852,-6.6553,-6.5829,-6.4616,-6.4306,-6.3702,-6.2855,-6.1814,-6.0894,-6.0047,-5.8558,-5.7881,-5.7881,-5.7881,-5.7881,-5.7881,-5.7881,-5.7881,-5.7881,-5.7881,-5.7881,-5.7881,-5.7881,-5.7881,-5.7746,0.0,0.0,0.0,0.0,0.0,0.0,0.0,0.0,0.0,0.0,0.0,0.0,0.0,0.0,0.0,0.0,0.0,-3.0118,-3.0907,-3.3233,-3.5147,-3.6541,-3.8086,-3.9426,-4.0561,-4.0579,-4.0983,-4.1772,-4.2066,-4.2359,-4.2635,-4.2635,-4.2635,-4.2635,-4.2635,-4.2635,-4.2635,-4.2635,-4.2947,-4.3297,-4.1974,-4.1277,-4.0836,-3.9221,-3.711,0.0,0.0,0.0,-3.3091,-3.1182,-3.1458,-3.2693,-3.322,-3.5114,-3.7646,-4.0047,-4.2304,-4.4544,-4.6892,-4.8323,-4.9646,-5.1518,-5.2215,-5.2564,-5.3096,-5.2986,-5.2931,-5.3445,-5.2913,-5.2747,-5.4069,-5.4968,-5.6235,-5.8437,-5.9887,-6.1227,-6.2597,-6.278,-6.278,-6.278,-6.278,-6.278,-6.278,-6.278,-6.3044,-6.3594,-6.4677,-6.554,-6.6035,-6.6802,-6.6985,-6.6434,-6.5766,-6.4886,-6.3719,-6.3388,-6.2816,-6.1992,-6.0706,-5.9962,-5.9674,-5.844,-5.7881,-5.7881,-5.7881,-5.7881,-5.7881,-5.7881,-5.7881,-5.7881,-5.7881,-5.7881,-5.7881,-5.7881,-5.7881,-5.778,0.0,0.0,0.0,0.0,0.0,0.0,0.0,0.0,0.0,0.0,0.0,0.0,0.0,0.0,0.0,0.0,0.0,0.0,-3.0099,0.0,0.0,-3.4729,-3.4931,-3.5771,-3.7401,-3.7474,-3.7896,-3.8707,-3.946,-4.023,-4.0967,-4.0967,-4.0967,-4.0967,-4.0967,-4.0967,-4.0967,-4.0967,-4.1003,-4.0948,-4.012,-3.9331,-3.8524,-3.6909,0.0,0.0,0.0,-3.2619,-3.2252,-2.9996,-3.0876,-3.2931,-3.3005,-3.6765,-4.1334,-4.2231,-4.4673,-4.7296,-4.8196,-4.9627,-5.1059,-5.1848,-5.2637,-5.3185,-5.3148,-5.2546,-5.1977,-5.194,-5.1298,-5.0986,-5.1775,-5.2637,-5.4252,-5.7428,-5.8694,-6.0083,-6.245,-6.278,-6.278,-6.278,-6.286,-6.2879,-6.2879,-6.2847,-6.2858,-6.2858,0.0,-6.5294,-6.5304,-6.5989,-6.6374,-6.6265,-6.4599,-6.3683,-6.3647,-6.2817,-6.2026,-6.1298,-6.0486,-5.9725,-5.8981,-5.8237,-5.7881,-5.7881,-5.7881,-5.7881,-5.7881,-5.7881,-5.7881,-5.7881,-5.7881,-5.7881,-5.7881,-5.7881,-5.7865,-5.7729,0.0,0.0,0.0,0.0,0.0,0.0,0.0,0.0,0.0,0.0,0.0,0.0,0.0,0.0,0.0,0.0,0.0,0.0,-2.9299,0.0,0.0,0.0,0.0,-3.55,-3.6593,-3.7199,-3.7896,-3.8707,-3.8909,-3.9111,-3.9313,-3.9313,-3.9313,-3.9313,-3.9313,-3.9313,-3.9313,-3.9313,-3.9662,-4.0084,0.0,-3.834,-3.8524,0.0,0.0,0.0,0.0,-3.3109,-3.2601,-3.2577,-3.4614,-3.7334,-3.8545,-4.0325,-4.2396,-4.4397,-4.5993,-4.7553,-4.9609,-5.0912,-5.1885,-5.2692,-5.3059,-5.3041,-5.2435,-5.2142,-5.183,-5.1224,-5.0472,-5.0161,-5.0949,-5.2252,-5.4047,-5.6693,-5.8804,-6.0731,-6.2523,-6.278,-6.278,-6.278,-6.3374,-6.3759,-6.3759,-6.3684,-6.3627,-6.3627,-6.4656,-6.5266,-6.517,-6.5963,-6.5797,-6.4427,-6.3953,-6.3388,-6.2757,-6.252,-6.2026,-6.1298,-6.0486,-5.9725,-5.8981,-5.8237,-5.7881,-5.7881,-5.7881,-5.7881,-5.7881,-5.7881,-5.7881,-5.7881,-5.7881,-5.7881,-5.7881,-5.7881,-5.7543,-5.7053,0.0,0.0,0.0,0.0,0.0,0.0,0.0,0.0,0.0,0.0,0.0,0.0,0.0,0.0,0.0,0.0,0.0,0.0,0.0,-2.9861,0.0,0.0,-3.183,-3.2766,-3.3605,-3.4761,-3.5569,0.0,0.0,0.0,-3.7661,-3.7661,-3.7441,-3.7077,-3.7477,-3.7441,-3.7096,-3.7477,0.0,0.0,0.0,0.0,0.0,0.0,0.0,0.0,-3.3807,-3.4449,-3.5445,-3.6615,-3.7991,-3.9625,-4.1939,-4.324,-4.4287,-4.6342,-4.7792,-4.9167,-5.1279,-5.2435,-5.3151,-5.361,-5.3739,-5.3335,-5.1811,-5.1463,-5.1041,-4.9499,-4.882,-4.8526,-4.8636,-4.9958,-5.1977,-5.4785,-5.7262,-5.963,-6.1961,-6.2585,-6.278,-6.278,-6.3576,-6.3925,-6.3537,-6.3734,-6.3871,-6.3852,-6.4344,-6.4601,-6.4527,-6.4984,-6.4751,-6.3755,-6.3314,-6.2876,-6.2381,-6.2076,-6.1535,-6.0757,-5.9996,-5.9235,-5.8507,-5.8084,-5.7881,-5.7881,0.0,-5.7881,-5.7881,-5.7881,-5.7881,-5.7881,-5.7881,-5.7881,-5.7881,-5.7881,-5.7425,-5.6799,0.0,0.0,0.0,0.0,0.0,0.0,0.0,0.0,0.0,0.0,-2.861,0.0,0.0,0.0,0.0,0.0,0.0,0.0,0.0,0.0,0.0,0.0,-2.9464,-2.9482,-3.0173,-3.1665,-3.2436,-3.2436,0.0,0.0,0.0,0.0,0.0,0.0,0.0,0.0,0.0,0.0,0.0,0.0,0.0,0.0,0.0,0.0,0.0,0.0,-3.4045,-3.5954,-3.8689,-4.0728,-4.1111,-4.1203,-4.4086,-4.5663,-4.6691,-4.8196,-4.9738,-5.1316,-5.2931,-5.3867,-5.4399,-5.4399,-5.4326,-5.3647,-5.1334,-5.0637,-4.9829,-4.7571,-4.7021,-4.6727,-4.603,-4.7315,-4.9517,-5.2671,-5.5317,-5.8052,-6.1153,-6.2291,-6.278,-6.278,-6.3482,-6.3645,-6.2939,-6.341,-6.3742,-6.3791,-6.3696,-6.3645,-6.3778,-6.3747,-6.3647,-6.3518,-6.2779,-6.233,-6.2245,-6.162,-6.0858,-5.9945,-5.9319,-5.8609,-5.7881,-5.7881,-5.7881,-5.7881,0.0,0.0,-5.7881,-5.7881,-5.7881,-5.7881,-5.7881,-5.7881,-5.7881,-5.7881,-5.7357,-5.6664,0.0,0.0,0.0,0.0,0.0,0.0,0.0,0.0,0.0,0.0,-2.9722,-2.8929,0.0,0.0,0.0,0.0,0.0,0.0,0.0,0.0,0.0,0.0,-2.9702,-3.0063,-3.021,-3.1127,-3.1604,-3.1604,-3.2039,0.0,0.0,0.0,0.0,0.0,0.0,0.0,0.0,0.0,0.0,0.0,0.0,0.0,0.0,0.0,0.0,0.0,-3.5367,-3.6229,-3.7367,-4.1644,-4.3864,-4.5076,-4.6287,-4.7737,-4.9151,-5.0086,-5.1041,-5.2142,-5.3757,-5.4289,-5.4399,-5.4399,-5.3904,-5.2968,-5.1206,-4.9738,-4.8434,-4.7333,-4.6562,-4.6067,-4.592,-4.7792,-5.0196,-5.2784,-5.5794,-5.8676,-6.1227,-6.2291,-6.278,-6.278,-6.2929,-6.3207,-6.365,-6.3161,-6.3066,-6.3692,-6.305,-6.2956,-6.3673,-6.3705,-6.3388,-6.2659,-6.2498,-6.2093,-6.1501,-6.1366,-6.0605,-5.9201,-5.9066,-5.8609,-5.7881,-5.7881,-5.7881,-5.7881,-5.7881,0.0,-5.7881,-5.7881,-5.7881,-5.7881,-5.7881,-5.7881,-5.7881,-5.7881,-5.7053,-5.5902,0.0,0.0,0.0,0.0,0.0,0.0,0.0,-3.0181,-3.1055,-3.2454,-3.1971,-3.117,-3.0338,-2.9879,-2.9464,0.0,0.0,0.0,0.0,0.0,0.0,0.0,0.0,-2.9757,-3.0191,-3.1403,-3.2027,-3.2027,0.0,-3.2852,-3.2027,-3.2027,-3.1806,-3.1433,-3.2247,-3.2601,-3.2656,0.0,0.0,0.0,0.0,0.0,0.0,0.0,0.0,0.0,-3.6501,-3.7184,-3.8028,-4.1185,-4.3314,-4.5002,-4.7076,-4.8581,-4.9757,-5.0563,-5.1665,-5.2986,-5.4583,-5.5335,-5.5556,-5.5133,-5.4418,-5.3059,-5.016,-4.8893,-4.7719,-4.5663,-4.5259,-4.5149,-4.4727,-4.6654,-4.882,-5.0398,-5.339,-5.6492,-5.9318,-6.0419,-6.1226,-6.2081,-6.2549,-6.2604,-6.2092,-6.2017,-6.1965,-6.1816,-6.1431,-6.1749,-6.2939,-6.2652,-6.2254,-6.1823,-6.1417,-6.1028,-6.0689,-6.03,-5.9742,-5.9015,-5.8609,-5.8237,-5.7881,-5.7881,-5.7881,-5.7881,-5.7881,0.0,-5.7881,-5.7881,-5.7881,-5.7881,-5.7881,-5.7881,-5.7831,-5.7459,-5.6647,-5.5666,0.0,0.0,0.0,0.0,0.0,0.0,0.0,-3.1269,-3.2228,-3.3862,-3.4229,-3.377,-3.232,-3.1311,-3.0308,0.0,0.0,0.0,0.0,0.0,0.0,0.0,0.0,-2.9629,-3.0448,0.0,0.0,-3.2601,-3.3683,0.0,0.0,0.0,0.0,0.0,-3.2247,-3.2601,-3.2656,-3.3458,0.0,0.0,0.0,-3.4435,0.0,0.0,0.0,0.0,0.0,-3.7804,-3.8487,-4.0435,-4.1827,-4.3259,-4.6305,-4.8214,-4.9444,-5.0086,-5.1555,-5.3298,-5.4895,-5.5794,-5.618,-5.5702,-5.473,-5.2949,-4.9389,-4.8177,-4.7021,-4.4305,-4.4121,-4.425,-4.3608,-4.5186,-4.6947,-4.8122,-5.0912,-5.4059,-5.7298,-5.8591,-5.9725,-6.1148,-6.1756,-6.1539,-6.0408,-6.0687,-6.0709,-6.0156,-6.0097,-6.0622,-6.1823,-6.1349,-6.1044,-6.1044,-6.0436,-6.003,-5.9877,-5.9302,-5.893,-5.8778,-5.8169,-5.7881,-5.7881,-5.7881,-5.7881,-5.7881,-5.7881,0.0,0.0,-5.7881,-5.7881,-5.7881,-5.7881,-5.7881,-5.7797,-5.707,-5.6342,-5.5598,0.0,0.0,0.0,0.0,0.0,0.0,0.0,-3.1524,-3.306,-3.4692,-3.5587,-3.5716,-3.4766,-3.3298,-3.1757,0.0,0.0,0.0,0.0,0.0,0.0,0.0,0.0,0.0,0.0,0.0,0.0,-3.2601,-3.2027,0.0,0.0,0.0,0.0,0.0,0.0,-3.2601,-3.2656,-3.3458,0.0,0.0,0.0,0.0,0.0,0.0,0.0,0.0,0.0,-3.7088,-3.6982,-4.0049,-4.0708,-4.0671,-4.3166,-4.5993,-4.8434,-4.8508,-5.0233,-5.2454,-5.4069,-5.4564,-5.4785,-5.5427,-5.3885,-5.1738,-4.9904,-4.7737,-4.5828,-4.48,-4.4066,-4.3589,-4.3497,-4.4287,-4.5645,-4.7939,-5.0435,-5.323,-5.6472,-5.8246,-5.9537,-6.0402,-5.9885,-5.966,-6.022,-5.9655,-5.9445,-6.0047,-6.0097,-6.0165,-6.03,-6.025,-6.0216,-6.0216,-6.0131,-5.9776,-5.9116,-5.9049,-5.8676,-5.7983,-5.7915,-5.7881,-5.7881,-5.7881,-5.7881,-5.7881,-5.7881,0.0,0.0,-5.7881,-5.7881,-5.7881,-5.7881,-5.7881,-5.7797,-5.707,-5.6342,-5.5598,0.0,0.0,0.0,0.0,0.0,0.0,-3.1316,-3.1788,-3.2981,-3.6101,-3.6376,-3.634,-3.6486,-3.5652,-3.4006,-3.138,0.0,0.0,0.0,0.0,0.0,0.0,0.0,0.0,0.0,0.0,-3.3238,-3.405,-3.4247,0.0,0.0,0.0,0.0,0.0,0.0,-3.2858,-3.3348,-3.366,0.0,0.0,0.0,0.0,0.0,0.0,0.0,0.0,0.0,0.0,-3.7936,-3.9205,-3.9772,-4.0065,-4.102,-4.2873,-4.5076,-4.7003,-4.9334,-5.1628,-5.3243,-5.4381,-5.5078,-5.4913,-5.3427,-5.1426,-4.9297,-4.7297,-4.5535,-4.4232,-4.3718,-4.3515,-4.3515,-4.4158,-4.5168,-4.6617,-4.8104,-5.0188,-5.344,-5.4514,-5.5737,-5.7983,-5.7978,-5.8062,-5.88,-5.8523,-5.8457,-5.8744,-5.8778,0.0,-5.8778,-5.9201,-5.9455,-5.9455,-5.8998,-5.8626,-5.8338,-5.8338,-5.8186,-5.7881,-5.7881,-5.7881,-5.7881,-5.7881,-5.7881,-5.7881,-5.7881,0.0,0.0,-5.7881,-5.7881,-5.7881,-5.7881,-5.7628,-5.7154,-5.6427,-5.5683,-5.4938,0.0,0.0,0.0,0.0,0.0,-2.9337,-3.1548,-3.1806,-3.2871,-3.6005,-3.6421,-3.6639,-3.7206,-3.6713,-3.5528,-3.3537,-3.2515,0.0,0.0,0.0,0.0,0.0,0.0,0.0,0.0,0.0,-3.4784,-3.6087,-3.6468,-3.6156,0.0,0.0,-3.4339,-3.3316,0.0,0.0,0.0,0.0,0.0,0.0,0.0,0.0,0.0,0.0,0.0,0.0,0.0,0.0,0.0,0.0,0.0,-3.9551,-3.9551,-4.0487,-4.2213,-4.5443,-4.7957,-5.0123,-5.1995,-5.3316,-5.4087,-5.3775,-5.2472,-5.0692,-4.8471,-4.6893,-4.5443,-4.3845,-4.3515,-4.3515,-4.3515,-4.3956,-4.469,-4.5736,-4.6581,-4.8247,-5.1502,-5.2056,-5.3092,-5.5819,-5.6189,-5.6507,-5.7175,-5.7628,-5.7881,-5.7881,-5.7881,0.0,-5.7881,-5.8389,-5.8676,-5.8676,-5.8169,-5.7881,-5.7881,-5.7881,-5.7881,-5.7881,-5.7881,-5.7881,-5.7881,-5.7881,-5.7881,-5.7881,-5.7881,0.0,0.0,-5.7881,-5.7881,-5.7881,-5.7881,-5.7442,-5.6714,-5.5987,-5.5243,-5.4482,0.0,0.0,0.0,0.0,0.0,0.0,-3.0099,-3.1568,-3.2894,-3.3733,-3.5499,-3.6708,-3.6708,-3.5988,-3.5934,-3.6955,-3.4806,0.0,0.0,0.0,0.0,0.0,0.0,0.0,0.0,0.0,-3.6197,-3.867,-3.7878,-3.7896,-3.8634,-3.7841,-3.656,-3.4986,0.0,0.0,0.0,0.0,0.0,0.0,0.0,0.0,0.0,0.0,0.0,0.0,0.0,0.0,0.0,0.0,0.0,0.0,0.0,-3.9276,-4.0561,-4.3791,-4.5865,-4.7681,-5.016,-5.0839,-5.1041,-5.183,-5.0822,-4.9169,-4.7498,-4.6489,-4.5443,-4.3845,-4.3515,-4.3515,-4.3515,-4.3515,-4.4047,-4.5645,-4.6581,-4.8216,-5.1447,-5.2027,-5.2709,-5.4329,-5.4562,-5.4888,-5.5666,-5.7036,-5.7881,-5.7881,-5.7881,0.0,-5.7881,-5.7898,-5.7898,-5.7898,-5.7881,-5.7881,-5.7881,-5.7881,-5.7881,-5.7881,-5.7881,-5.7881,-5.7881,-5.7881,-5.7881,0.0,0.0,0.0,0.0,-5.7881,-5.7881,-5.7881,-5.7881,-5.7442,-5.6714,-5.5987,-5.5243,-5.4482,0.0,0.0,0.0,0.0,0.0,0.0,0.0,-3.0161,-3.1023,-3.3476,-3.4031,-3.4821,-3.6534,-3.6632,-3.6739,-3.7073,-3.5004,0.0,0.0,0.0,0.0,0.0,0.0,0.0,0.0,-3.5573,-3.6817,-3.8707,-3.9001,-3.9258,-3.9496,-3.8707,-3.7734,-3.667,-3.6138,-3.5752,0.0,0.0,0.0,0.0,0.0,0.0,0.0,0.0,0.0,0.0,0.0,0.0,0.0,0.0,0.0,0.0,0.0,0.0,0.0,-4.1609,-4.4176,-4.6452,-4.7241,-4.8691,-4.9756,-4.8875,-4.8269,-4.7609,-4.6526,-4.5663,-4.4782,-4.3718,-4.3515,-4.3515,-4.3515,-4.3515,-4.4052,-4.5751,-4.6627,-4.7694,-4.9471,-5.1086,-5.2488,-5.3558,-5.557,-5.6934,0.0,0.0,-5.7881,-5.7881,0.0,0.0,-5.7881,-5.7881,-5.7881,-5.7881,-5.7881,-5.7881,-5.7881,-5.7881,-5.7881,-5.7881,-5.7881,-5.7881,-5.7881,-5.7881,-5.7881,0.0,0.0,0.0,0.0,-5.7881,-5.7881,-5.7831,-5.734,-5.6697,-5.597,-5.5226,-5.4482,-5.3805,0.0,0.0,0.0,0.0,0.0,0.0,0.0,-2.9574,-3.0271,-3.2577,-3.2957,-3.3827,-3.6006,-3.6407,-3.6745,-3.7345,-3.5779,0.0,0.0,0.0,0.0,0.0,0.0,0.0,-3.5463,-3.6321,-3.7845,-4.0065,-4.0561,-4.0946,-4.124,-4.0744,-3.9588,-3.7933,-3.7422,-3.6872,0.0,0.0,0.0,0.0,0.0,0.0,0.0,0.0,0.0,0.0,0.0,0.0,0.0,0.0,0.0,0.0,0.0,0.0,0.0,0.0,-4.2286,-4.4287,-4.5204,-4.6562,-4.7572,-4.6838,-4.6636,-4.6452,-4.5626,-4.5057,-4.447,-4.3663,-4.3515,-4.3515,-4.3515,-4.3515,-4.398,-4.5457,-4.6041,-4.6884,-4.8511,-5.0215,-5.1934,-5.3587,-5.5723,0.0,0.0,-5.7729,-5.7881,0.0,0.0,0.0,-5.7881,-5.7881,-5.7881,-5.7881,-5.7881,-5.7881,-5.7881,-5.7881,-5.7881,-5.7881,-5.7881,-5.7881,-5.7881,-5.7881,-5.7881,0.0,0.0,0.0,0.0,-5.7594,-5.7476,-5.7408,-5.6681,-5.5936,-5.5243,-5.4769,-5.4126,-5.3501,0.0,0.0,0.0,0.0,0.0,0.0,0.0,-2.9629,-3.0411,-3.1286,-3.2307,-3.3575,-3.5235,-3.5521,-3.6218,-3.7696,0.0,0.0,0.0,0.0,0.0,0.0,0.0,0.0,-3.6358,-3.718,-3.9126,-4.2213,-4.2323,-4.28,-4.3589,-4.3589,-4.1919,-3.8946,-3.8909,-3.7973,0.0,0.0,0.0,0.0,0.0,0.0,0.0,0.0,0.0,0.0,0.0,0.0,0.0,0.0,0.0,0.0,0.0,0.0,0.0,0.0,0.0,0.0,0.0,-4.4452,-4.4673,-4.5314,-4.5516,-4.5351,-4.4617,-4.4434,0.0,-4.3552,-4.337,-4.3389,-4.35,-4.3483,-4.3798,-4.4852,-4.5114,-4.6022,-4.8381,-4.96,-5.1356,-5.4415,-5.5412,0.0,-5.6816,-5.7492,-5.7881,0.0,0.0,0.0,-5.7881,-5.7881,-5.7881,-5.7881,-5.7881,-5.7881,-5.7881,-5.7881,-5.7881,-5.7881,-5.7881,-5.7881,-5.7881,-5.7831,-5.7814,0.0,0.0,0.0,0.0,-5.7002,-5.6731,-5.6664,-5.5919,-5.5209,-5.4583,-5.4532,-5.4093,-5.3501,0.0,0.0,0.0,0.0,0.0,0.0,0.0,0.0,0.0,0.0,-3.1971,-3.2932,-3.4347,-3.5825,-3.6785,0.0,0.0,0.0,0.0,0.0,0.0,0.0,0.0,0.0,-3.7199,-3.801,-3.9386,-4.137,-4.2598,-4.3626,-4.4415,-4.4415,-4.3369,-4.1442,-4.0802,-3.9643,0.0,0.0,0.0,0.0,0.0,0.0,0.0,0.0,0.0,0.0,-3.7566,-3.7786,0.0,0.0,0.0,0.0,0.0,0.0,0.0,0.0,-3.9129,-3.9533,-4.0708,0.0,-4.2616,-4.157,-4.1772,-4.2178,0.0,-4.1939,-4.2067,-4.2488,-4.2194,-4.2267,-4.3497,-4.3362,-4.3539,-4.5064,-4.6246,-4.7248,-4.8009,-5.0748,-5.3583,-5.6005,-5.6934,-5.7442,-5.7611,-5.778,0.0,0.0,0.0,-5.7881,-5.7881,-5.7881,-5.7881,-5.7881,-5.7881,-5.7881,-5.7881,-5.7881,-5.7881,-5.7881,-5.7881,-5.7881,-5.7865,-5.7306,0.0,0.0,0.0,0.0,-5.6207,-5.6038,-5.597,-5.5902,-5.5141,-5.4752,-5.4515,-5.3957,-5.3653,-5.3501,0.0,0.0,0.0,0.0,0.0,0.0,0.0,0.0,0.0,0.0,0.0,-3.2393,-3.3864,-3.564,0.0,0.0,0.0,0.0,0.0,0.0,0.0,0.0,0.0,-3.7052,-3.7492,-3.8652,-4.0212,-4.2194,-4.3442,-4.4654,-4.5792,-4.5406,-4.4195,-4.2231,-4.0689,-3.9517,0.0,0.0,0.0,0.0,0.0,0.0,0.0,0.0,0.0,0.0,-3.7217,-3.7492,0.0,-3.8854,-3.9239,-3.9239,0.0,0.0,0.0,0.0,-3.8707,-3.8799,-3.9239,-4.0799,-4.2176,-4.168,-4.1882,-4.2194,-4.2194,-4.1627,-4.1224,-4.1645,-4.1559,-4.1771,-4.3032,-4.3051,-4.3351,-4.468,-4.5846,-4.7246,-4.9155,-5.2063,-5.4702,-5.6579,-5.7442,-5.7881,0.0,0.0,0.0,0.0,0.0,-5.7881,-5.7881,-5.7881,-5.7881,-5.7881,-5.7881,-5.7881,-5.7881,-5.7881,-5.7881,-5.7881,-5.7543,-5.7391,-5.7357,-5.663,-5.6308,0.0,0.0,0.0,-5.5683,-5.5344,-5.5209,-5.5124,-5.438,-5.4093,-5.4042,-5.3653,-5.3501,-5.3501,0.0,0.0,0.0,0.0,0.0,0.0,0.0,0.0,0.0,0.0,0.0,0.0,0.0,0.0,0.0,0.0,0.0,0.0,0.0,0.0,0.0,0.0,-3.7676,-3.7749,-3.786,-3.9313,-4.1148,-4.3331,-4.4378,-4.5572,-4.6911,-4.6471,-4.4911,-4.2378,-4.0084,-3.8927,0.0,0.0,0.0,0.0,0.0,0.0,0.0,0.0,0.0,0.0,0.0,0.0,0.0,-3.9035,-3.9606,-3.9717,-3.9717,0.0,0.0,0.0,0.0,0.0,-3.9001,-4.0744,-4.2561,-4.2855,-4.3147,-4.326,-4.3044,-4.2016,-4.1099,-4.1022,-4.1162,-4.1583,-4.2521,-4.2845,-4.3325,-4.4354,-4.5319,-4.7215,-5.0858,-5.323,-5.5108,-5.6478,-5.7374,0.0,0.0,0.0,0.0,0.0,0.0,-5.756,-5.756,-5.756,-5.756,-5.756,-5.756,-5.756,-5.756,-5.7679,-5.7679,-5.7543,-5.6934,-5.663,-5.6613,-5.5886,-5.5547,0.0,0.0,0.0,-5.5327,-5.4685,-5.4431,-5.4363,-5.3737,-5.3501,-5.3501,-5.3501,-5.3501,-5.3501,0.0,0.0,0.0,0.0,0.0,0.0,0.0,0.0,0.0,0.0,0.0,0.0,0.0,0.0,0.0,0.0,0.0,0.0,0.0,0.0,0.0,-3.8524,-3.8524,-3.8836,-3.9515,-4.0451,-4.1442,-4.2488,-4.4654,-4.5847,-4.6104,-4.7352,-4.6287,-4.3239,-4.1497,-3.9976,-3.8707,-3.8707,0.0,0.0,0.0,0.0,0.0,0.0,0.0,0.0,0.0,0.0,0.0,-3.7566,-3.8322,-3.8891,-3.8891,0.0,0.0,0.0,0.0,0.0,-4.0361,-4.1992,-4.2837,-4.0944,-4.1479,-4.2166,-4.098,-4.0901,-4.1024,-4.074,-4.0694,-4.1213,-4.2806,-4.3219,-4.381,-4.5264,-4.7153,-4.9328,-5.1775,-5.3551,-5.4921,-5.5784,0.0,0.0,0.0,0.0,0.0,0.0,0.0,-5.6055,-5.6055,-5.6055,-5.6055,-5.6055,-5.6055,-5.6055,-5.6055,-5.6664,-5.6664,-5.6055,-5.5936,-5.5886,-5.5817,-5.5108,-5.4769,0.0,0.0,-5.3839,-5.3839,-5.3721,-5.367,-5.367,-5.3551,-5.3501,-5.3501,-5.3501,-5.3501,-5.3501,0.0,0.0,0.0,0.0,0.0,0.0,0.0,0.0,0.0,0.0,0.0,0.0,0.0,0.0,0.0,0.0,0.0,0.0,0.0,0.0,-3.8891,-3.9331,-3.935,-3.9515,-3.9882,-4.1534,-4.28,-4.3608,-4.559,-4.6783,-4.7186,-4.6636,-4.5112,-4.2782,-4.1167,-3.9808,-3.8707,-3.8707,-3.8707,0.0,0.0,0.0,0.0,0.0,0.0,0.0,0.0,0.0,0.0,0.0,-3.8395,-3.8781,-3.9203,0.0,0.0,0.0,0.0,0.0,-3.9591,-4.1295,-4.2493,-4.1085,-4.225,-4.3481,-4.2476,-4.1801,-4.132,-4.117,-4.1266,-4.1725,-4.2916,-4.3645,-4.479,-4.7107,-4.9018,-5.0693,-5.2097,-5.3619,-5.4718,0.0,0.0,0.0,0.0,0.0,0.0,0.0,0.0,0.0,-5.5681,-5.5681,-5.5681,-5.5681,-5.5681,-5.553,-5.5108,-5.5446,-5.5649,-5.5681,-5.531,-5.5108,-5.5091,-5.4346,-5.4008,-5.3991,0.0,-5.3501,-5.3501,-5.3501,-5.3501,-5.3501,-5.3501,-5.3501,-5.3501,-5.3501,-5.3501,-5.3501,0.0,0.0,0.0,0.0,0.0,0.0,0.0,0.0,0.0,0.0,0.0,0.0,0.0,0.0,0.0,0.0,0.0,0.0,0.0,-3.8624,-3.9056,-3.9845,-4.0084,-4.0359,-4.0726,-4.256,-4.3975,-4.4984,-4.6397,-4.7498,-4.8269,-4.6232,-4.4305,-4.2525,-4.1093,-3.9808,-3.8707,-3.8707,-3.8707,0.0,0.0,0.0,0.0,0.0,0.0,0.0,0.0,0.0,0.0,0.0,0.0,0.0,0.0,0.0,0.0,-3.8891,-3.8579,-3.8542,-3.9111,-4.0469,-4.1694,-4.1535,-4.299,-4.4384,-4.4117,-4.2969,-4.1978,-4.2265,-4.243,-4.2741,-4.3348,-4.4374,-4.6007,-4.8815,-5.0355,-5.1539,-5.2452,-5.3737,-5.4583,-5.4583,-5.526,0.0,0.0,0.0,0.0,0.0,0.0,0.0,-5.5157,-5.5157,-5.5157,-5.5157,-5.5157,-5.4921,-5.4346,-5.4329,-5.4634,-5.5192,-5.4617,-5.4329,-5.4313,-5.3754,-5.3501,-5.3501,-5.3501,-5.3501,-5.3501,-5.3501,-5.3501,-5.3501,-5.3501,-5.3501,-5.3501,-5.3501,-5.3501,-5.3501,0.0,0.0,0.0,0.0,0.0,0.0,0.0,0.0,0.0,0.0,0.0,0.0,0.0,0.0,0.0,0.0,0.0,0.0,0.0,-3.842,-3.9056,-3.9845,-4.0616,-4.1717,-4.3221,-4.3423,-4.425,-4.581,-4.6672,-4.7498,-4.8288,-4.7351,-4.5681,-4.3386,-4.2506,-4.0855,-3.8707,-3.8707,-3.8707,-3.8707,-3.8707,0.0,0.0,0.0,0.0,0.0,0.0,0.0,0.0,0.0,0.0,0.0,0.0,0.0,-3.8781,-3.8726,-3.8175,-3.808,-4.0322,-4.0506,-4.0347,-4.15,-4.2322,-4.3122,-4.4056,-4.3506,-4.3109,-4.4182,-4.4266,-4.4208,-4.4442,-4.5664,-4.7378,-4.9644,-5.0676,-5.1725,-5.3213,0.0,-5.4583,-5.4583,0.0,0.0,0.0,0.0,0.0,0.0,0.0,0.0,-5.367,-5.367,-5.367,-5.367,-5.367,-5.3636,-5.3585,-5.3585,-5.3619,-5.367,-5.3602,-5.3585,-5.3585,-5.3518,-5.3501,-5.3501,-5.3501,-5.3501,-5.3501,-5.3501,-5.3501,-5.3501,-5.3501,-5.3501,-5.3501,-5.3501,-5.3501,-5.3501,0.0,0.0,0.0,0.0,0.0,0.0,0.0,0.0,0.0,0.0,0.0,0.0,0.0,0.0,0.0,0.0,0.0,0.0,0.0,-3.7842,-3.8539,-3.9827,-4.0194,-4.1111,-4.2708,-4.4213,-4.5535,-4.6636,-4.7443,-4.7736,-4.7535,-4.6746,-4.5076,-4.2708,-4.1919,-4.0781,-3.9405,-3.8909,-3.9001,-3.9405,-3.8909,0.0,0.0,0.0,0.0,0.0,0.0,0.0,0.0,0.0,-3.6046,-3.6813,-3.711,-3.79,-3.8597,-3.8102,-3.7528,-3.7332,-3.8517,-3.9253,-3.9745,-4.0147,-4.1286,-4.2584,-4.3529,-4.3845,-4.4344,-4.5682,-4.5903,-4.5897,-4.5947,-4.6802,-4.7919,-4.9204,-5.0811,-5.2097,-5.2672,-5.3416,0.0,0.0,0.0,0.0,0.0,0.0,0.0,0.0,0.0,0.0,0.0,-5.3501,-5.3501,-5.3501,-5.3501,-5.3501,-5.3501,-5.3501,-5.3501,-5.3501,-5.3501,-5.3501,-5.3501,-5.3501,-5.323,-5.2756,-5.2756,-5.2503,-5.208,-5.208,-5.235,-5.2807,-5.3315,-5.3501,-5.345,-5.2942,-5.3078,-5.3433,0.0,0.0,0.0,0.0,0.0,0.0,0.0,0.0,0.0,0.0,0.0,0.0,0.0,0.0,0.0,0.0,0.0,0.0,-3.6633,-3.6978,-3.7841,-3.9441,-3.9515,-4.0396,-4.2268,-4.4176,-4.5663,-4.6709,-4.7516,-4.7498,-4.6691,-4.5902,-4.4635,-4.3002,-4.1682,-4.0799,-4.0212,-3.9148,-3.9019,-3.946,-3.8927,-3.7881,0.0,0.0,0.0,0.0,0.0,0.0,0.0,0.0,-3.5389,-3.5973,-3.6505,-3.7422,-3.8178,-3.747,-3.7201,-3.7168,-3.735,-3.8223,-3.9143,-3.9371,-4.0565,-4.2088,-4.3454,-4.4198,-4.5089,-4.6802,-4.6955,-4.6786,-4.6786,-4.7208,-4.7885,0.0,-5.0473,-5.1775,-5.2232,0.0,0.0,0.0,0.0,0.0,0.0,0.0,0.0,0.0,0.0,0.0,0.0,-5.2909,-5.2773,0.0,-5.2773,-5.2773,-5.2773,-5.2773,-5.2773,-5.2773,-5.2773,-5.3044,-5.3501,-5.3247,-5.2824,-5.2283,-5.2063,-5.1674,-5.1185,-5.1185,-5.1505,-5.2012,-5.257,-5.2773,-5.2723,-5.2164,-5.23,-5.2706,0.0,0.0,0.0,0.0,0.0,0.0,0.0,0.0,0.0,0.0,0.0,0.0,0.0,0.0,0.0,0.0,0.0,0.0,-3.5004,-3.5807,-3.7019,-3.8615,-3.8689,-3.9808,-4.2213,-4.3057,-4.4268,-4.5902,-4.6691,-4.6654,-4.5865,-4.5076,-4.4673,-4.4544,-4.2159,-4.1095,-4.0985,-3.9386,-3.8707,-3.8707,-3.8707,-3.8212,-3.7419,0.0,0.0,0.0,0.0,0.0,0.0,0.0,-3.5004,-3.5298,-3.696,-3.7492,-3.7418,-3.6937,-3.7263,-3.7702,-3.7286,-3.7662,-3.8433,-3.9435,-4.0326,-4.1574,-4.4041,-4.4615,-4.5229,-4.7432,-4.7327,-4.6802,-4.6802,-4.6802,-4.7276,-4.8748,-4.961,-5.0608,0.0,0.0,0.0,0.0,0.0,0.0,0.0,0.0,0.0,0.0,0.0,0.0,0.0,-5.1606,0.0,0.0,-5.1185,-5.1185,-5.1185,-5.1185,-5.1185,-5.1185,-5.1185,-5.2012,-5.345,-5.2655,-5.2283,-5.2249,-5.1522,-5.12,-5.1168,-5.12,-5.12,-5.12,-5.1185,-5.1185,-5.1185,-5.12,-5.1185,-5.1185,0.0,0.0,0.0,0.0,0.0,0.0,0.0,0.0,0.0,0.0,0.0,0.0,0.0,0.0,0.0,0.0,0.0,0.0,-3.4968,-3.5243,-3.6105,-3.7786,-3.786,-3.845,-3.9735,-4.1111,-4.3149,-4.5902,-4.5571,-4.5278,-4.5039,-4.4232,-4.3259,-4.2141,-4.1425,-4.0799,-4.0194,-3.9148,-3.9038,-3.9478,-3.8927,-3.8212,-3.7419,0.0,0.0,0.0,0.0,0.0,0.0,0.0,0.0,0.0,-3.5573,-3.6945,-3.8025,-3.6429,-3.6265,-3.6435,-3.5705,-3.6362,-3.7487,-3.8577,-4.119,-4.3698,-4.4423,-4.4993,-4.6007,-4.8223,-4.8105,-4.7581,-4.7581,-4.7581,-4.7733,-4.8173,-4.9272,-5.0236,0.0,0.0,0.0,0.0,0.0,0.0,0.0,0.0,0.0,0.0,0.0,0.0,0.0,0.0,0.0,0.0,-5.1185,-5.1185,-5.1185,-5.1185,-5.1185,-5.1185,-5.1185,-5.1422,-5.1877,-5.1657,-5.1251,-5.0727,-5.0524,-5.0135,-4.9695,-5.0202,-5.0422,-5.0473,-5.1014,-5.1185,-5.115,-5.0625,-5.076,-5.115,0.0,0.0,0.0,0.0,0.0,0.0,0.0,0.0,0.0,0.0,-3.5346,-3.5354,0.0,0.0,0.0,0.0,0.0,0.0,0.0,-3.4509,-3.5275,-3.696,-3.7015,-3.7698,-3.9148,-4.0435,-4.2049,-4.3993,-4.3828,-4.3572,-4.326,-4.3094,-4.2671,-4.2047,-4.1735,-4.113,-4.0304,-3.9184,-3.8799,-3.8906,-3.8414,-3.7933,-3.7419,0.0,0.0,0.0,0.0,0.0,0.0,0.0,0.0,0.0,-3.4912,-3.5912,-3.6825,-3.5974,-3.6167,-3.6636,-3.6496,-3.7499,-3.8841,-4.0144,-4.2303,-4.435,-4.5275,-4.6041,-4.7056,-4.8663,-4.8426,-4.7973,-4.8261,-4.8091,0.0,-4.8308,-4.9086,-4.9763,0.0,0.0,0.0,0.0,0.0,0.0,0.0,0.0,0.0,0.0,0.0,0.0,0.0,0.0,0.0,0.0,-5.0338,-5.0338,-5.0338,-5.0338,-5.0338,-5.0338,-5.0338,-5.0338,-5.0355,-5.0642,-5.0524,-5.0067,-4.9779,-4.9407,-4.9035,-4.9475,-4.9661,-4.9712,-5.0152,-5.0338,-5.0287,-4.983,-4.9949,-5.027,0.0,0.0,0.0,0.0,0.0,0.0,0.0,0.0,0.0,0.0,-3.5105,-3.499,0.0,0.0,0.0,0.0,0.0,0.0,0.0,-3.3807,-3.4541,-3.6229,-3.6505,-3.7679,-3.9955,-4.0653,-4.0985,-4.0985,-4.1717,-4.1754,-4.1113,-4.1864,-4.258,-4.324,-4.2433,-4.1644,-4.0783,-3.9166,-3.8065,-3.7382,-3.7382,-3.7382,-3.729,-3.6395,0.0,0.0,0.0,0.0,0.0,0.0,0.0,0.0,-3.4747,-3.4765,-3.4657,-3.5474,-3.6501,-3.7599,-3.8462,-3.9817,-4.1373,-4.2902,-4.3443,-4.4181,-4.6312,-4.7327,-4.8037,-4.8832,-4.8477,-4.8193,-4.8883,-4.846,-4.824,-4.89,-4.9001,0.0,0.0,0.0,0.0,0.0,0.0,0.0,0.0,0.0,0.0,0.0,0.0,0.0,0.0,0.0,0.0,-4.9001,-4.8934,-4.89,-4.89,-4.8832,-4.8798,0.0,-4.8798,-4.8798,-4.8832,-4.9627,-4.9999,-4.9949,-4.9289,-4.9001,-4.9001,-4.9001,-4.9001,-4.9001,-4.9001,-4.9001,-4.9001,-4.9001,-4.9001,-4.9001,0.0,0.0,0.0,0.0,0.0,0.0,0.0,0.0,0.0,0.0,0.0,0.0,0.0,0.0,0.0,0.0,0.0,0.0,0.0,-3.3807,-3.4541,-3.6229,-3.812,-3.9662,-4.0836,-4.0396,-4.0157,-4.0157,-4.0322,-4.0653,-4.1095,-4.1279,-4.1444,-4.1572,-4.0781,-3.9974,-3.9111,-3.7496,-3.6707,-3.656,-3.656,-3.656,-3.6395,-3.4908,-3.4601,0.0,0.0,0.0,0.0,0.0,0.0,0.0,-3.4747,-3.5162,-3.5175,-3.4389,-3.5389,-3.6669,-3.6412,-3.7872,-3.9969,-4.2016,-4.3876,-4.55,-4.6549,-4.6921,-4.7411,-4.8731,-4.8883,-4.8815,-4.8968,-4.8883,-4.8832,-4.8984,0.0,0.0,0.0,0.0,0.0,0.0,0.0,0.0,0.0,0.0,0.0,0.0,0.0,0.0,0.0,0.0,0.0,-4.9001,-4.8443,-4.8125,-4.8125,-4.7564,-4.7259,0.0,-4.7259,-4.7259,-4.731,-4.8646,-4.9238,-4.9221,-4.9069,-4.9001,-4.9001,-4.9001,-4.9001,-4.9001,-4.9001,-4.9001,-4.9001,-4.9001,-4.9001,-4.9001,0.0,0.0,0.0,0.0,0.0,0.0,0.0,0.0,0.0,0.0,0.0,0.0,0.0,0.0,0.0,0.0,0.0,0.0,0.0,-3.3587,-3.4541,-3.6229,-3.8597,-3.9735,-3.9386,-3.935,-3.9129,-3.8759,-3.8374,-3.8781,-3.9958,-4.0728,-4.1095,-4.1077,-4.0671,-3.9808,-3.8597,-3.6982,-3.6064,-3.5665,-3.5665,-3.5459,-3.5,-3.4137,-3.3587,-3.3183,-3.2339,0.0,0.0,0.0,0.0,0.0,0.0,0.0,-3.4023,-3.3512,-3.4395,-3.5724,-3.6491,-3.8345,-4.0595,-4.2855,-4.4282,-4.5365,-4.6109,-4.6261,-4.6583,-4.7716,-4.824,-4.8477,-4.8477,-4.8765,-4.9001,0.0,0.0,0.0,0.0,0.0,0.0,0.0,0.0,0.0,0.0,0.0,0.0,0.0,0.0,0.0,0.0,-4.8139,-4.7953,-4.7953,-4.7581,-4.7378,-4.7378,-4.6989,-4.6786,-4.6786,-4.6786,-4.6786,-4.6819,-4.7597,-4.7953,-4.7953,-4.7953,-4.7953,-4.797,-4.8342,-4.8477,-4.8528,-4.8866,-4.9001,-4.9001,-4.9001,-4.9001,-4.9001,0.0,0.0,0.0,0.0,0.0,0.0,0.0,0.0,0.0,0.0,0.0,0.0,0.0,0.0,0.0,0.0,0.0,0.0,0.0,-3.3275,-3.4541,-3.6229,-3.834,-3.8943,-3.7731,-3.8212,-3.8175,-3.7492,-3.6703,-3.7184,-3.8946,-4.0286,-4.0967,-4.1095,-4.0948,-4.001,-3.8377,-3.6615,-3.5367,-3.4582,-3.4435,-3.3977,-3.3366,-3.322,-3.243,-3.1378,-3.125,-3.1715,-3.2399,-3.2546,0.0,0.0,0.0,0.0,-3.2035,-3.2332,-3.3137,-3.437,-3.6383,-3.8937,-4.1559,-4.3826,-4.4513,-4.4767,-4.5365,-4.5517,-4.5686,-4.6278,-4.7107,-4.7733,-4.7733,-4.8325,-4.8815,0.0,0.0,0.0,0.0,0.0,0.0,0.0,0.0,0.0,0.0,0.0,0.0,0.0,0.0,0.0,-4.7733,-4.7124,-4.6786,-4.6786,-4.6667,-4.6599,-4.6599,-4.6481,-4.6413,-4.6413,-4.6413,-4.6413,-4.6413,-4.6413,-4.6549,-4.6786,-4.6786,-4.6786,-4.6836,-4.7462,-4.7733,-4.7784,-4.8392,-4.8714,-4.8815,-4.8815,-4.89,-4.9001,0.0,0.0,0.0,0.0,0.0,0.0,0.0,0.0,0.0,0.0,-3.4401,-3.3814,-3.2759,-3.2608,0.0,0.0,0.0,0.0,-3.1549,0.0,0.0,-3.6229,-3.729,-3.8062,-3.8524,-3.797,-3.7603,-3.7492,-3.6703,-3.7477,-3.9735,-3.9955,-4.0432,-4.1058,-4.0377,-3.9182,-3.7511,-3.5128,-3.366,-3.2858,-3.2155,-3.1819,-3.1635,-3.0944,-3.098,-3.1323,-3.0613,-3.087,-3.1659,-3.2362,-3.2027,0.0,0.0,0.0,-3.0002,-3.0039,-3.0807,-3.185,-3.2801,-3.6569,-4.0772,-4.3031,-4.4079,-4.4632,-4.4733,-4.475,-4.4784,-4.4886,-4.5974,-4.6938,-4.6938,-4.7564,0.0,0.0,0.0,0.0,0.0,0.0,0.0,0.0,0.0,0.0,0.0,0.0,0.0,0.0,0.0,0.0,-4.6938,-4.6836,-4.6786,-4.6786,-4.6177,-4.5855,-4.5855,-4.5196,-4.4902,-4.4902,-4.4902,-4.4902,-4.4902,-4.4902,-4.5585,-4.6786,-4.6786,-4.6786,-4.6802,-4.6904,-4.6938,-4.6955,-4.7056,-4.7479,-4.8041,-4.8041,-4.846,-4.9001,0.0,0.0,0.0,0.0,0.0,0.0,0.0,0.0,0.0,0.0,0.0,-3.3443,-3.2076,-3.1935,0.0,0.0,0.0,0.0,-3.1378,-3.2485,0.0,-3.4853,-3.5679,-3.6046,-3.5954,-3.5605,-3.5436,-3.5436,-3.4169,-3.5954,-4.0561,-3.9643,-4.0616,-4.304,-4.1332,-3.9937,-3.8631,-3.5238,-3.3348,-3.2528,-3.1715,-3.1947,-3.2559,-3.0852,-3.098,-3.1861,-3.0143,-3.0044,-3.0779,-3.1146,-3.1094,-3.0928,-3.1019,0.0,0.0,0.0,-2.9529,-3.119,-3.4053,-3.6789,-3.9614,-4.2632,-4.3673,-4.4045,-4.4513,-4.4615,-4.4615,-4.4615,-4.5122,-4.5669,-4.6109,0.0,0.0,0.0,0.0,0.0,0.0,0.0,0.0,0.0,0.0,0.0,0.0,0.0,0.0,0.0,0.0,-4.6177,-4.6177,-4.5771,-4.5579,-4.5579,-4.5246,-4.5077,-4.5077,-4.4767,-4.4615,-4.4615,-4.4615,-4.4615,-4.4615,-4.4615,-4.4953,-4.5579,-4.5579,-4.5579,-4.5613,-4.6007,-4.6177,-4.6227,-4.6633,-4.7005,-4.7293,-4.7293,-4.7496,-4.7834,0.0,0.0,0.0,0.0,0.0,0.0,0.0,0.0,0.0,0.0,0.0,-3.2963,-3.1562,0.0,0.0,0.0,0.0,0.0,-3.1035,0.0,0.0,0.0,0.0,-3.4105,-3.3513,-3.3495,-3.3385,-3.3183,-3.2083,-3.4733,-4.0765,-3.9658,-4.1452,-4.5516,-4.3076,-4.1111,-3.9368,-3.6119,-3.4284,-3.3445,-3.2412,-3.2724,-3.366,-3.2504,-3.2669,-3.3243,-3.1023,-3.0473,-3.076,-3.0338,-3.0155,-3.0108,-2.9968,-2.943,0.0,0.0,0.0,-3.0091,-3.4015,-3.591,-3.7601,-4.111,-4.2564,-4.3335,-4.4113,-4.4462,-4.4615,0.0,-4.4615,-4.4784,0.0,0.0,0.0,0.0,0.0,0.0,0.0,0.0,0.0,0.0,0.0,0.0,0.0,0.0,0.0,0.0,0.0,-4.5415,-4.5415,-4.4919,-4.4615,-4.4615,-4.4615,-4.4615,-4.4615,-4.4615,-4.4615,-4.4615,-4.4615,-4.4615,-4.4615,-4.4615,-4.4615,-4.4615,-4.4615,-4.4615,-4.4649,-4.5179,-4.5415,-4.5483,-4.6024,-4.6346,-4.6515,-4.6515,-4.6633,-4.687,0.0,0.0,0.0,0.0,0.0,0.0,0.0,0.0,0.0,0.0,0.0,0.0,-3.1488,-3.1397,-3.0742,-2.9133,-2.9042,0.0,0.0,0.0,0.0,0.0,0.0,0.0,-3.2656,-3.2656,-3.2302,-3.1525,-3.1828,-3.4709,-3.9974,-4.0195,-4.3105,-4.8012,-4.559,-4.2361,-3.8707,-3.7731,-3.685,-3.5973,-3.4321,-3.3733,-3.4045,-3.6281,-3.6703,-3.5881,-3.4174,-3.3091,-3.2234,-3.0705,-2.9238,-2.8188,-2.8929,-2.8089,-2.6826,0.0,0.0,0.0,-2.9803,-3.2019,-3.437,-3.7432,-4.029,-4.254,-4.3274,-4.4045,-4.4615,-4.4615,-4.4615,-4.4615,0.0,0.0,0.0,0.0,0.0,0.0,0.0,0.0,0.0,0.0,0.0,0.0,0.0,0.0,0.0,0.0,0.0,-4.4666,-4.4666,-4.4632,-4.4615,-4.4615,-4.4615,-4.4615,-4.4615,-4.4615,-4.4615,-4.4615,-4.4615,-4.4615,-4.4615,-4.4615,-4.4615,-4.4615,-4.4615,-4.4615,-4.4615,-4.4649,-4.4666,-4.4666,-4.4699,-4.5128,-4.5771,-4.5771,-4.6194,-4.6802,0.0,0.0,0.0,0.0,0.0,0.0,0.0,0.0,0.0,0.0,0.0,0.0,0.0,-3.0632,-3.0191,-2.9097,-2.9005,0.0,0.0,0.0,0.0,0.0,0.0,0.0,-3.106,-3.1568,-3.1439,-3.0632,-3.0258,-3.2647,-3.7588,-3.7708,-3.9607,-4.2928,-4.3626,-4.2837,-4.0818,-3.7955,-3.6248,-3.5408,-3.4802,-3.5518,-3.6927,-3.678,-3.7496,-3.8322,-3.6174,-3.4523,-3.3275,-3.2706,-3.0937,-2.9012,-2.9073,-2.8172,-2.7035,-2.6775,-2.7046,-2.779,-2.9599,-3.1021,-3.2696,-3.5667,-3.7973,-3.9783,-4.1001,-4.2591,-4.3826,-4.3826,-4.4231,0.0,0.0,0.0,0.0,0.0,0.0,0.0,0.0,0.0,0.0,0.0,0.0,0.0,0.0,0.0,0.0,0.0,0.0,0.0,-4.4615,-4.4615,-4.4615,-4.4615,-4.4615,-4.4615,-4.4615,-4.4615,-4.4615,-4.4615,-4.4615,-4.4615,-4.4615,-4.4615,-4.4615,-4.4615,-4.4615,-4.4615,-4.4615,-4.4615,-4.4615,-4.4615,-4.4615,-4.4767,-4.4976,-4.4976,-4.5173,-4.5478,0.0,0.0,0.0,0.0,0.0,0.0,0.0,0.0,-3.1844,-3.0867,0.0,0.0,0.0,0.0,-3.0564,-2.95,-2.9152,-2.9005,-2.9005,-2.9005,0.0,0.0,0.0,0.0,-3.0228,-3.0993,-3.087,-2.9794,-2.9399,-3.1349,-3.5459,-3.5586,-3.7174,-3.9918,-4.0726,-4.1387,-4.1717,-3.9056,-3.7422,-3.6637,-3.6637,-3.7628,-3.9129,-3.9423,-4.0175,-4.0907,-3.9276,-3.7477,-3.5771,-3.522,-3.3163,-3.0734,-3.0107,-2.8623,-2.7035,-2.6791,-2.7046,-2.7638,-2.8687,-2.9685,-3.1157,-3.4112,-3.5825,-3.7347,-3.958,-4.1238,-4.2439,-4.2929,-4.3656,0.0,0.0,0.0,0.0,0.0,0.0,0.0,0.0,0.0,0.0,0.0,0.0,0.0,0.0,0.0,0.0,0.0,0.0,0.0,-4.4615,-4.4615,-4.4615,-4.4615,-4.4615,-4.4615,-4.4615,-4.4615,-4.4615,-4.4615,-4.4615,-4.4615,-4.4615,-4.4615,-4.4615,-4.4615,-4.4615,-4.4615,-4.4615,-4.4615,-4.4615,-4.4615,-4.4615,-4.4615,-4.4615,-4.4615,-4.4615,-4.4682,0.0,0.0,0.0,0.0,0.0,0.0,0.0,0.0,-3.1513,-3.1768,0.0,0.0,0.0,0.0,0.0,-3.0411,-2.95,-2.9042,-2.9042,-2.9005,-2.9354,-3.0136,0.0,0.0,-3.0173,-3.0944,-3.0595,-2.9005,-2.9393,-3.098,-3.3702,-3.4116,-3.6251,-3.9606,-3.7294,-3.801,-4.0912,-4.0893,-4.0487,-3.9845,-3.9808,-3.9879,-4.043,-4.4323,-4.4856,-4.357,-4.357,-4.2046,-3.9753,-3.8172,-3.5765,-3.3189,-3.188,-2.9285,-2.6725,-2.6725,-2.6725,-2.6776,0.0,0.0,0.0,-3.2527,-3.3812,-3.5334,-3.9014,0.0,-4.0367,-4.188,-4.2777,0.0,0.0,0.0,0.0,0.0,0.0,0.0,0.0,0.0,0.0,0.0,0.0,0.0,0.0,0.0,0.0,0.0,0.0,-4.4615,-4.4615,-4.4615,-4.4615,-4.4615,-4.4615,-4.4615,-4.4615,-4.4615,-4.4615,-4.4615,-4.4615,-4.4615,-4.4615,-4.4615,-4.4615,-4.4615,-4.4615,-4.4615,-4.4615,-4.4615,-4.4615,-4.4615,-4.4615,-4.4615,-4.4615,-4.4615,-4.4615,-4.4615,0.0,0.0,0.0,0.0,0.0,-3.3728,-3.2649,-3.236,-3.2089,0.0,0.0,0.0,-3.1807,-3.1733,-3.1788,-3.1922,-3.0668,-2.9879,-2.9879,-2.9317,-2.9097,-2.9317,-3.0099,-3.0173,-2.9354,-3.0118,-3.0026,-2.9005,-2.9113,-2.9862,-3.1219,-3.1905,-3.3401,-3.5477,-3.5389,-3.5848,-3.6655,-3.6083,-3.7055,-3.8927,-3.7753,-3.9402,-4.256,-4.3094,-4.4103,-4.5241,-4.5241,-4.4048,-4.2341,-4.1313,-3.8918,-3.5677,-3.1834,-2.9201,-2.7384,-2.686,-2.7503,-2.813,-2.6996,0.0,0.0,0.0,0.0,0.0,0.0,0.0,-3.6772,-3.9377,0.0,0.0,0.0,0.0,0.0,0.0,0.0,0.0,0.0,0.0,0.0,0.0,0.0,0.0,0.0,0.0,0.0,0.0,-4.4615,-4.4615,-4.4615,-4.4615,-4.4615,-4.4615,-4.4615,-4.4615,-4.4615,-4.4615,-4.4615,-4.4615,-4.4615,-4.4615,-4.4615,-4.4615,-4.4615,-4.4615,-4.4615,-4.4615,-4.4615,-4.4615,-4.4615,-4.4615,-4.4615,-4.4615,-4.4615,-4.4615,-4.4615,-4.4615,0.0,0.0,-3.4955,-3.4722,-3.4593,-3.4408,-3.4035,-3.3468,-3.2978,0.0,0.0,0.0,-3.2438,-3.2706,-3.2816,-3.2619,-3.1115,-3.021,-3.021,-2.9445,-2.9005,-2.9005,-2.9757,-2.9989,-2.95,-2.9971,-2.9971,-2.95,-2.9152,-2.9244,-2.9702,-3.0173,-3.1072,-3.2302,-3.2436,-3.2876,-3.3408,-3.2271,-3.3867,-3.7224,-3.7991,-3.9992,-4.2635,-4.3846,-4.4966,-4.5993,-4.6654,-4.5865,-4.447,-4.436,-4.1478,-3.718,-3.2702,-3.0333,-2.8958,-2.7571,-2.8247,-2.9194,-2.7994,-2.8316,-2.9044,-2.9178,0.0,0.0,-3.2273,-3.319,0.0,0.0,0.0,0.0,0.0,0.0,0.0,0.0,0.0,0.0,0.0,0.0,0.0,0.0,0.0,0.0,0.0,0.0,0.0,-4.4615,-4.4615,-4.4615,-4.4615,-4.4615,-4.4462,-4.4096,-4.4429,-4.4293,-4.3667,-4.3944,-4.3927,-4.365,-4.3944,-4.4096,-4.4113,-4.4462,-4.4615,-4.4615,-4.4615,-4.4615,-4.4615,-4.4615,-4.4615,-4.4615,-4.4615,-4.4615,-4.4615,-4.4615,-4.4615,-4.4615,0.0,0.0,-3.4309,-3.5581,-3.5367,-3.5204,-3.5863,-3.4903,-3.4199,0.0,-3.3648,-3.3414,-3.4296,-3.4757,-3.4472,-3.3133,-3.1366,-3.0338,-3.0338,-2.95,-2.9005,-2.9005,-2.9684,-3.0081,-3.0081,-3.0081,-3.0081,-3.0081,-2.9354,-2.9005,-2.9005,-2.9005,-2.9372,-3.0044,-2.9317,-2.9787,-3.1048,-2.9794,-3.139,-3.5059,-3.8784,-4.071,-4.1756,-4.5333,-4.6489,-4.6342,-4.7792,-4.7388,-4.6232,-4.6672,-4.3303,-3.8236,-3.4333,-3.2422,-3.1203,-2.8856,-2.9261,-3.0294,-2.9467,-2.9297,-2.9619,-3.0683,-3.0093,0.0,-3.2239,-3.2341,-3.275,0.0,0.0,0.0,0.0,0.0,0.0,0.0,0.0,0.0,0.0,0.0,0.0,0.0,0.0,0.0,0.0,-4.4615,-4.4615,-4.4615,-4.453,-4.4479,-4.4479,-4.4395,-4.4012,-4.3318,-4.3961,-4.3701,-4.2303,-4.2963,-4.2963,-4.2303,-4.2963,-4.3274,-4.3318,-4.4012,-4.4395,-4.4479,-4.4479,-4.453,-4.4615,-4.4615,-4.4615,-4.4615,-4.4615,-4.4615,-4.4615,-4.4615,-4.4615,-4.4615,-3.4081,-3.4341,-3.4648,-3.5097,-3.5082,-3.528,-3.6094,-3.6163,-3.6161,-3.6224,-3.6025,-3.6452,-3.7907,-3.6228,-3.5151,-3.555,-3.2871,-3.1176,-3.1176,-2.9812,-2.9005,-2.9005,-2.9152,-2.9225,-2.9225,-2.9225,-2.9225,-2.9225,-2.9078,-2.9005,-2.9005,-2.9005,-2.9078,-2.9225,-2.9078,-2.917,-2.9537,-3.0522,-3.177,-3.3188,-3.4651,-3.8358,-4.3112,-4.3901,-4.5718,-4.7884,-4.8196,-4.8104,-4.7572,-4.5755,-4.3324,-4.0365,-3.6613,-3.504,-3.4047,-3.1329,-3.1596,-3.2476,-3.1123,-3.121,-3.1295,-2.9805,-3.011,0.0,-2.9176,-2.9279,-3.0161,0.0,0.0,0.0,0.0,0.0,0.0,0.0,0.0,0.0,0.0,0.0,0.0,0.0,0.0,0.0,0.0,-4.4615,-4.4615,-4.4615,-4.3995,-4.3639,-4.3639,-4.3064,-4.2675,-4.2523,-4.2658,-4.2591,-4.2286,-4.2439,-4.2439,-4.2286,-4.2439,-4.2506,-4.2523,-4.2675,-4.3064,-4.3639,-4.3639,-4.3995,-4.4615,-4.4615,-4.4615,-4.4615,-4.4615,-4.4615,-4.4615,-4.4615,-4.4615,-4.4615,-3.3765,-3.429,-3.5049,-3.6104,-3.6056,-3.6374,-3.7953,-3.7679,-3.7499,-3.8028,-3.832,-3.8279,-3.7757,-3.6822,-3.6101,-3.5697,-3.3421,-3.1825,-3.1433,-3.0265,-2.9427,-2.9023,-2.9005,-2.9189,-2.9592,-2.9207,-2.9207,-2.9592,-2.9207,-2.9005,-2.9005,-2.9005,-2.9207,-2.9574,-2.9189,-2.9225,-2.9629,-3.0026,-3.0907,-3.2284,-3.5532,-3.9038,-4.2525,-4.4525,-4.6305,-4.77,-4.77,-4.7443,-4.6728,-4.4323,-4.2468,-4.0607,-3.7146,-3.6077,-3.5583,-3.3053,-3.3355,-3.4163,-3.2713,-3.256,-3.2479,-3.1002,-3.093,0.0,0.0,-2.9228,-2.9636,-3.1833,-3.114,-3.0903,0.0,0.0,0.0,0.0,0.0,0.0,0.0,0.0,0.0,0.0,0.0,0.0,0.0,-4.3464,-4.3464,-4.3464,-4.3081,-4.2861,-4.2861,-4.2489,-4.2117,-4.1762,-4.21,-4.1931,-4.123,-4.1559,-4.1559,-4.1213,-4.1576,-4.1745,-4.1762,-4.2117,-4.2489,-4.2878,-4.3223,-4.3639,-4.4028,-4.4418,-4.4615,-4.4615,-4.4615,-4.4615,-4.4615,-4.4615,-4.4615,-4.4615,-3.3214,-3.3781,-3.4803,-3.6472,-3.6508,-3.6977,-3.8962,-3.8448,-3.8227,-3.9359,-4.0019,-3.9584,-3.7448,-3.7533,-3.7312,-3.627,-3.427,-3.2871,-3.2388,-3.1146,-3.0136,-2.9482,-2.917,-2.9372,-3.0173,-2.9409,-2.9317,-2.9971,-2.9317,-2.9005,-2.9005,-2.9005,-2.9354,-2.9941,-2.9445,-2.9592,-3.0173,-2.9666,-3.0577,-3.2774,-3.7529,-3.9827,-4.082,-4.4691,-4.6269,-4.6452,-4.6746,-4.6452,-4.5535,-4.3155,-4.185,-4.0604,-3.7348,-3.6807,-3.6922,-3.451,-3.4873,-3.5718,-3.4213,-3.3947,-3.3787,-3.259,-3.2173,-3.1816,0.0,0.0,0.0,-3.2121,-3.114,0.0,0.0,0.0,0.0,0.0,0.0,0.0,0.0,0.0,0.0,0.0,0.0,0.0,0.0,-4.1525,-4.1677,-4.2252,-4.1762,-4.1644,-4.2066,-4.1948,-4.1593,-4.1018,-4.1559,-4.1314,-4.0113,-4.0679,-4.0679,-4.0113,-4.0696,-4.0984,-4.1018,-4.1593,-4.1948,-4.2117,-4.2726,-4.3122,-4.3443,-4.4096,-4.4479,-4.4615,-4.4615,-4.4615,-4.4615,-4.4615,-4.4615,-4.4615,-3.2507,-3.2684,-3.2978,-3.3666,-3.4377,-3.5176,-3.6144,-3.6992,-3.8029,-3.9331,-4.0232,-4.0691,-4.0586,-3.9368,-3.9056,-4.0306,-3.6931,-3.5023,-3.5697,-3.2926,-3.1231,-3.114,-2.9769,-2.9372,-3.0173,-2.9409,-2.9042,-2.9133,-2.9042,-2.9005,-2.9005,-2.9005,-2.906,-2.9152,-2.9787,-3.0118,-3.0246,-3.0852,-3.2908,-3.5862,-3.7217,-3.7841,-3.8264,-4.1589,-4.3296,-4.4085,-4.5516,-4.5975,-4.5572,-4.3376,-4.2571,-4.189,-3.8497,-3.8365,-3.8922,-3.6152,-3.6428,-3.7313,-3.5769,-3.5876,-3.5746,-3.2991,-3.3715,-3.4061,-3.0125,0.0,-3.0666,-2.9704,0.0,0.0,0.0,0.0,0.0,0.0,0.0,0.0,0.0,0.0,0.0,0.0,0.0,0.0,0.0,0.0,-3.9478,-4.21,-3.9884,-3.9259,-4.1221,-4.0722,-4.0316,-4.0231,-4.0316,-4.0282,-4.0096,-4.018,-4.018,-4.0096,-4.018,-4.0231,-4.0231,-4.0316,-4.0722,-4.1339,-4.1407,-4.2175,-4.3392,-4.3494,-4.3961,-4.4615,-4.4615,-4.4615,-4.4615,-4.4615,-4.4615,-4.4615,-3.1884,-3.2407,-3.2953,-3.3696,-3.3954,-3.4584,-3.6096,-3.8251,-3.9837,-4.0222,-4.0835,-4.1385,-4.1765,-4.0359,-3.9863,-4.1003,-3.9095,-3.7404,-3.6376,-3.4541,-3.306,-3.2137,-3.0546,-2.9861,-3.0191,-2.9409,-2.9005,-2.9005,-2.9005,-2.9005,-2.9005,-2.9005,-2.95,-3.0411,-3.0742,-3.1403,-3.2284,-3.2155,-3.2889,-3.4266,-3.555,-3.6064,-3.6615,-4.1754,-4.3901,-4.4287,-4.4966,-4.4892,-4.4232,0.0,-4.1378,0.0,-3.9494,-3.8625,-3.7974,-3.7538,-3.7325,-3.7009,-3.5887,-3.618,-3.618,-3.3575,-3.3651,-3.3618,-3.0891,-3.0085,-3.011,0.0,0.0,0.0,0.0,0.0,0.0,0.0,-2.9719,0.0,0.0,0.0,0.0,0.0,0.0,0.0,0.0,0.0,0.0,0.0,0.0,-3.7567,-3.98,-3.9614,-3.9673,-4.0096,-4.0096,-4.0096,-4.0096,-4.0096,-4.0096,-4.0096,-4.0096,-4.0096,-4.0096,-4.0096,-4.0282,-4.0578,-4.1018,-4.1559,-4.2168,-4.2591,-4.3217,-4.391,-4.391,-4.4181,-4.4615,-4.4615,-4.4615,-4.4615,-3.1212,-3.1814,-3.241,-3.3045,-3.314,-3.3892,-3.6037,-3.8665,-4.0489,-4.0769,-4.1321,-4.2031,-4.2869,-4.1717,-4.1387,-4.2636,-4.1607,-4.0139,-3.8377,-3.6652,-3.5151,-3.399,-3.1751,-3.0632,-3.0852,-2.9849,-2.9225,-2.9005,-2.9005,-2.9005,-2.9005,-2.9005,-2.961,-3.076,-3.1421,-3.2375,-3.3476,-3.3555,-3.4009,-3.4706,-3.5866,-3.6729,-3.7793,-4.2067,-4.3993,-4.4378,-4.4378,-4.3993,-4.3277,-4.1729,-4.0727,0.0,-4.0052,-3.9042,-3.7949,-3.8282,-3.7907,-3.7075,-3.5921,0.0,0.0,0.0,0.0,0.0,0.0,0.0,0.0,0.0,0.0,0.0,0.0,0.0,-2.9247,-2.9027,0.0,-2.8654,0.0,0.0,0.0,0.0,0.0,0.0,0.0,0.0,0.0,0.0,0.0,0.0,-3.8244,-3.8403,-3.8734,-3.9462,-3.9503,-3.9605,-3.9808,-3.9808,-3.991,-4.0096,-4.0096,-4.0096,-4.0096,-4.0096,-4.0096,-4.013,-4.0663,-4.1018,-4.1238,-4.1779,-4.2439,-4.3115,-4.3115,-4.3589,-4.4282,-4.453,-4.4615,-4.4615,-3.0442,-3.0462,-3.05,-3.0519,-3.1205,-3.2609,-3.5154,-3.7,-3.8738,-4.0549,-4.1494,-4.267,-4.443,-4.3883,-4.4342,-4.6691,-4.4745,-4.3349,-4.3276,-3.9604,-3.7401,-3.7345,-3.3508,-3.1733,-3.2509,-3.098,-2.9776,-2.9005,-2.9005,-2.9005,-2.9005,-2.9005,-2.9023,-2.9189,-3.1518,-3.2583,-3.2784,-3.5165,-3.7533,-3.9662,-3.9717,-4.113,-4.3075,0.0,-4.2176,-4.3551,-4.3551,0.0,0.0,-4.1942,-4.1468,0.0,0.0,0.0,0.0,0.0,0.0,0.0,0.0,0.0,0.0,-3.3089,0.0,0.0,0.0,0.0,-3.1819,0.0,0.0,0.0,-3.1444,-3.0581,-2.9837,-2.9128,-2.8993,0.0,0.0,0.0,0.0,0.0,0.0,0.0,0.0,0.0,0.0,0.0,0.0,0.0,-3.6677,-3.688,-3.7195,-3.7956,-3.7973,-3.8311,-3.9022,-3.9039,-3.9402,-4.0096,-4.0096,-4.0096,-4.0096,-4.0096,-4.0096,-4.0096,-4.013,-4.0527,-4.1204,-4.1238,-4.1677,-4.2337,-4.2337,-4.2794,-4.3511,-4.4299,-4.4615,-4.4615,-3.0404,-3.0404,-3.0404,-3.0404,-3.0635,-3.1885,-3.5019,-3.7225,-3.9452,-4.2046,-4.2466,-4.3483,-4.6011,-4.5571,-4.5626,-4.6984,-4.6342,-4.5443,-4.436,-4.1534,-3.9882,-3.9882,-3.5973,-3.3903,-3.4179,-3.2601,-3.1133,-2.9787,-2.9787,-2.9519,-2.9005,-2.9005,-2.928,-2.9867,-3.1757,-3.3188,-3.4289,-3.5697,-3.7088,-3.841,-3.9475,-4.1348,-4.3441,0.0,0.0,-4.3515,-4.3515,-4.3515,0.0,-4.2974,-4.2214,-4.1577,-4.205,-4.0565,-3.8674,-3.8881,-3.7856,0.0,0.0,0.0,-3.6789,-3.3778,0.0,0.0,0.0,0.0,0.0,0.0,0.0,0.0,-3.1461,-3.0598,-3.0023,-2.977,-2.8873,-2.801,0.0,0.0,0.0,0.0,0.0,0.0,0.0,0.0,0.0,0.0,-3.1596,0.0,0.0,-3.574,-3.6366,-3.7168,-3.7652,-3.8024,-3.8278,-3.8278,-3.8396,-3.865,-3.914,-3.9385,-3.9402,-3.9893,-4.0096,-4.0096,-4.0096,-4.0248,-4.046,-4.046,-4.0899,-4.1576,-4.1576,-4.2016,-4.276,-4.3538,-4.413,-4.4615,-3.0462,-3.0404,-3.0404,-3.0404,-3.1154,-3.2692,-3.55,-3.8042,-4.052,-4.2882,-4.3474,-4.4517,-4.6856,-4.6636,-4.6654,-4.7461,-4.7516,-4.6709,-4.4819,-4.3242,-4.1994,-4.1132,-3.8307,-3.6472,-3.5885,-3.4596,-3.2834,-3.0632,-3.0632,-3.0081,-2.9005,-2.9005,-2.928,-2.9849,-3.1757,-3.3335,-3.4692,-3.6413,-3.7606,-3.8465,-3.979,-4.1423,0.0,0.0,-4.324,-4.3515,0.0,-4.3515,-4.3515,-4.3515,-4.2813,-4.2029,-4.2595,-4.0915,-3.873,-3.8843,-3.7665,-3.6217,-3.5735,-3.6326,0.0,-3.4032,-3.3609,0.0,-3.0666,0.0,-3.2019,0.0,0.0,0.0,0.0,-3.0954,-3.0108,-3.0108,-2.8804,-2.7705,0.0,-2.6996,0.0,0.0,0.0,-2.9211,0.0,0.0,-2.9279,-3.1007,-3.0262,0.0,0.0,0.0,-3.5182,-3.5966,-3.6705,-3.7229,-3.7499,-3.7499,-3.7635,-3.7922,-3.8379,-3.8616,-3.8616,-3.9089,-3.9469,-3.9723,-3.9723,-3.9859,-4.0096,-4.0096,-4.0383,-4.0798,-4.0798,-4.1255,-4.2033,-4.3047,-4.391,-4.4615,-3.0635,-3.0538,-3.0596,-3.0635,-3.2583,-3.4718,-3.65,-3.9201,-4.1578,-4.3057,-4.4408,-4.5731,-4.7003,-4.7168,-4.7461,-4.8233,-4.8306,-4.7333,-4.5021,-4.4801,-4.3737,-4.1444,-4.0487,-3.9292,-3.7713,-3.6813,-3.4793,-3.158,-3.147,-3.0595,-2.906,-2.9023,-2.9005,-2.9097,-3.1445,-3.2981,-3.4009,-3.7165,-3.9056,-3.9955,-4.0836,-4.1625,-4.2304,-4.2341,-4.2818,-4.3515,-4.3515,-4.3515,-4.3515,-4.3515,-4.316,-4.2605,-4.1794,-4.1127,-4.025,-3.8234,-3.7571,-3.721,-3.5948,-3.5616,-3.5312,-3.3858,0.0,0.0,0.0,0.0,-3.3863,0.0,0.0,0.0,0.0,-3.163,-3.0173,-3.0106,-2.8804,-2.7536,-2.6793,-2.6691,-2.6708,0.0,0.0,0.0,-2.8807,-2.8197,-2.8095,-2.8891,-2.8942,-2.9602,0.0,0.0,-3.3643,-3.4421,-3.5165,-3.5943,-3.6745,-3.6745,-3.7077,-3.7804,-3.7838,-3.7855,-3.7855,-3.7889,-3.8311,-3.8988,-3.8988,-3.9436,-4.0096,-4.0096,-4.0096,-4.0096,-4.0096,-4.0544,-4.139,-4.2851,-4.3876,-4.4547,-3.141,-3.2372,-3.343,-3.4077,-3.366,-3.4237,-3.7219,-3.8413,-4.0205,-4.3646,-4.504,-4.6304,-4.7829,-4.7975,-4.8067,-4.8288,-4.8306,-4.8049,-4.7425,-4.6269,-4.5314,-4.469,-4.2745,-4.1203,-4.0212,-3.8212,-3.6156,-3.4087,-3.2284,-3.087,-2.9879,-2.928,-2.9005,-2.906,-3.0271,-3.1935,-3.3899,-3.5334,-3.7477,-4.001,-4.1423,-4.2121,-4.2378,0.0,-4.3331,-4.3515,-4.3515,-4.3515,-4.3515,-4.3515,-4.341,-4.3139,-4.2352,-4.1088,-3.9658,-3.8543,-3.7207,-3.6043,-3.5678,-3.6045,-3.6248,-3.5278,-3.4776,-3.415,0.0,0.0,0.0,0.0,0.0,0.0,0.0,0.0,-3.1376,-3.0294,-2.8804,-2.7536,-2.6793,-2.6691,-2.6894,-2.7452,0.0,0.0,0.0,-2.7097,-2.73,-2.8043,-2.8094,0.0,0.0,0.0,0.0,-3.3643,-3.4404,-3.5148,-3.591,-3.591,-3.6011,-3.6191,-3.6789,-3.7083,-3.7117,-3.7652,-3.8311,-3.8988,-3.8988,-3.9436,-4.0096,-4.0096,-4.0096,-4.0096,-4.0096,-4.0544,-4.139,-4.2851,-4.3511,-4.3709,-3.2795,-3.4449,-3.6026,-3.6507,-3.6103,-3.6469,-3.8738,-3.9535,-4.0841,-4.3546,-4.5087,-4.6232,-4.715,-4.7884,-4.8306,-4.8306,-4.8306,-4.8012,-4.7297,-4.7058,-4.6324,-4.4911,-4.4213,-4.3167,-4.1645,-3.9955,-3.7918,-3.5555,-3.3476,-3.1678,-3.0173,-2.9372,-2.9005,-2.9042,-2.9831,-3.1347,-3.3403,-3.5293,-3.7165,-3.8961,-4.0212,-4.0946,0.0,-4.2139,-4.2671,-4.2983,-4.2983,-4.3185,-4.3515,-4.3515,-4.3101,-4.2449,-4.1665,-4.0328,-3.8894,-3.8114,-3.7136,-3.6249,-3.6011,-3.6288,-3.6461,-3.5768,-3.5554,-3.5216,-3.4134,-3.4455,-3.4658,0.0,0.0,0.0,0.0,0.0,0.0,-2.9379,-2.8365,-2.7536,-2.6793,-2.6691,-2.6843,-2.7283,-2.6945,0.0,0.0,0.0,-2.686,-2.73,0.0,0.0,0.0,0.0,0.0,-3.2408,-3.3778,-3.4692,-3.5131,-3.543,-3.56,-3.56,-3.6062,-3.6282,-3.6282,-3.6721,-3.7313,-3.8065,-3.8379,-3.8937,-3.9656,-3.9977,-4.0096,-4.0096,-4.0096,-4.0367,-4.0849,-4.2016,-4.2627,-4.2929,-3.4513,-3.6584,-3.8296,-3.818,-3.8969,-3.9938,-4.0862,-4.1667,-4.2555,-4.3648,-4.5196,-4.6214,-4.6214,-4.7462,-4.8306,-4.8306,-4.8306,-4.7719,-4.6305,-4.7517,-4.6966,-4.3938,-4.5149,-4.4819,-4.2506,-4.146,-3.9478,-3.645,-3.4578,-3.2467,-3.0173,-2.9372,-2.9005,-2.9023,-2.9721,-3.1054,-3.2949,-3.6042,-3.7456,-3.7731,-3.8524,-3.935,-4.012,-4.082,-4.159,-4.2304,-4.2304,-4.2818,-4.3478,-4.3259,-4.2448,-4.1378,-4.051,-3.9407,-3.8277,-3.7497,-3.7248,-3.7114,-3.6623,-3.6498,-3.6374,-3.5832,-3.6226,-3.6378,-3.4967,-3.5148,-3.5414,-3.4776,-3.4134,-3.4066,0.0,0.0,-3.0632,-2.8449,-2.8027,-2.7722,-2.708,-2.6911,-2.6877,-2.6996,0.0,0.0,0.0,0.0,0.0,0.0,0.0,0.0,0.0,0.0,0.0,-3.119,-3.3237,0.0,-3.4489,0.0,-3.56,-3.56,-3.56,-3.56,-3.56,-3.56,-3.6045,-3.6846,-3.7584,-3.8328,-3.9056,-3.9808,-4.0096,-4.0096,-4.0096,-4.0096,-4.0197,-4.0933,-4.1498,-4.2008,-3.6142,-3.8315,-3.9861,-3.9188,-4.0335,-4.1873,-4.3393,-4.3262,-4.3796,-4.6053,-4.7239,-4.7884,-4.7884,-4.8141,-4.8306,-4.8306,-4.8306,-4.8196,-4.7902,-4.8141,-4.7462,-4.5553,-4.5755,-4.5076,-4.3331,-4.1203,-3.9166,-3.729,-3.4284,-3.1904,-3.0173,-2.9372,-2.9005,-2.9005,-2.9152,-3.084,-3.3715,-3.5679,0.0,-3.856,-3.9368,-4.0175,-4.0912,-4.104,-4.159,-4.2304,-4.2304,-4.2818,-4.3313,-4.1974,-4.1797,-4.1893,-4.0429,-3.9507,-3.8798,-3.8006,-3.7506,-3.7173,-3.7095,-3.7076,-3.6941,-3.6395,-3.637,-3.6277,-3.5559,-3.5498,-3.5566,-3.543,-3.5295,-3.5092,-3.4759,0.0,0.0,0.0,0.0,-2.8756,-2.862,-2.8027,-2.7841,-2.8519,-2.801,-2.7604,0.0,0.0,0.0,0.0,0.0,0.0,0.0,0.0,0.0,0.0,0.0,0.0,0.0,0.0,-3.56,-3.56,-3.56,-3.56,-3.56,-3.56,-3.6045,-3.6846,-3.7584,-3.8328,-3.9056,-3.9808,-4.0096,-4.0096,-4.0096,-4.0096,-4.0197,-4.0933,-4.0829,-4.0385,-3.9269,-4.07,-4.1854,-4.1893,-4.2566,0.0,0.0,-4.553,-4.5666,-4.6278,-4.6946,-4.7294,-4.7077,-4.781,-4.8306,-4.8306,-4.8306,-4.8306,-4.8306,-4.7901,-4.7168,-4.5957,-4.5498,-4.4727,-4.3533,-4.1534,-3.9735,-3.812,-3.4835,-3.2394,-3.0797,-2.9574,-2.9005,-2.9042,-2.9879,-3.1347,0.0,0.0,0.0,-3.8175,-3.9405,-4.012,-4.0524,-4.093,-4.1334,-4.168,-4.168,-4.2194,-4.2763,-4.1992,-4.1699,-4.1479,-4.0286,-3.9443,-3.8826,-3.8443,-3.815,-3.793,-3.7649,-3.7378,-3.7058,-3.6539,-3.6203,-3.592,-3.565,-3.56,-3.56,-3.56,-3.56,-3.5363,-3.4641,-3.3609,0.0,0.0,0.0,0.0,0.0,-2.8907,-2.8416,-2.8383,-2.8043,-2.7655,0.0,0.0,0.0,0.0,0.0,0.0,0.0,0.0,0.0,0.0,0.0,0.0,0.0,0.0,0.0,-3.56,-3.56,-3.56,-3.56,-3.56,-3.5802,-3.6248,-3.7415,-3.8108,-3.8514,-3.9656,-4.0096,-4.0096,-4.0096,-4.0096,-4.0146,-4.0519,-4.0598,-4.0606,-4.2335,-4.3028,-4.3835,-4.447,-4.472,-4.5316,-4.6692,-4.7468,-4.7552,-4.6562,-4.6776,-4.6899,-4.656,-4.7591,-4.8306,-4.8306,-4.8141,-4.8049,-4.8049,-4.7278,-4.6489,-4.5681,-4.5039,-4.4323,-4.3533,-4.2084,-4.0471,-3.8707,-3.5771,-3.333,0.0,-2.9934,-2.9262,0.0,0.0,0.0,0.0,0.0,-3.6853,-3.7878,-3.9129,-3.9753,-3.9937,-4.0414,-4.0691,-4.0838,-4.0838,-4.1258,-4.1791,-4.1791,-4.1479,-4.093,-3.9955,-3.9203,-3.8707,-3.8707,-3.8707,-3.8578,-3.8048,-3.7632,-3.7192,-3.656,-3.6075,-3.5739,-3.5622,-3.56,-3.56,-3.56,-3.56,-3.5363,-3.4641,-3.415,0.0,0.0,0.0,0.0,0.0,-2.9465,-2.8773,-2.8128,-2.7908,-2.7503,-2.6776,0.0,0.0,0.0,0.0,0.0,-2.6691,-2.7401,0.0,0.0,0.0,-3.1833,-3.3152,0.0,-3.4878,0.0,-3.56,-3.56,-3.56,-3.56,-3.56,-3.5667,-3.7077,-3.7838,-3.8244,-3.9571,-4.0096,-4.0096,-4.0096,-4.0096,-4.0096,-4.0096,-4.0485,-4.0957,-4.4066,-4.4759,-4.5383,0.0,0.0,-4.6712,-4.6885,-4.8221,-4.9044,-4.8574,-4.86,-4.8673,-4.8623,-4.8421,-4.8306,-4.8306,-4.7626,-4.7204,-4.7204,-4.6471,-4.5645,-4.4856,-4.4745,-4.4323,-4.3533,-4.2635,-4.1038,0.0,0.0,-3.4468,0.0,-3.0503,-3.0099,0.0,0.0,0.0,0.0,-3.5862,-3.7184,-3.8597,-3.8744,-3.9239,-3.9827,-3.9166,-3.9386,-4.001,-4.001,-4.0047,-4.012,-4.012,-4.0561,-4.082,-3.9313,-3.8762,-3.8707,-3.8707,-3.8707,-3.8578,-3.8048,-3.7859,-3.7596,-3.6643,-3.6354,-3.6203,-3.5717,-3.56,-3.56,-3.56,-3.56,-3.5363,-3.4641,-3.4996,-3.4484,0.0,0.0,0.0,0.0,0.0,-2.8976,-2.8908,-2.8247,-2.7503,0.0,0.0,0.0,0.0,0.0,0.0,-2.6691,-2.7401,0.0,-2.7908,0.0,-3.1599,-3.2395,-3.3795,0.0,-3.56,-3.56,-3.56,-3.56,-3.56,-3.56,-3.565,-3.6518,-3.7675,-3.8954,-3.9774,-4.0096,-4.0096,-4.0096,-4.0096,-4.0096,-4.0096,-4.0146,-4.0189,0.0,0.0,0.0,0.0,0.0,0.0,0.0,-4.8625,-4.9144,-4.8478,-4.9106,-4.9445,-4.8945,-4.8761,-4.855,-4.8325,-4.7553,-4.7094,-4.7094,-4.5883,-4.5039,-4.4727,-4.425,-4.3828,-4.3515,-4.2708,-4.135,0.0,0.0,0.0,0.0,0.0,0.0,0.0,0.0,-3.4692,-3.5881,-3.7184,-3.8395,-3.9496,-4.0469,-4.0763,-4.0598,-4.0251,-4.0325,-4.0616,-4.0616,-4.0928,-4.1332,-4.1332,-4.124,-4.082,-3.9221,-3.9038,-3.9331,-3.8836,-3.8707,-3.8643,-3.8449,-3.815,-3.7807,-3.7397,-3.7097,-3.6744,-3.6203,-3.6075,-3.6006,-3.5667,-3.56,-3.5498,-3.5216,-3.467,-3.4049,0.0,0.0,0.0,0.0,0.0,-2.9499,-2.9044,-2.8298,-2.7503,-2.6776,0.0,0.0,0.0,0.0,0.0,0.0,0.0,0.0,-2.779,0.0,-3.0448,-3.1633,-3.3102,-3.4218,-3.4945,-3.538,-3.56,-3.56,-3.56,-3.5853,-3.6332,-3.666,-3.7642,-3.9005,-3.9334,-3.9706,-4.0096,-4.0096,-4.0096,-4.0096,-4.0096,-4.0096,-4.0096,-4.7586,0.0,-4.8086,0.0,-4.8586,-4.774,-4.8048,-4.8836,-4.9086,-4.8221,-4.9358,-5.0031,-4.9341,-4.9043,-4.8796,-4.8495,-4.7408,-4.6746,-4.6746,-4.5241,-4.436,-4.436,-4.3791,0.0,-4.3515,-4.2928,-4.1974,-4.0598,-3.8652,0.0,0.0,0.0,0.0,0.0,-3.561,-3.6417,-3.7092,-3.8469,-3.9515,-4.0341,-4.1497,-4.1625,-4.1095,-4.1095,-4.1095,-4.1095,-4.1095,-4.1462,-4.1956,-4.1956,-4.1735,-4.1205,-3.9845,-3.9625,-3.979,-3.9221,-3.8891,-3.8676,-3.8496,-3.8183,-3.7877,-3.772,-3.7451,-3.7097,-3.6724,-3.6641,-3.6481,-3.5963,-3.5662,-3.5465,-3.5306,-3.4252,-3.344,-3.3508,0.0,0.0,0.0,-3.0565,0.0,-2.9061,-2.8095,-2.7283,-2.6742,-2.6691,0.0,0.0,0.0,0.0,0.0,0.0,0.0,0.0,0.0,0.0,0.0,-3.2662,-3.3778,-3.4506,-3.5245,-3.56,-3.56,-3.56,-3.591,-3.6451,-3.6711,-3.7405,-3.8379,-3.8802,-3.9292,-3.9808,-4.0028,-4.0096,-4.0096,-4.0096,-4.0096,-4.0096,-4.9202,-4.9375,-4.9644,-5.0539,-4.9952,-4.9086,-4.824,-4.8836,-4.9086,-4.8221,-4.9606,-5.0544,-5.0135,-4.9386,-4.8897,-4.8897,-4.7073,-4.5902,-4.5902,-4.4397,-4.3497,0.0,0.0,-4.3515,-4.3515,-4.3496,-4.3075,-4.2268,0.0,0.0,-3.8615,0.0,-3.7015,-3.634,-3.7936,-3.867,-3.8726,-3.9533,-4.0359,-4.1077,-4.1113,-4.1113,-4.1095,-4.1095,-4.1095,-4.1095,-4.1095,-4.1113,-4.1113,-4.1113,-4.1644,-4.2139,-4.1315,-4.0524,-3.99,-3.9882,-3.9313,-3.8578,-3.8047,-3.7893,-3.779,-3.7323,-3.7192,-3.7209,-3.7173,-3.7173,-3.7057,-3.6498,-3.581,-3.5148,-3.4597,-3.3897,-3.2933,-3.1478,0.0,0.0,0.0,-2.9482,0.0,-2.8993,-2.7656,-2.6708,-2.6691,0.0,0.0,0.0,0.0,0.0,0.0,0.0,0.0,-2.779,-2.8569,0.0,-3.119,-3.2662,-3.3778,-3.4506,-3.5245,-3.56,-3.56,-3.56,-3.56,-3.565,-3.6451,-3.6812,-3.6948,-3.8403,-3.9005,-3.9089,-3.9825,-4.0096,-4.0096,-4.0096,-4.0096,-4.0096,-4.9356,-4.9875,-5.0192,-4.9875,-4.9586,-4.8913,-4.7509,-4.799,-4.8413,-4.8144,-4.9106,-4.9981,-5.0457,-5.0043,-4.9504,0.0,-4.7307,-4.6198,0.0,-4.4378,-4.3515,-4.3515,-4.3515,-4.3515,-4.3515,-4.3515,-4.3112,-4.2304,0.0,0.0,0.0,-3.9273,-3.9294,-3.9591,-4.0104,-4.0325,-4.038,-4.1185,-4.168,-4.1974,-4.2525,-4.2415,-4.1919,-4.1919,-4.1919,-4.1919,-4.1919,-4.2268,-4.2745,-4.2745,-4.291,-4.3057,-4.2818,-4.2176,-4.1313,-4.0212,-3.9717,-3.9355,-3.8627,-3.8449,-3.8417,-3.8269,-3.8218,-3.8135,-3.7773,-3.7154,-3.662,-3.6437,-3.5929,-3.5453,-3.5272,-3.4252,-3.3254,-3.278,-3.2053,0.0,0.0,0.0,-2.8993,-2.8993,-2.7639,-2.6691,0.0,-2.7165,0.0,0.0,0.0,0.0,0.0,0.0,0.0,0.0,-2.9076,0.0,-3.119,-3.2662,-3.3778,-3.4506,-3.5245,-3.56,-3.56,-3.56,-3.56,-3.5616,-3.5853,-3.6586,-3.7584,-3.8058,-3.8836,-3.9774,-4.0011,-4.0096,-4.0096,-4.0096,-4.0096,-4.0096,-4.9336,-4.9567,-4.976,-4.9875,-4.9106,-4.8221,-4.7471,-4.7528,-4.7759,-4.8067,-4.8856,-4.9721,-5.0596,-5.0483,0.0,-4.9416,-4.7875,-4.6824,-4.6592,-4.4925,-4.3956,-4.3956,-4.3644,-4.3515,-4.3515,0.0,0.0,-4.2745,-4.2249,-4.1735,-4.124,-4.124,-4.135,-4.1535,-4.1535,-4.1535,-4.1572,-4.2084,-4.247,-4.2782,-4.3313,-4.3185,-4.2745,-4.2745,-4.2745,-4.2745,-4.2745,-4.3057,-4.3515,-4.3515,-4.3515,-4.3515,-4.3515,-4.3149,-4.2433,-4.0818,-4.0139,-3.9717,-3.8927,-3.8707,-3.8707,-3.8707,-3.8707,-3.8562,-3.8013,-3.7415,-3.6865,-3.6478,-3.5899,-3.5343,-3.4866,-3.3795,-3.2899,-3.2628,-3.1799,-3.119,-3.119,0.0,-2.9111,0.0,0.0,0.0,0.0,-2.7977,0.0,0.0,0.0,0.0,0.0,0.0,0.0,-2.8247,-2.9465,0.0,-3.1616,-3.2797,-3.3778,-3.4506,-3.5245,-3.56,-3.56,-3.56,-3.56,-3.56,-3.56,-3.6332,-3.7499,-3.7787,-3.8616,-3.9723,-3.9994,-4.0096,-4.0096,-4.0096,-4.0096,-4.0096,-4.9144,-4.8702,0.0,0.0,-4.8529,0.0,-4.7836,-4.7336,-4.7192,-4.799,-4.8856,-4.9721,-5.0596,-5.0712,-5.0554,-5.0171,0.0,0.0,0.0,-4.5853,-4.4799,-4.4691,-4.3975,-4.3588,-4.3588,-4.3533,-4.3515,-4.3515,-4.3515,-4.3515,-4.3515,-4.3515,-4.3094,-4.2378,-4.2378,-4.2378,-4.2378,-4.2378,-4.2818,-4.3515,-4.3515,-4.3515,-4.3515,-4.3515,-4.3515,-4.3515,-4.3515,-4.3515,-4.3515,-4.3515,-4.3515,-4.3515,-4.3515,-4.3515,-4.3185,-4.1644,-4.0616,-3.9808,-3.9001,-3.8744,-3.8707,-3.8707,-3.8707,-3.8562,-3.8065,-3.7893,-3.7596,-3.6643,-3.5844,-3.497,-3.3761,-3.2899,-3.2158,-3.1461,-3.1258,-3.1173,-3.1123,0.0,-2.9314,0.0,0.0,0.0,0.0,-2.9044,-2.933,0.0,0.0,0.0,0.0,0.0,-2.8332,-2.9128,-2.9871,-3.0954,-3.2446,-3.3119,-3.3846,-3.4573,-3.5261,-3.56,-3.56,-3.56,-3.56,-3.56,-3.56,-3.6096,-3.6931,-3.7618,-3.8362,-3.914,-3.9842,-4.0096,-4.0096,-4.0096,-4.0096,-4.0096,0.0,0.0,-4.8817,-4.7952,-4.7817,-4.7451,-4.6355,-4.6586,-4.7192,-4.799,-4.8856,-4.9721,-5.0596,-5.0712,-5.0663,-5.0565,-4.9372,-4.8096,-4.6856,-4.6336,-4.5658,-4.4727,-4.4525,-4.4415,-4.4415,-4.3809,-4.3515,-4.3515,-4.3515,-4.3515,-4.3515,-4.3515,-4.3387,-4.3222,-4.3222,-4.3222,-4.3222,-4.3222,-4.3331,-4.3515,-4.3515,-4.3515,-4.3515,-4.3515,-4.3515,-4.3515,-4.3515,-4.3515,-4.3515,-4.3515,-4.3515,-4.3515,-4.3515,-4.3515,-4.3313,-4.2304,-4.146,-4.0653,-3.9827,-3.9166,-3.8707,-3.8707,-3.8707,-3.8676,-3.8546,-3.7912,-3.7304,-3.7058,-3.6219,-3.5438,-3.5115,-3.4032,-3.3085,-3.2916,-3.1935,-3.1004,-3.0446,-3.0057,0.0,0.0,-2.8942,-2.8807,-2.8976,-2.9499,-2.9685,0.0,0.0,0.0,0.0,-2.9448,-2.9905,-3.0649,-3.1396,-3.2496,-3.3969,-3.415,-3.4607,-3.5329,-3.5515,-3.56,-3.56,-3.56,-3.56,-3.56,-3.56,-3.6383,-3.7652,-3.7838,-3.8667,-3.9859,-4.0028,-4.0096,-4.0096,-4.0096,-4.0096,-4.0096,-4.7471,-4.7932,-4.8221,-4.8067,-4.8067,-4.7932,-4.7413,-4.7394,-4.7759,-4.8586,-4.9106,-4.9721,-5.0596,-5.0712,-5.0712,-5.0712,-4.9926,-4.9081,-4.8202,-4.7457,-4.6599,-4.5554,-4.498,-4.4691,-4.4691,-4.3901,-4.3515,-4.3515,-4.3515,-4.3515,-4.3515,-4.3515,-4.3515,-4.3515,-4.3515,-4.3515,-4.3515,-4.3515,-4.3515,-4.3515,-4.3515,-4.3515,-4.3515,-4.3515,-4.3515,-4.3515,-4.3515,-4.3515,-4.3515,-4.3515,-4.3515,-4.3515,-4.3515,-4.3515,-4.3423,-4.2983,-4.2029,-4.0912,-4.012,-3.9313,-3.8707,-3.8707,-3.8707,-3.8643,-3.8382,-3.7894,-3.7451,-3.7229,-3.6744,-3.6212,-3.5849,-3.4829,-3.3872,-3.3345,-3.2259,-3.1274,-3.0688,-3.0311,0.0,-3.0025,-2.9721,-2.9653,-2.9974,-3.0362,-3.0446,-3.0042,0.0,0.0,-3.0042,-3.07,-3.1123,-3.119,-3.1921,-3.3021,-3.4472,-3.4827,-3.5194,-3.56,-3.56,-3.56,-3.56,-3.56,-3.56,-3.56,-3.56,-3.6299,-3.7415,-3.777,-3.8565,-3.9639,-3.9977,-4.0096,-4.0096,-4.0096,-4.0096,-4.0096,-4.6913,-4.7077,-4.7528,-4.8952,-4.8702,-4.8509,-4.9106,-4.8682,-4.8567,-4.9298,-4.951,-4.9875,-5.0616,-5.0712,-5.0712,-5.0712,-5.0399,-5.0114,-4.9933,-4.8739,-4.7676,-4.6807,-4.5736,-4.5145,-4.5145,-4.4175,-4.3681,-4.3681,-4.357,-4.3515,-4.3515,-4.3515,-4.3515,-4.3515,-4.3515,-4.3515,-4.3515,-4.3515,-4.3515,-4.3515,-4.3515,-4.3515,-4.3515,-4.3515,-4.3515,-4.3515,-4.3515,-4.3515,-4.3515,-4.3515,-4.3515,-4.3515,-4.3515,-4.3515,-4.3515,-4.3515,-4.2451,-4.1095,-4.0304,-3.9405,-3.8707,-3.8707,-3.8707,-3.8578,-3.8115,-3.7963,-3.779,-3.7378,-3.7248,-3.6997,-3.6307,-3.5421,-3.4464,-3.3431,-3.2432,-3.1625,-3.1116,0.0,-3.0463,-3.097,-3.0581,-3.0514,-3.114,-3.119,-3.119,-3.119,-3.119,-3.119,0.0,-3.1904,-3.2073,-3.1546,-3.2259,-3.3292,-3.4641,-3.5301,-3.56,-3.56,-3.56,-3.56,-3.56,-3.56,-3.56,-3.56,-3.56,-3.6129,-3.7015,-3.7652,-3.8396,-3.9249,-3.9859,-4.0096,-4.0096,-4.0096,-4.0096,-4.0096,-4.7759,-4.7913,-4.8009,-4.8259,-4.8798,-4.899,-4.8394,-4.8817,-4.924,-4.9375,-5.0029,-5.0558,-5.0693,-5.0712,-5.0712,-5.0712,-5.0634,-5.0166,-4.9136,-4.9492,-4.9218,-4.8065,-4.7529,-4.7231,-4.7231,-4.5453,-4.4525,-4.4525,-4.3828,-4.3515,-4.3515,-4.3515,-4.3515,-4.3515,-4.3515,-4.3515,-4.3515,-4.3515,-4.3515,-4.3515,-4.3515,-4.3515,-4.3515,-4.3515,-4.3515,-4.3515,-4.3515,-4.3515,-4.3515,-4.3515,-4.3515,-4.3515,-4.3515,-4.3515,-4.3515,-4.3515,-4.2837,-4.1937,-4.1132,-3.9845,-3.8707,-3.8707,-3.8707,-3.8692,-3.8578,-3.8234,-3.7876,-3.7807,-3.747,-3.7156,-3.7032,-3.581,-3.4623,-3.4107,-3.2779,-3.1436,-3.0402,0.0,-3.0835,-3.0345,-3.0717,-3.1072,-3.119,-3.119,-3.119,-3.119,-3.119,-3.119,-3.119,-3.1904,-3.253,-3.3051,-3.3761,-3.4573,-3.5414,-3.5532,-3.56,-3.56,-3.56,-3.56,-3.56,-3.56,-3.56,-3.56,-3.56,-3.6394,-3.7736,-3.7855,-3.87,-3.9943,-4.0062,-4.0096,-4.0096,-4.0096,-4.0096,-4.0096,-4.7471,-4.8067,-4.8625,-4.8779,-4.951,-4.9952,-4.9548,-4.9837,-5.0087,-5.0087,-5.0462,-5.0712,-5.0712,-5.0712,-5.0712,-5.0712,-5.0712,-5.047,-4.9906,-5.0008,-4.965,-4.8669,-4.8249,-4.7732,-4.7066,-4.6147,-4.5357,-4.4691,-4.3883,-4.3515,-4.3515,-4.3515,-4.3515,-4.3515,-4.3515,-4.3515,-4.3515,-4.3515,-4.3736,-4.4103,-4.3663,-4.3754,-4.4103,-4.3644,-4.3515,-4.3515,-4.3515,-4.3515,-4.3515,-4.3515,-4.3515,-4.3515,-4.3515,-4.3515,-4.3515,-4.3515,-4.2928,-4.2121,-4.1315,-4.0249,-3.935,-3.935,-3.9019,-3.8707,-3.8707,-3.8496,-3.8316,-3.8316,-3.8168,-3.7999,-3.7999,-3.704,-3.6113,-3.5669,-3.425,0.0,0.0,-3.173,-3.1406,-3.1064,-3.1128,-3.119,-3.119,-3.119,-3.119,-3.119,-3.119,-3.136,-3.1769,-3.2476,-3.322,-3.3964,-3.4709,-3.5267,-3.56,-3.56,-3.56,-3.56,-3.56,-3.56,-3.56,-3.56,-3.56,-3.56,-3.56,-3.6265,-3.733,-3.7736,-3.8531,-3.9554,-3.9943,-4.0096,-4.0096,-4.0096,-4.0096,-4.0096,-4.7855,-4.849,-4.923,-4.9625,-5.0269,-5.0712,-5.0712,-5.0712,-5.0712,-5.0712,-5.0712,-5.0712,-5.0712,-5.0712,-5.0712,-5.0712,-5.0712,-5.0712,-5.0712,-5.041,-4.9962,-4.9354,-4.8929,-4.8244,-4.7205,-4.7003,-4.6331,-4.5123,-4.4514,-4.404,-4.3773,-4.3773,-4.3864,-4.4047,-4.368,-4.3717,-4.403,-4.3662,-4.4066,-4.4892,-4.3901,-4.3975,-4.4617,-4.3809,-4.3608,-4.3754,-4.357,-4.3608,-4.3736,-4.3552,-4.3515,-4.3515,-4.3515,-4.3515,-4.3515,-4.3515,-4.3057,-4.2396,-4.159,-4.0799,-4.012,-3.9937,-3.9441,-3.8927,-3.8744,-3.8707,-3.8707,-3.8707,-3.8707,-3.8707,-3.8707,-3.8028,-3.7354,-3.6872,0.0,0.0,0.0,-3.302,-3.2351,-3.186,-3.1699,-3.1533,-3.1227,-3.119,-3.1258,-3.1427,-3.1292,-3.1512,-3.2259,-3.3,-3.3829,-3.4726,-3.5295,-3.56,-3.56,-3.56,-3.56,-3.56,-3.56,-3.56,-3.56,-3.56,-3.56,-3.56,-3.56,-3.6163,-3.7117,-3.7669,-3.8447,-3.9292,-3.9893,-4.0096,-4.0096,-4.0096,-4.0096,-4.0096,-5.0269,-4.9837,-4.9625,-5.0462,-5.0654,-5.0712,-5.0712,-5.0712,-5.0712,-5.0712,-5.0712,-5.0712,-5.0712,-5.0712,-5.0712,-5.0712,-5.0712,-5.0712,-5.0712,-5.0673,-5.0625,-5.0567,-5.0176,-4.9752,-4.929,-4.8565,-4.7582,-4.6382,-4.6307,-4.5708,-4.4617,-4.4617,-4.5021,-4.5663,-4.4158,-4.4323,-4.5626,-4.4121,-4.4378,-4.5681,-4.4121,-4.3975,-4.4617,-4.3809,-4.3956,-4.4525,-4.3754,-4.3975,-4.4507,-4.3736,-4.3515,-4.3515,-4.3515,-4.3515,-4.3515,-4.3515,-4.346,-4.3239,-4.2433,-4.1625,-4.082,-4.0084,-3.9845,-3.9625,-3.8872,-3.8707,-3.8707,-3.8707,-3.8707,-3.8707,-3.8707,-3.8028,-3.7354,-3.6872,0.0,0.0,-3.3876,-3.4269,-3.3953,-3.2035,-3.2502,-3.2505,-3.1317,-3.119,-3.1481,-3.2175,-3.1599,-3.1512,-3.2259,-3.3,-3.4066,-3.5464,-3.5566,-3.56,-3.56,-3.56,-3.56,-3.56,-3.56,-3.56,-3.56,-3.56,-3.56,-3.56,-3.56,-3.6428,-3.7821,-3.7889,-3.8734,-4.0028,-4.0079,-4.0096,-4.0096,-4.0096,-4.0096,-4.0096,-4.9933,-5.0048,-5.0308,-5.0635,-5.0712,-5.0712,-5.0712,-5.0712,-5.0712,-5.0712,-5.0712,-5.0712,-5.0712,-5.0712,-5.0712,-5.0712,-5.0712,-5.0712,-5.0712,-5.0712,-5.0712,-5.0712,-5.0554,-5.0272,-4.9885,-4.9081,-4.8318,-4.7634,-4.6856,-4.6262,-4.5803,-4.5567,-4.5608,-4.5865,-4.5259,-4.5333,-4.5865,-4.5241,-4.5626,-4.6562,-4.5443,-4.548,-4.6104,-4.5296,-4.5186,-4.5351,-4.4525,-4.4452,-4.4636,-4.436,-4.425,-4.425,-4.425,-4.425,-4.4158,-4.3662,-4.3515,-4.3441,-4.313,-4.2451,-4.1662,-4.0855,-4.0267,-3.968,-3.8891,-3.8707,-3.8707,-3.8707,-3.8707,-3.8707,-3.8707,-3.845,-3.8184,-3.8008,0.0,-3.6614,-3.6113,-3.564,-3.5033,-3.4242,-3.4199,-3.404,-3.3542,-3.3242,-3.3097,-3.3154,-3.2363,-3.2332,-3.3365,-3.427,-3.5008,-3.5583,-3.56,-3.56,-3.56,-3.56,-3.56,-3.56,-3.56,-3.56,-3.56,-3.56,-3.56,-3.56,-3.56,-3.6231,-3.7246,-3.7719,-3.8497,-3.9469,-3.9926,-4.0096,-4.0096,-4.0096,-4.0096,-4.0096,-4.9933,-5.0289,-5.0712,-5.0712,-5.0712,-5.0712,-5.0712,-5.0712,-5.0712,-5.0712,-5.0712,-5.0712,-5.0712,-5.0712,-5.0712,-5.0712,-5.0712,-5.0712,-5.0712,-5.0712,-5.0712,-5.0712,-5.0712,-5.0565,-5.0283,-4.9739,-4.9143,-4.8483,-4.79,-4.7447,-4.7068,-4.6654,-4.6595,-4.6816,-4.6176,-4.6177,-4.6617,-4.6104,-4.6507,-4.7369,-4.6324,-4.6379,-4.7003,-4.6214,-4.6067,-4.614,-4.5094,-4.5021,-4.537,-4.4856,-4.4856,-4.5039,-4.4764,-4.4544,-4.4213,-4.3644,-4.3515,-4.3515,-4.3515,-4.3094,-4.2488,-4.168,-4.1056,-4.0432,-3.9643,-3.9258,-3.9074,-3.9074,-3.8891,-3.8707,-3.8707,-3.8707,-3.8707,-3.8707,-3.823,-3.7786,-3.7529,-3.6973,-3.6318,-3.5684,-3.5531,-3.5347,-3.4941,-3.4621,-3.4424,-3.4429,-3.3623,-3.3505,-3.4436,-3.4972,-3.5346,-3.5583,-3.56,-3.56,-3.56,-3.56,-3.56,-3.56,-3.56,-3.56,-3.56,-3.56,-3.56,-3.56,-3.56,-3.6197,-3.7161,-3.7702,-3.8464,-3.9394,-3.991,-4.0096,-4.0096,-4.0096,-4.0096,-4.0096,-5.0712,-5.0712,-5.0712,-5.0712,-5.0712,-5.0712,-5.0712,-5.0712,-5.0712,-5.0712,-5.0712,-5.0712,-5.0712,-5.0712,-5.0712,-5.0712,-5.0712,-5.0712,-5.0712,-5.0712,-5.0712,-5.0712,-5.0712,-5.0712,-5.0712,-5.0712,-5.0101,-4.8907,-4.9704,-4.9486,-4.8305,-4.7891,-4.8149,-4.8822,-4.6816,-4.6801,-4.8196,-4.6599,-4.6838,-4.8159,-4.6562,-4.6416,-4.7021,-4.6214,-4.6416,-4.6892,-4.5278,-4.5737,-4.6856,-4.526,-4.5259,-4.5773,-4.4984,-4.4158,-4.3515,-4.3515,-4.3515,-4.3515,-4.3515,-4.3515,-4.3296,-4.2506,-4.2304,-4.2084,-4.1279,-4.0487,-3.9916,-3.9916,-3.9276,-3.8707,-3.8707,-3.8707,-3.8707,-3.8707,-3.8707,-3.8414,-3.7621,-3.8193,-3.7927,-3.5876,-3.6318,-3.6314,-3.5047,-3.4924,-3.5226,-3.5971,-3.5332,-3.5029,-3.528,-3.4814,-3.4844,-3.5566,-3.56,-3.56,-3.56,-3.56,-3.56,-3.56,-3.56,-3.56,-3.56,-3.56,-3.56,-3.56,-3.56,-3.6462,-3.7889,-3.7905,-3.8751,-4.0079,-4.0096,-4.0096,-4.0096,-4.0096,-4.0096,-4.0096,-5.0712,-5.0712,-5.0712,-5.0712,-5.0712,-5.0712,-5.0712,-5.0712,-5.0712,-5.0712,-5.0712,-5.0712,-5.0712,-5.0712,-5.0712,-5.0712,-5.0712,-5.0712,-5.0712,-5.0712,-5.0712,-5.0712,-5.0712,-5.0712,-5.0712,-5.0712,-5.0519,-5.016,-5.0115,-4.991,-4.9543,-4.9159,-4.91,-4.9292,-4.841,-4.8264,-4.8673,-4.7905,-4.7865,-4.8269,-4.7792,-4.7737,-4.7921,-4.7682,-4.7737,-4.781,-4.6746,-4.6691,-4.7021,-4.6544,-4.6526,-4.6691,-4.6452,-4.5425,-4.4342,-4.4342,-4.3938,-4.3515,-4.3515,-4.3515,-4.3296,-4.2506,-4.2304,-4.2084,-4.1279,-4.0912,-4.0744,-4.0744,-4.0102,-3.9533,-3.9533,-3.9074,-3.8707,-3.8707,-3.8707,-3.8615,-3.8377,-3.856,-3.8478,-3.7857,-3.7987,-3.7977,-3.7592,-3.7225,-3.703,-3.7053,-3.6504,-3.6042,-3.5803,-3.6176,-3.6319,-3.6182,-3.6161,-3.5985,-3.56,-3.56,-3.56,-3.56,-3.56,-3.56,-3.56,-3.56,-3.56,-3.56,-3.56,-3.5853,-3.636,-3.7442,-3.8159,-3.865,-3.9706,-4.0096,-4.0096,-4.0096,-4.0096,-4.0096,-5.0712,-5.0712,-5.0712,-5.0712,-5.0712,-5.0712,-5.0712,-5.0712,-5.0712,-5.0712,-5.0712,-5.0712,-5.0712,-5.0712,-5.0712,-5.0712,-5.0712,-5.0712,-5.0712,-5.0712,-5.0712,-5.0712,-5.0712,-5.0712,-5.0712,-5.0712,-5.0712,-5.0712,-5.0462,-5.0336,-5.0336,-4.9924,-4.9746,-4.9719,-4.9326,-4.9139,-4.9123,-4.8881,-4.8675,-4.855,-4.855,-4.8439,-4.8306,-4.8306,-4.8306,-4.8196,-4.7388,-4.7296,-4.7516,-4.7204,-4.7094,-4.7094,-4.7094,-4.6214,-4.5168,-4.5168,-4.4819,-4.4378,-4.4066,-4.3975,-4.3773,-4.2983,-4.2763,-4.2653,-4.2158,-4.1809,-4.1572,-4.1572,-4.0928,-4.0286,-3.9955,-3.9496,-3.9074,-3.8762,-3.8707,-3.8707,-3.8707,-3.8707,-3.8707,-3.8707,-3.8707,-3.8707,-3.8707,-3.8417,-3.8148,-3.7976,-3.7491,-3.7036,-3.6774,-3.7038,-3.7057,-3.6724,-3.6724,-3.6563,-3.6249,-3.6011,-3.5827,-3.56,-3.56,-3.56,-3.56,-3.56,-3.56,-3.56,-3.56,-3.5769,-3.618,-3.7415,-3.8075,-3.8447,-3.9656,-4.0096,-4.0096,-4.0096,-4.0096,-4.0096,-5.0693,-5.0712,-5.0712,-5.0712,-5.0712,-5.0712,-5.0712,-5.0712,-5.0712,-5.0712,-5.0712,-5.0712,-5.0712,-5.0712,-5.0712,-5.0712,-5.0712,-5.0712,-5.0712,-5.0712,-5.0712,-5.0712,-5.0712,-5.0712,-5.0712,-5.0712,-5.0712,-5.0712,-5.0712,-5.0712,-5.0683,-5.0325,-5.0159,-5.0147,-4.9733,-4.9547,-4.9547,-4.9504,-4.9295,-4.8945,-4.8945,-4.8709,-4.8345,-4.8345,-4.8344,-4.8214,-4.7461,-4.7681,-4.8196,-4.7443,-4.7204,-4.7204,-4.7204,-4.6673,-4.6012,-4.6012,-4.5957,-4.5736,-4.5021,-4.4746,-4.4525,-4.3791,-4.3551,-4.3515,-4.3515,-4.2928,-4.2415,-4.2415,-4.1717,-4.0875,-4.0139,-3.9882,-3.9551,-3.8817,-3.8707,-3.8707,-3.8707,-3.8707,-3.8707,-3.8707,-3.8707,-3.8707,-3.8707,-3.8707,-3.8707,-3.8707,-3.8251,-3.7963,-3.7963,-3.7578,-3.7304,-3.7267,-3.7248,-3.721,-3.7133,-3.6643,-3.6161,-3.5672,-3.5605,-3.56,-3.56,-3.56,-3.56,-3.56,-3.56,-3.6028,-3.6761,-3.7567,-3.8311,-3.8971,-3.9791,-4.0096,-4.0096,-4.0096,-4.0096,-4.0096,-5.0731,-5.0712,-5.0712,-5.0712,-5.0712,-5.0712,-5.0712,-5.0712,-5.0712,-5.0712,-5.0712,-5.0712,-5.0712,-5.0712,-5.0712,-5.0712,-5.0712,-5.0712,-5.0712,-5.0712,-5.0712,-5.0712,-5.0712,-5.0712,-5.0712,-5.0712,-5.0712,-5.0712,-5.0712,-5.0712,-5.0712,-5.0614,-5.0565,-5.0554,-5.0147,-4.9962,-4.9949,-4.9617,-4.9445,-4.9371,-4.9371,-4.9123,-4.8761,-4.8761,-4.8568,-4.8288,-4.8104,-4.8159,-4.8269,-4.8104,-4.8049,-4.8049,-4.8049,-4.748,-4.6837,-4.6837,-4.6397,-4.5865,-4.5681,-4.5186,-4.4672,-4.4488,-4.3975,-4.3515,-4.3515,-4.3369,-4.3239,-4.3239,-4.2103,-4.104,-4.0857,-3.9808,-3.8909,-3.8726,-3.8707,-3.8707,-3.8707,-3.8707,-3.8707,-3.8707,-3.8707,-3.8707,-3.8707,-3.8707,-3.8707,-3.8707,-3.8578,-3.853,-3.853,-3.8433,-3.8185,-3.7755,-3.7737,-3.736,-3.6583,-3.6457,-3.6333,-3.6224,-3.5805,-3.56,-3.56,-3.56,-3.56,-3.56,-3.56,-3.5701,-3.5977,-3.7347,-3.799,-3.8278,-3.9605,-4.0096,-4.0096,-4.0096,-4.0096,-4.0096,-5.0805,-5.073,-5.0712,-5.0712,-5.0712,-5.0712,-5.0712,-5.0712,-5.0712,-5.0712,-5.0712,-5.0712,-5.0712,-5.0712,-5.0712,-5.0712,-5.0712,-5.0712,-5.0712,-5.0712,-5.0712,-5.0712,-5.0712,-5.0712,-5.0712,-5.0712,-5.0712,-5.0712,-5.0712,-5.0712,-5.0712,-5.0712,-5.0712,-5.0683,-5.0483,-5.0399,-5.0369,-5.0159,-4.9962,-4.9787,-4.9787,-4.9547,-4.9171,-4.8961,-4.8761,-4.855,-4.8364,-4.8306,-4.8306,-4.8306,-4.8306,-4.8306,-4.8306,-4.8012,-4.7663,-4.7663,-4.7388,-4.6966,-4.6581,-4.6159,-4.5663,-4.4874,-4.4378,-4.3975,-4.3589,-4.3515,-4.3515,-4.3515,-4.2818,-4.2011,-4.1242,-4.0398,-3.9591,-3.8836,-3.8707,-3.8707,-3.8707,-3.8707,-3.8707,-3.8707,-3.8707,-3.8707,-3.8707,-3.8707,-3.8707,-3.8707,-3.8707,-3.8707,-3.8707,-3.8707,-3.8562,-3.8283,-3.8283,-3.8015,-3.7506,-3.702,-3.6783,-3.6764,-3.5968,-3.56,-3.56,-3.56,-3.56,-3.56,-3.56,-3.56,-3.5718,-3.7256,-3.7905,-3.8058,-3.9512,-4.0096,-4.0096,-4.0096,-4.0096,-4.0096,-5.0903,-5.0805,-5.0721,-5.0693,-5.0712,-5.0712,-5.0712,-5.0712,-5.0712,-5.0712,-5.0712,-5.0712,-5.0712,-5.0712,-5.0712,-5.0712,-5.0712,-5.0712,-5.0712,-5.0712,-5.0712,-5.0712,-5.0712,-5.0712,-5.0712,-5.0712,-5.0712,-5.0712,-5.0712,-5.0712,-5.0712,-5.0712,-5.0712,-5.0712,-5.0712,-5.0712,-5.0712,-5.0712,-5.0504,-5.0195,-5.0195,-4.9962,-4.9561,-4.9234,-4.9011,-4.8846,-4.8532,-4.8364,-4.8306,-4.8306,-4.8306,-4.8306,-4.8306,-4.8306,-4.8306,-4.8306,-4.8306,-4.8159,-4.748,-4.7204,-4.6782,-4.5443,-4.4893,-4.4544,-4.3864,-4.3606,-4.3515,-4.3515,-4.3404,-4.2892,-4.1535,-4.1187,-4.0655,-3.9316,-3.9111,-3.9056,-3.8927,-3.8909,-3.8854,-3.8726,-3.8707,-3.8707,-3.8707,-3.8707,-3.8707,-3.8707,-3.8707,-3.8707,-3.8707,-3.8707,-3.8707,-3.8707,-3.8707,-3.8676,-3.8562,-3.7756,-3.7229,-3.7039,-3.6165,-3.5694,-3.56,-3.56,-3.56,-3.56,-3.56,-3.56,-3.5718,-3.7256,-3.7905,-3.8058,-3.9512,-4.0096,-4.0096,-4.0096,-4.0096,-4.0096,-5.0933,-5.0886,-5.0827,-5.0731,-5.0712,-5.0712,-5.0712,-5.0712,-5.0712,-5.0712,-5.0712,-5.0712,-5.0712,-5.0712,-5.0712,-5.0712,-5.0712,-5.0712,-5.0712,-5.0712,-5.0712,-5.0712,-5.0712,-5.0712,-5.0712,-5.0712,-5.0712,-5.0712,-5.0712,-5.0712,-5.0712,-5.0712,-5.0712,-5.0712,-5.0712,-5.0712,-5.0712,-5.0712,-5.0673,-5.0614,-5.0614,-5.0388,-4.9999,-4.9962,-4.9518,-4.8897,-4.8847,-4.8604,-4.8306,-4.8306,-4.8306,-4.8306,-4.8306,-4.8306,-4.8306,-4.8306,-4.8306,-4.8288,-4.8177,-4.7626,-4.7058,-4.6837,-4.5718,-4.4654,-4.4562,-4.3993,-4.3515,-4.3515,-4.2947,-4.2396,-4.2176,-4.1572,-4.1022,-4.0802,-4.0783,-4.0526,-3.9845,-3.9735,-3.9478,-3.8781,-3.8707,-3.8707,-3.8707,-3.8707,-3.8707,-3.8707,-3.8707,-3.8707,-3.8707,-3.8707,-3.8707,-3.8707,-3.8707,-3.8481,-3.8013,-3.7859,-3.736,-3.6519,-3.6354,-3.6054,-3.56,-3.56,-3.56,-3.56,-3.56,-3.56,-3.5718,-3.7256,-3.7905,-3.8058,-3.9512,-4.0096,-4.0096,-4.0096,-4.0096,-4.0096,-5.1101,-5.099,-5.0879,-5.083,-5.0739,-5.0712,-5.0712,-5.0712,-5.0712,-5.0712,-5.0712,-5.0712,-5.0712,-5.0712,-5.0712,-5.0712,-5.0712,-5.0712,-5.0712,-5.0712,-5.0712,-5.0712,-5.0712,-5.0712,-5.0712,-5.0712,-5.0712,-5.0712,-5.0712,-5.0712,-5.0712,-5.0712,-5.0712,-5.0712,-5.0712,-5.0712,-5.0712,-5.0712,-5.0712,-5.0712,-5.0712,-5.0604,-5.041,-5.0183,-4.9866,-4.9518,-4.9059,-4.8796,-4.8604,-4.8383,-4.8306,-4.8306,-4.8306,-4.8306,-4.8306,-4.8306,-4.8306,-4.8306,-4.8306,-4.8049,-4.7663,-4.7204,-4.6562,-4.581,-4.4893,-4.4433,-4.4048,-4.3589,-4.3222,-4.2818,-4.2378,-4.2011,-4.1625,-4.1168,-4.1095,-4.0967,-4.0616,-4.0579,-4.0267,-3.946,-3.9368,-3.9184,-3.8744,-3.8707,-3.8707,-3.8707,-3.8707,-3.8707,-3.8707,-3.8707,-3.8707,-3.8707,-3.8707,-3.8596,-3.835,-3.8048,-3.7685,-3.723,-3.6962,-3.6416,-3.56,-3.56,-3.56,-3.56,-3.56,-3.5853,-3.6366,-3.7449,-3.8142,-3.8616,-3.969,-4.0096,-4.0096,-4.0096,-4.0096,-4.0096]},{"header":{"parameterUnit":"m.s-1","parameterCategory":1,"la1":30.6,"la2":28.766,"lo1":-90.7593,"lo2":-88.6598,"dy":0.0162,"dx":0.0183,"nx":116,"ny":114,"refTime":"2024-05-24T12:00:00:Z","depth":0,"parameterNumber":3,"parameterNumberName":"V-component_of_WINDS"},"data":[0.0,0.0,0.0,0.0,0.0,0.0,0.0,0.0,0.0,0.0,0.0,0.0,0.0,0.0,0.0,0.0,0.0,0.0,0.0,0.0,0.0,0.0,0.0,0.0,0.0,0.0,0.0,0.0,0.0,0.0,0.0,0.0,0.0,0.0,0.0,0.0,0.0,0.0,0.0,0.0,0.0,0.0,0.0,0.0,0.0,0.0,0.0,0.0,0.0,0.0,0.0,0.0,0.0,0.0,0.0,0.0,0.0,0.0,0.0,0.0,0.0,0.0,0.0,0.0,0.0,0.0,0.0,0.0,0.0,0.0,0.0,0.0,0.0,0.0,0.0,0.0,0.0,0.0,0.0,0.0,0.0,0.0,0.0,0.0,0.0,0.0,0.0,0.0,0.0,0.0,0.0,0.0,0.0,0.0,0.0,0.0,0.0,0.0,0.0,0.0,0.0,0.0,0.0,0.0,0.0,0.0,0.0,0.0,0.0,0.0,0.0,0.0,0.0,0.0,0.0,0.0,0.0,0.0,0.0,0.0,0.0,0.0,0.0,0.0,0.0,0.0,0.0,0.0,0.0,0.0,0.0,0.0,0.0,0.0,0.0,0.0,0.0,0.0,0.0,0.0,0.0,0.0,0.0,0.0,0.0,0.0,0.0,0.0,0.0,0.0,0.0,0.0,0.0,0.0,0.0,0.0,0.0,0.0,0.0,0.0,0.0,0.0,0.0,0.0,0.0,0.0,0.0,0.0,0.0,0.0,0.0,0.0,0.0,0.0,0.0,0.0,0.0,0.0,0.0,0.0,0.0,0.0,0.0,0.0,0.0,0.0,0.0,0.0,0.0,0.0,0.0,0.0,0.0,0.0,0.0,0.0,0.0,0.0,0.0,0.0,0.0,0.0,0.0,0.0,0.0,0.0,0.0,0.0,0.0,0.0,0.0,0.0,0.0,0.0,0.0,0.0,0.0,0.0,0.0,0.0,0.0,0.0,0.0,0.0,0.0,0.0,0.0,0.0,0.0,0.0,0.0,0.0,0.0,0.0,0.0,0.0,0.0,0.0,0.0,0.0,0.0,0.0,0.0,0.0,0.0,0.0,0.0,0.0,0.0,0.0,0.0,0.0,0.0,0.0,0.0,0.0,0.0,0.0,0.0,0.0,0.0,0.0,0.0,0.0,0.0,0.0,0.0,0.0,0.0,0.0,0.0,0.0,0.0,0.0,0.0,0.0,0.0,0.0,0.0,0.0,0.0,0.0,0.0,0.0,0.0,0.0,0.0,0.0,0.0,0.0,0.0,0.0,0.0,0.0,0.0,0.0,0.0,0.0,0.0,0.0,0.0,0.0,0.0,0.0,0.0,0.0,0.0,0.0,0.0,0.0,0.0,0.0,0.0,0.0,0.0,0.0,0.0,0.0,0.0,0.0,0.0,0.0,0.0,0.0,0.0,0.0,0.0,0.0,0.0,0.0,0.0,0.0,0.0,0.0,0.0,0.0,0.0,0.0,0.0,0.0,0.0,0.0,0.0,0.0,0.0,0.0,0.0,0.0,0.0,0.0,0.0,0.0,0.0,0.0,0.0,0.0,0.0,0.0,0.0,0.0,0.0,0.0,0.0,0.0,0.0,0.0,0.0,0.0,0.0,0.0,0.0,0.0,0.0,0.0,0.0,0.0,0.0,0.0,0.0,0.0,0.0,0.0,0.0,0.0,0.0,0.0,0.0,0.0,0.0,0.0,0.0,0.0,0.0,0.0,0.0,0.0,0.0,0.0,0.0,0.0,0.0,0.0,0.0,0.0,0.0,0.0,0.0,0.0,0.0,0.0,0.0,0.0,0.0,0.0,0.0,0.0,0.0,0.0,0.0,0.0,0.0,0.0,0.0,0.0,0.0,0.0,0.0,0.0,0.0,0.0,0.0,0.0,0.0,0.0,0.0,0.0,0.0,0.0,0.0,0.0,0.0,0.0,0.0,0.0,0.0,0.0,0.0,0.0,0.0,0.0,0.0,0.0,0.0,0.0,0.0,0.0,0.0,0.0,0.0,0.0,0.0,0.0,0.0,0.0,0.0,0.0,0.0,0.0,0.0,0.0,0.0,0.0,0.0,0.0,0.0,0.0,0.0,0.0,0.0,0.0,0.0,0.0,0.0,0.0,0.0,0.0,0.0,0.0,0.0,0.0,0.0,0.0,0.0,0.0,0.0,0.0,0.0,0.0,0.0,0.0,0.0,0.0,0.0,0.0,0.0,0.0,0.0,0.0,0.0,0.0,0.0,0.0,0.0,0.0,0.0,0.0,0.0,0.0,0.0,0.0,0.0,0.0,0.0,0.0,0.0,0.0,0.0,0.0,0.0,0.0,0.0,0.0,0.0,0.0,0.0,0.0,0.0,0.0,0.0,0.0,0.0,0.0,0.0,0.0,0.0,0.0,0.0,0.0,0.0,0.0,0.0,0.0,0.0,0.0,0.0,0.0,0.0,0.0,0.0,0.0,0.0,0.0,0.0,0.0,0.0,0.0,0.0,0.0,0.0,0.0,0.0,0.0,0.0,0.0,0.0,0.0,0.0,0.0,0.0,0.0,0.0,0.0,0.0,0.0,0.0,0.0,0.0,0.0,0.0,0.0,0.0,0.0,0.0,0.0,0.0,0.0,0.0,0.0,0.0,0.0,0.0,0.0,0.0,0.0,0.0,0.0,0.0,0.0,0.0,0.0,0.0,0.0,0.0,0.0,0.0,0.0,0.0,0.0,0.0,0.0,0.0,0.0,0.0,0.0,0.0,0.0,0.0,0.0,0.0,0.0,0.0,0.0,0.0,0.0,0.0,0.0,0.0,0.0,0.0,0.0,0.0,0.0,0.0,0.0,0.0,0.0,0.0,0.0,0.0,0.0,0.0,0.0,0.0,0.0,0.0,0.0,0.0,0.0,0.0,0.0,0.0,0.0,0.0,0.0,0.0,0.0,0.0,0.0,0.0,0.0,0.0,0.0,0.0,0.0,0.0,0.0,0.0,0.0,0.0,0.0,0.0,0.0,0.0,0.0,0.0,0.0,0.0,0.0,0.0,0.0,0.0,0.0,0.0,0.0,0.0,0.0,0.0,0.0,0.0,0.0,0.0,0.0,0.0,0.0,0.0,0.0,0.0,0.0,0.0,0.0,0.0,0.0,0.0,0.0,0.0,0.0,0.0,0.0,0.0,0.0,0.0,0.0,0.0,0.0,0.0,0.0,0.0,0.0,0.0,0.0,0.0,0.0,0.0,0.0,0.0,0.0,0.0,0.0,0.0,0.0,0.0,0.0,0.0,0.0,0.0,0.0,0.0,0.0,0.0,0.0,0.0,0.0,0.0,0.0,0.0,0.0,0.0,0.0,0.0,0.0,0.0,0.0,0.0,0.0,0.0,0.0,0.0,0.0,0.0,0.0,0.0,0.0,0.0,0.0,0.0,0.0,0.0,0.0,0.0,0.0,0.0,0.0,0.0,0.0,0.0,0.0,0.0,0.0,0.0,0.0,0.0,0.0,0.0,0.0,0.0,0.0,0.0,0.0,0.0,0.0,0.0,0.0,0.0,0.0,0.0,0.0,0.0,0.0,0.0,0.0,0.0,0.0,0.0,0.0,0.0,0.0,0.0,0.0,0.0,0.0,0.0,0.0,0.0,0.0,0.0,0.0,0.0,0.0,0.0,0.0,0.0,0.0,0.0,0.0,0.0,0.0,0.0,0.0,0.0,0.0,0.0,0.0,0.0,0.0,0.0,0.0,0.0,0.0,0.0,0.0,0.0,0.0,0.0,0.0,0.0,0.0,0.0,0.0,0.0,0.0,0.0,0.0,0.0,0.0,0.0,0.0,0.0,0.0,0.0,0.0,0.0,0.0,0.0,0.0,0.0,0.0,0.0,0.0,0.0,0.0,0.0,0.0,0.0,0.0,0.0,0.0,0.0,0.0,0.0,0.0,0.0,0.0,0.0,0.0,0.0,0.0,0.0,0.0,0.0,0.0,0.0,0.0,0.0,0.0,0.0,0.0,0.0,0.0,0.0,0.0,0.0,0.0,0.0,0.0,0.0,0.0,0.0,0.0,0.0,0.0,0.0,0.0,0.0,0.0,0.0,0.0,0.0,0.0,0.0,0.0,0.0,0.0,0.0,0.0,0.0,0.0,0.0,0.0,0.0,0.0,0.0,0.0,0.0,0.0,0.0,0.0,0.0,0.0,0.0,0.0,0.0,0.0,0.0,0.0,0.0,0.0,0.0,0.0,0.0,0.0,0.0,0.0,0.0,0.0,0.0,0.0,0.0,0.0,0.0,0.0,0.0,0.0,0.0,0.0,0.0,0.0,0.0,0.0,0.0,0.0,0.0,0.0,0.0,0.0,0.0,0.0,0.0,0.0,0.0,0.0,0.0,0.0,0.0,0.0,0.0,0.0,0.0,0.0,0.0,0.0,0.0,0.0,0.0,0.0,0.0,0.0,0.0,0.0,0.0,0.0,0.0,0.0,0.0,0.0,0.0,0.0,0.0,0.0,0.0,0.0,0.0,0.0,0.0,0.0,0.0,0.0,0.0,0.0,0.0,0.0,0.0,0.0,0.0,0.0,0.0,0.0,0.0,0.0,0.0,0.0,0.0,0.0,0.0,0.0,0.0,0.0,0.0,0.0,0.0,0.0,0.0,0.0,0.0,0.0,0.0,0.0,0.0,0.0,0.0,0.0,0.0,0.0,0.0,0.0,0.0,0.0,0.0,0.0,0.0,0.0,0.0,0.0,0.0,0.0,0.0,0.0,0.0,0.0,0.0,0.0,0.0,0.0,0.0,0.0,0.0,0.0,0.0,0.0,0.0,0.0,0.0,0.0,0.0,0.0,0.0,0.0,0.0,0.0,0.0,0.0,0.0,0.0,0.0,0.0,0.0,0.0,0.0,0.0,0.0,0.0,0.0,0.0,0.0,0.0,0.0,0.0,0.0,0.0,0.0,0.0,0.0,0.0,0.0,0.0,0.0,0.0,0.0,0.0,0.0,0.0,0.0,0.0,0.0,0.0,0.0,0.0,0.0,0.0,0.0,0.0,0.0,0.0,0.0,0.0,0.0,0.0,0.0,0.0,0.0,0.0,0.0,0.0,0.0,0.0,0.0,0.0,0.0,0.0,0.0,0.0,0.0,0.0,0.0,0.0,0.0,0.0,0.0,0.0,0.0,0.0,0.0,0.0,0.0,0.0,0.0,0.0,0.0,0.0,0.0,0.0,0.0,0.0,0.0,0.0,0.0,0.0,0.0,0.0,0.0,0.0,0.0,0.0,0.0,0.0,0.0,0.0,0.0,0.0,0.0,0.0,0.0,0.0,0.0,0.0,0.0,0.0,0.0,0.0,0.0,0.0,0.0,0.0,0.0,0.0,0.0,0.0,0.0,0.0,0.0,0.0,0.0,0.0,0.0,0.0,0.0,0.0,0.0,0.0,0.0,0.0,0.0,0.0,0.0,0.0,0.0,0.0,0.0,0.0,0.0,0.0,0.0,0.0,0.0,0.0,0.0,0.0,0.0,0.0,0.0,0.0,0.0,0.0,0.0,0.0,0.0,0.0,0.0,0.0,0.0,0.0,0.0,0.0,0.0,0.0,0.0,0.0,0.0,0.0,0.0,0.0,0.0,0.0,0.0,0.0,0.0,0.0,0.0,0.0,0.0,0.0,0.0,0.0,0.0,0.0,0.0,0.0,0.0,0.0,0.0,0.0,0.0,0.0,0.0,0.0,0.0,0.0,0.0,0.0,0.0,0.0,0.0,0.0,0.0,0.0,0.0,0.0,0.0,0.0,0.0,0.0,0.0,0.0,0.0,0.0,0.0,0.0,0.0,0.0,0.0,0.0,0.0,0.0,0.0,0.0,0.0,0.0,0.0,0.0,0.0,0.0,0.0,0.0,0.0,0.0,0.0,0.0,0.0,0.0,0.0,0.0,0.0,0.0,0.0,0.0,0.0,0.0,0.0,0.0,0.0,0.0,0.0,0.0,0.0,0.0,0.0,0.0,0.0,0.0,0.0,0.0,0.0,0.0,0.0,0.0,0.0,0.0,0.0,0.0,0.0,0.0,0.0,0.0,0.0,0.0,0.0,0.0,0.0,0.0,0.0,0.0,-1.5196,0.0,0.0,0.0,0.0,0.0,0.0,0.0,0.0,0.0,0.0,0.0,0.0,0.0,0.0,0.0,0.0,0.0,0.0,0.0,0.0,0.0,0.0,0.0,0.0,-1.217,-1.1917,-1.1889,-1.0927,-1.0157,-0.9715,0.0,0.0,0.0,0.0,0.0,-0.485,-0.4455,-0.427,-0.4341,-0.4395,-0.4503,-0.4641,-0.5149,-0.5195,-0.4878,0.0,0.0,0.0,0.0,0.0,0.0,0.0,0.0,0.0,0.0,0.0,0.0,0.0,0.0,0.0,0.0,0.0,0.0,0.0,0.0,0.0,0.0,0.0,0.0,0.0,0.0,0.0,0.0,0.0,0.0,0.0,0.0,0.0,0.0,0.0,0.0,0.0,0.0,0.0,0.0,0.0,0.0,0.0,0.0,0.0,0.0,0.0,0.0,0.0,0.0,0.0,0.0,0.0,0.0,0.0,0.0,0.0,0.0,0.0,0.0,0.0,0.0,0.0,0.0,0.0,0.0,0.0,0.0,0.0,0.0,0.0,-1.6072,0.0,0.0,0.0,0.0,0.0,0.0,0.0,0.0,0.0,0.0,0.0,0.0,0.0,0.0,0.0,0.0,0.0,0.0,0.0,0.0,0.0,-1.1809,-1.2369,-1.2052,-1.1875,-1.2079,-1.0972,-1.015,-0.9863,-0.9662,0.0,0.0,0.0,-0.6431,-0.5425,-0.4846,-0.4644,-0.4769,-0.5053,-0.533,-0.5611,-0.6835,-0.7136,-0.6687,-0.645,0.0,0.0,0.0,0.0,0.0,0.0,0.0,0.0,0.0,0.0,0.0,0.0,0.0,0.0,0.0,0.0,0.0,0.0,0.0,0.0,0.0,0.0,0.0,0.0,0.0,0.0,0.0,0.0,0.0,0.0,0.0,0.0,0.0,0.0,0.0,0.0,0.0,0.0,0.0,0.0,0.0,0.0,0.0,0.0,0.0,0.0,0.0,0.0,0.0,0.0,0.0,0.0,0.0,0.0,0.0,0.0,0.0,0.0,0.0,0.0,0.0,0.0,0.0,-1.8684,-1.8951,-1.8951,-1.8951,-1.9078,-1.9221,-1.8303,-1.7715,-1.7377,-1.7029,0.0,0.0,0.0,0.0,0.0,0.0,0.0,0.0,0.0,0.0,0.0,0.0,0.0,0.0,0.0,0.0,0.0,0.0,0.0,-1.2034,-1.3203,-1.3577,-1.3497,-1.2922,-1.2679,-1.1959,-1.0566,-0.95,0.0,0.0,-0.6724,-0.5767,-0.5007,-0.4887,-0.4897,-0.5042,-0.6433,-0.7245,-0.7456,-0.8741,-0.9668,-1.0271,-0.9093,-0.8791,-0.9099,0.0,0.0,0.0,0.0,0.0,0.0,0.0,0.0,0.0,0.0,0.0,0.0,0.0,0.0,0.0,0.0,0.0,0.0,0.0,0.0,0.0,0.0,0.0,0.0,0.0,0.0,0.0,0.0,0.0,0.0,0.0,0.0,0.0,0.0,0.0,0.0,0.0,0.0,0.0,0.0,0.0,-1.0174,-1.0716,0.0,0.0,0.0,0.0,0.0,0.0,0.0,0.0,0.0,0.0,0.0,0.0,0.0,-1.8053,-1.8951,-1.9573,-2.0013,-2.0274,-2.0608,-2.0762,-2.0762,-2.0762,-2.0788,-2.0815,-2.0679,0.0,-1.8365,-1.8905,0.0,0.0,0.0,0.0,0.0,0.0,0.0,0.0,0.0,0.0,0.0,0.0,0.0,0.0,0.0,0.0,0.0,0.0,0.0,0.0,0.0,-1.389,-1.3886,-1.3296,-1.306,-1.233,-1.0912,-1.0316,-0.9326,-0.7783,-0.722,-0.6306,-0.4921,-0.4965,-0.516,-0.5508,-0.7086,-0.7613,-0.7119,-0.9632,-1.0679,-1.0412,-1.0924,-1.0932,-1.0526,-1.0197,0.0,0.0,0.0,0.0,0.0,0.0,0.0,0.0,0.0,0.0,0.0,0.0,0.0,0.0,0.0,0.0,0.0,0.0,0.0,0.0,0.0,0.0,0.0,0.0,0.0,0.0,0.0,0.0,0.0,0.0,0.0,0.0,0.0,0.0,0.0,0.0,0.0,0.0,0.0,-0.9887,-1.0496,-1.2153,-1.1502,-1.0853,0.0,0.0,0.0,0.0,0.0,0.0,0.0,0.0,0.0,-1.8564,-1.9199,-1.9706,-2.0161,-2.0681,-2.1042,-2.1239,-2.1463,-2.1603,-2.1603,-2.1603,-2.1603,-2.1603,-2.1603,-2.1622,-2.1658,-2.1259,-2.0397,-1.9475,0.0,0.0,0.0,0.0,-2.327,-2.3839,0.0,0.0,0.0,0.0,0.0,0.0,0.0,0.0,0.0,0.0,0.0,0.0,-1.3916,-1.4289,-1.4251,-1.3636,-1.3265,-1.2513,-1.1176,-1.0765,-0.9863,-0.8281,-0.7734,-0.6791,-0.5399,-0.5628,-0.5847,-0.5918,-0.7844,-0.8309,-0.755,-1.0502,-1.156,-1.1053,-1.2493,-1.2677,-1.1815,-1.1323,-1.0523,-0.9604,0.0,0.0,0.0,0.0,0.0,0.0,0.0,0.0,0.0,0.0,0.0,0.0,0.0,0.0,0.0,0.0,0.0,0.0,0.0,0.0,0.0,0.0,0.0,0.0,0.0,0.0,0.0,0.0,0.0,0.0,0.0,0.0,0.0,0.0,0.0,0.0,0.0,-1.1257,-1.187,-1.3995,-1.355,-1.304,0.0,0.0,0.0,0.0,0.0,0.0,-1.6998,-1.8503,-1.9539,-1.9973,-2.0561,-2.0969,-2.1116,-2.1557,-2.1882,-2.1956,-2.2104,-2.2211,-2.2211,-2.2211,-2.2211,-2.2211,-2.2211,-2.307,-2.4329,-2.3489,-2.2859,-2.2497,-2.3562,-2.4181,-2.4559,-2.5024,-2.5707,-2.6533,0.0,0.0,0.0,0.0,0.0,0.0,0.0,0.0,0.0,0.0,0.0,-1.3506,-1.5137,-1.5342,-1.5014,-1.4122,-1.376,-1.2928,0.0,-1.0122,-0.945,-0.9603,-0.7757,-0.6698,-0.6624,-0.7293,-0.7207,-0.6276,-0.8991,-1.0242,-1.0242,-1.1615,-1.2856,-1.3909,-1.3986,-1.3687,-1.3046,-1.1855,-1.1209,-1.0828,-0.9997,0.0,0.0,0.0,0.0,0.0,0.0,0.0,0.0,0.0,0.0,0.0,0.0,0.0,0.0,0.0,0.0,0.0,0.0,0.0,0.0,0.0,0.0,0.0,0.0,0.0,0.0,0.0,0.0,0.0,0.0,0.0,0.0,0.0,0.0,0.0,0.0,0.0,0.0,-1.6883,-1.6235,0.0,0.0,0.0,0.0,-1.6079,-1.8099,-1.9486,-1.9947,-2.0408,-2.0855,-2.1487,-2.1554,-2.177,-2.2325,-2.2358,-2.2519,-2.2799,-2.2881,-2.2819,-2.2819,-2.2819,-2.2819,-2.2819,-2.2819,-2.3707,-2.5093,-2.5428,-2.5413,-2.5357,-2.7687,-2.7566,-2.6344,-2.7611,-2.8111,-2.8174,0.0,0.0,0.0,0.0,0.0,-1.2567,-1.1468,-1.1996,-1.2362,-1.1881,-1.3169,-1.4363,-1.4941,-1.6016,-1.6066,-1.4505,-1.4519,-1.3784,-1.185,-1.1064,-1.0141,-0.9026,-0.8767,-0.8575,-0.8514,-0.8134,-0.7884,-0.7827,-0.9634,-0.9762,-0.8348,-1.1824,-1.2863,-1.1912,-1.3434,-1.3968,-1.3721,-1.2919,-1.2184,-1.1511,-1.0633,-0.9863,0.0,0.0,0.0,0.0,0.0,0.0,0.0,0.0,0.0,0.0,0.0,0.0,0.0,0.0,0.0,0.0,0.0,0.0,0.0,0.0,0.0,0.0,0.0,0.0,0.0,0.0,0.0,0.0,0.0,0.0,0.0,0.0,0.0,0.0,0.0,0.0,0.0,-1.8074,-1.8374,0.0,-1.848,-1.8577,-1.8816,-1.9101,-1.9952,-2.0661,-2.1062,-2.1537,-2.1891,-2.2104,-2.2298,-2.2559,-2.2706,-2.2706,-2.2759,-2.2928,-2.2928,-2.2928,-2.2928,-2.2928,-2.2928,-2.2928,-2.2928,-2.453,-2.7088,-2.7295,-2.765,-2.8284,-2.9906,-3.0035,-2.9288,-2.9451,-2.9512,-2.9512,0.0,0.0,0.0,0.0,-1.2282,-1.2184,-1.1363,-1.1971,-1.2465,-1.2273,-1.3747,-1.4951,-1.5391,-1.6602,-1.6674,-1.4895,-1.4907,-1.414,-1.2055,-1.1496,-1.0727,-0.945,-0.9684,-0.9536,-0.8936,-0.9184,-0.9099,-0.8692,-1.0371,-1.0389,-0.8917,-1.2164,-1.2991,-1.1869,-1.3487,-1.4229,-1.4208,-1.3821,-1.314,-1.2251,-1.1497,-1.0888,-1.0358,0.0,0.0,0.0,0.0,0.0,0.0,0.0,0.0,0.0,0.0,0.0,0.0,0.0,0.0,0.0,0.0,0.0,0.0,0.0,0.0,0.0,0.0,0.0,0.0,0.0,0.0,0.0,0.0,0.0,0.0,0.0,0.0,0.0,0.0,-1.6259,-1.7274,-1.8984,-1.974,-2.0174,-2.0361,-2.0561,-2.0762,-2.1018,-2.1336,-2.1637,-2.1837,-2.2305,-2.2565,-2.2565,-2.2759,-2.2928,-2.2928,-2.2928,-2.2928,-2.2928,-2.2928,-2.2928,-2.2928,-2.3529,-2.3795,-2.3795,-2.4392,-2.638,-2.9083,-2.9083,-2.9824,-3.0987,-3.1664,-3.1689,-3.1269,-3.081,-3.0644,-3.0625,0.0,0.0,0.0,-1.2478,-1.1678,-1.1195,-1.1609,-1.1671,-1.2086,-1.332,-1.4268,-1.5303,-1.6541,-1.7119,-1.6839,-1.5377,-1.4911,-1.3947,-1.209,-1.1363,-1.1009,-1.1022,-1.0446,-0.9448,-0.803,-1.0537,-1.0852,-0.8836,-1.115,-1.226,-1.2272,-1.2697,-1.3312,-1.4079,-1.4366,-1.4536,-1.4536,-1.4536,-1.4041,-1.3213,-1.2592,-1.2164,-1.1832,0.0,0.0,0.0,0.0,0.0,0.0,0.0,0.0,0.0,0.0,0.0,0.0,0.0,0.0,0.0,0.0,0.0,0.0,0.0,0.0,0.0,0.0,0.0,0.0,0.0,0.0,0.0,0.0,0.0,0.0,0.0,0.0,0.0,-1.7186,-1.7716,-1.8488,-1.9713,-2.0374,-2.0735,-2.0742,-2.1326,-2.1655,-2.1655,-2.2118,-2.2432,-2.2432,-2.2706,-2.2928,-2.2928,-2.2941,-2.2879,-2.2879,-2.2886,-2.2886,-2.2879,-2.2879,-2.2941,-2.2928,-2.4723,-2.551,-2.5584,-2.7437,-2.9213,-3.0771,-3.0771,-3.1835,-3.3379,-3.2969,-3.2559,-3.2139,-3.1709,-3.1543,-3.1455,0.0,0.0,-1.2401,-1.2048,-1.2048,-1.1875,-1.1227,-1.1966,-1.2716,-1.3032,-1.4627,-1.588,-1.6242,-1.7197,-1.7387,-1.6315,-1.5521,-1.4521,-1.3287,-1.2006,-1.1403,-1.1651,-1.115,-1.1233,-1.2002,-1.1122,-1.101,-1.1674,-1.1521,-1.1506,-1.1767,-1.3562,-1.4066,-1.3501,-1.4441,-1.4843,-1.4843,-1.4843,-1.4703,-1.4409,-1.3601,-1.2966,-1.2469,0.0,0.0,0.0,0.0,0.0,0.0,0.0,0.0,0.0,0.0,0.0,0.0,0.0,0.0,0.0,0.0,0.0,0.0,0.0,0.0,0.0,0.0,0.0,0.0,0.0,0.0,0.0,0.0,0.0,0.0,0.0,-1.6457,-1.7448,-1.7756,-1.8858,-1.9993,-2.0955,-2.1583,-2.2024,-2.2238,-2.2472,-2.2573,-2.2573,-2.2652,-2.2739,-2.2739,-2.2819,-2.2928,-2.2928,-2.308,-2.32,-2.32,-2.3414,-2.3414,-2.32,-2.32,-2.308,-2.2928,-2.4723,-2.551,-2.5584,-2.7437,-2.9213,-3.0771,-3.0771,-3.1835,-3.3408,-3.3301,-3.2998,-3.2607,-3.249,-3.2051,-3.1455,0.0,-1.282,-1.2407,-1.2138,-1.233,-1.229,-1.1593,-1.254,-1.334,-1.3396,-1.4979,-1.6163,-1.6328,-1.7187,-1.721,-1.5937,-1.5246,-1.4252,-1.2668,-1.1854,-1.167,-1.2248,-1.2107,-1.2366,-1.3041,-1.2355,-1.2302,-1.2975,-1.2796,-1.2827,-1.3018,-1.4482,-1.4708,-1.3999,-1.4812,-1.5189,-1.5189,-1.5189,-1.5189,-1.5097,-1.4583,-1.4021,-1.344,-1.2596,-1.2248,-1.2118,-1.1697,-1.1543,-1.1523,-1.1403,0.0,0.0,0.0,0.0,0.0,0.0,0.0,0.0,0.0,0.0,0.0,0.0,0.0,0.0,0.0,0.0,0.0,0.0,0.0,0.0,0.0,0.0,0.0,0.0,-1.7749,-1.8524,-1.9072,-1.988,-2.0788,-2.1797,-2.2211,-2.2539,-2.2901,-2.2928,-2.2928,-2.2928,-2.2928,-2.2928,-2.2928,-2.2986,-2.3053,-2.3053,-2.3354,-2.3514,-2.3514,-2.3688,-2.3688,-2.3514,-2.3387,-2.3233,-2.3115,-2.5517,-2.6647,0.0,-2.9279,-3.0918,-3.1899,-3.1899,-3.2492,0.0,0.0,0.0,0.0,0.0,-3.2363,-3.1728,0.0,-1.2838,-1.2538,-1.2436,-1.2562,-1.2582,-1.233,-1.3144,-1.3872,-1.4067,-1.5215,-1.6193,-1.658,-1.7051,-1.6637,-1.4985,-1.4618,-1.3551,0.0,-1.141,-1.1957,-1.2851,-1.3146,-1.3078,-1.2624,-1.3759,-1.4078,-1.3441,-1.4411,-1.4933,-1.5115,-1.5324,-1.5304,-1.5115,-1.5331,-1.5444,-1.5444,-1.5444,-1.5444,-1.5444,-1.5411,-1.5064,-1.4449,-1.34,-1.3139,-1.3233,-1.2659,-1.2452,-1.2412,-1.2158,0.0,0.0,0.0,0.0,0.0,0.0,0.0,0.0,0.0,0.0,0.0,0.0,0.0,0.0,0.0,0.0,0.0,0.0,0.0,0.0,0.0,0.0,0.0,0.0,-1.8905,-1.9813,-2.0655,-2.0835,-2.1256,-2.2298,-2.2445,-2.2572,-2.2839,-2.2928,-2.2928,-2.2928,-2.2961,-2.2919,-2.2919,0.0,0.0,0.0,0.0,-2.3821,-2.3821,-2.3855,-2.3855,-2.3814,-2.3521,-2.3423,-2.3719,-2.6811,-2.8303,-2.8698,-3.1973,-3.3418,-3.3418,-3.3418,-3.3418,-3.3418,-3.3418,-3.3418,-3.3369,-3.2949,-3.2559,-3.2168,0.0,-1.2873,-1.2818,-1.2,-1.257,-1.2944,-1.2323,-1.3109,-1.3872,-1.4067,-1.4923,-1.5703,-1.6173,-1.6592,-1.6522,-1.5735,-1.4951,-1.382,0.0,0.0,-1.2786,-1.34,-1.3754,-1.4103,-1.4459,-1.3797,-1.3958,-1.4983,-1.4278,-1.453,-1.5665,-1.5718,-1.5712,-1.5665,-1.5718,-1.5698,-1.5698,-1.5698,-1.5698,-1.5678,-1.5491,-1.5184,-1.4874,-1.4355,-1.4068,-1.3874,-1.3473,-1.334,-1.3333,-1.328,-1.3146,-1.2933,-1.2819,-1.1686,0.0,0.0,0.0,0.0,0.0,0.0,0.0,0.0,0.0,0.0,0.0,0.0,0.0,0.0,0.0,0.0,0.0,0.0,0.0,-1.8637,-1.9693,-2.071,-2.136,-2.1784,-2.2164,-2.2392,-2.2632,-2.2799,-2.2921,-2.2928,-2.2928,-2.2928,-2.3093,-2.324,-2.324,-2.3521,-2.3688,-2.3688,-2.3968,-2.4122,-2.4122,-2.4349,-2.4349,-2.4115,0.0,0.0,-2.553,-2.7339,-2.8952,-3.0384,-3.2492,-3.3418,-3.3418,-3.3418,-3.3418,-3.3418,-3.3418,-3.3418,-3.3369,-3.2949,-3.2744,-3.2568,-1.3353,-1.3233,-1.299,-1.2485,-1.3066,-1.3377,-1.2697,-1.3439,-1.4095,-1.4096,-1.4855,-1.5576,-1.6046,-1.5911,-1.5514,-1.4809,-1.3511,0.0,0.0,-1.2851,-1.3307,-1.4006,-1.4369,-1.473,-1.517,-1.4617,-1.4706,-1.5611,-1.5042,-1.5113,-1.5784,-1.5784,-1.5784,-1.5784,-1.5784,-1.5784,-1.5784,-1.5784,-1.5784,-1.5764,-1.5671,-1.5524,-1.5331,-1.4743,-1.4429,-1.4269,-1.3968,-1.3868,-1.3868,-1.3868,-1.3868,-1.3814,-1.352,-1.2798,-1.1935,0.0,0.0,0.0,0.0,0.0,0.0,0.0,0.0,0.0,0.0,0.0,0.0,0.0,0.0,-1.6901,-1.7495,0.0,-1.9319,-1.992,-2.0635,-2.1316,-2.1904,-2.2231,-2.2472,-2.2619,-2.2772,-2.2928,-2.2928,-2.2928,-2.2928,-2.2928,-2.3153,-2.3327,-2.3327,-2.3748,-2.3988,-2.3988,-2.4269,-2.4422,-2.4422,-2.4563,-2.4563,-2.4416,-2.4122,-2.479,-2.6242,-2.7728,-2.9262,-3.0909,-3.2629,-3.3418,-3.3418,-3.3418,-3.3418,-3.3418,-3.3418,-3.3418,-3.3398,-3.3184,-3.3105,-3.2988,-1.3903,-1.3453,-1.3087,-1.3107,-1.3652,-1.3828,-1.3099,-1.3733,-1.4218,-1.4008,-1.466,-1.5264,-1.5583,-1.5114,-1.4378,0.0,0.0,0.0,0.0,-1.3093,-1.3687,-1.4569,-1.489,-1.5184,-1.5478,-1.5478,-1.5591,-1.5784,-1.5784,-1.5784,-1.5784,-1.5784,-1.5784,-1.5784,-1.5784,-1.5784,-1.5784,-1.5784,-1.5784,-1.5784,-1.5784,-1.5784,-1.5691,-1.4917,-1.4603,-1.4563,-1.4208,-1.4048,-1.4008,-1.4068,-1.4202,-1.4233,-1.382,-1.3646,-1.3338,-1.192,-1.1413,0.0,0.0,0.0,0.0,0.0,0.0,0.0,0.0,-1.4793,-1.5939,-1.664,-1.7595,-1.8464,-1.8998,-1.9813,-2.0555,-2.1029,-2.1456,-2.1884,-2.2352,-2.2465,-2.2592,-2.2901,-2.2928,-2.2928,-2.2928,-2.2928,-2.2886,-2.2946,-2.324,-2.344,-2.3494,-2.4001,-2.4289,-2.4289,-2.4516,-2.4636,-2.4636,-2.4636,-2.4777,-2.5132,-2.4904,-2.5712,-2.7516,-2.8662,-2.996,-3.1368,-3.2756,-3.3418,-3.3418,-3.3418,-3.3418,-3.3418,-3.3418,-3.3418,-3.3418,-3.3418,-3.3418,-3.3301,0.0,-1.3054,-1.3039,-1.3095,-1.3999,-1.4302,-1.3094,-1.3454,-1.3779,-1.3592,-1.3958,-1.416,-1.3918,-1.4128,-1.3765,-1.2485,0.0,0.0,-1.2782,-1.328,-1.3988,-1.4921,-1.5197,-1.5484,-1.5724,-1.5785,-1.5751,-1.5784,-1.5784,-1.5784,-1.5784,-1.5784,-1.5784,-1.5784,-1.5784,-1.5784,-1.5784,-1.5784,-1.5784,-1.5784,-1.5784,-1.5784,-1.5758,-1.5144,-1.4961,-1.4888,-1.4289,-1.3915,-1.3693,-1.4001,-1.3928,-1.3733,-1.3975,-1.3854,-1.3539,-1.3358,-1.2956,-1.2433,-1.1781,-1.1848,-1.2401,-1.3752,-1.4397,-1.5179,0.0,-1.7016,-1.732,-1.8397,-1.8945,-1.9319,-1.9646,-2.0421,-2.1029,-2.1096,-2.179,-2.2345,-2.2405,-2.2645,-2.2894,-2.2928,-2.2928,-2.2928,-2.2928,-2.2928,-2.2979,-2.3253,-2.3554,-2.3834,-2.4088,-2.4409,-2.4589,-2.4589,-2.4542,-2.4636,-2.4636,-2.4636,-2.5499,-2.7143,-2.686,-2.827,-3.129,-3.1167,-3.1838,-3.3092,-3.3292,-3.3418,-3.3418,-3.3418,-3.3418,-3.3418,-3.3418,-3.3418,-3.3418,-3.3418,-3.3418,-3.3301,0.0,-1.4239,-1.3898,-1.3567,-1.3611,-1.351,-1.2973,-1.3104,-1.3326,-1.3473,-1.3316,-1.3284,-1.3564,-1.3105,-1.2375,-1.1347,-1.1472,-1.1857,-1.2489,-1.3373,-1.4222,-1.4981,-1.5404,-1.5705,-1.5778,-1.5784,-1.5784,-1.5784,-1.5784,-1.5784,-1.5784,-1.5784,-1.5784,-1.5784,-1.5784,-1.5784,-1.5784,-1.5784,-1.5784,-1.5784,-1.5784,-1.5732,-1.5531,-1.5117,-1.4794,-1.4439,-1.3981,-1.3706,0.0,-1.3594,-1.3607,-1.3626,-1.3746,-1.37,-1.36,-1.36,-1.3587,-1.366,-1.406,-1.4385,-1.4884,-1.5851,-1.6406,-1.6954,-1.7689,-1.8023,-1.837,-1.9045,-1.9546,-1.996,-2.0254,-2.1029,-2.1617,-2.1617,-2.2211,-2.2679,-2.2679,-2.2786,-2.2928,-2.2928,-2.2928,-2.2928,-2.2928,-2.2928,-2.2993,-2.33,-2.3607,-2.3895,-2.4189,-2.4476,-2.4636,-2.4636,-2.4636,-2.5139,-2.6284,-2.6284,-2.7208,-2.9115,-2.8956,-2.9998,-3.1922,-3.1751,-3.2329,-3.3418,-3.3418,-3.3418,-3.3418,-3.3418,-3.3418,-3.3418,-3.3418,-3.3418,-3.3418,-3.3418,-3.3418,-3.3301,0.0,-1.4629,-1.4061,-1.3624,-1.319,-1.2905,-1.2905,-1.2905,-1.3027,-1.3447,-1.2973,-1.2752,-1.3055,-1.2118,-1.1226,-1.0649,-1.1015,-1.1557,-1.2144,-1.3227,-1.4142,-1.481,-1.5398,-1.5698,-1.5784,-1.5784,-1.5784,-1.5784,-1.5784,-1.5784,-1.5784,-1.5784,-1.5784,-1.5784,-1.5784,-1.5784,-1.5784,-1.5784,-1.5784,-1.5784,-1.5784,-1.5658,-1.5357,-1.4983,-1.4529,-1.4041,-1.362,-1.3373,0.0,-1.3033,-1.306,-1.3247,-1.3367,-1.3413,-1.3533,-1.3773,-1.4208,-1.4736,-1.5504,-1.6046,-1.6563,-1.7072,-1.7602,-1.8035,-1.8195,-1.8617,-1.9032,-1.9412,-1.982,-2.0227,-2.0608,-2.1329,-2.1891,-2.1971,-2.2478,-2.2928,-2.2928,-2.2928,-2.2928,-2.2928,-2.2928,-2.2928,-2.2928,-2.2928,-2.2993,-2.33,-2.3607,-2.3895,-2.4189,-2.4476,-2.4636,-2.4636,-2.5139,-2.6071,-2.7505,-2.7996,-2.9194,-3.1096,-3.1096,-3.1617,-3.2657,-3.2436,-3.2683,-3.3418,-3.3418,-3.3418,-3.3418,-3.3418,-3.3418,-3.3418,-3.3418,-3.3418,-3.3418,-3.3418,-3.3418,-3.3301,0.0,0.0,-1.2954,-1.2929,-1.2905,-1.2905,-1.2905,-1.2905,-1.3027,-1.3447,-1.3135,-1.2629,-1.1928,-1.1132,-1.0624,-1.0593,-1.0835,-1.1256,-1.1879,-1.2732,-1.3627,-1.4496,-1.5097,-1.5538,-1.5771,-1.5784,-1.5784,-1.5784,-1.5784,-1.5784,-1.5784,-1.5784,-1.5784,-1.5784,-1.5784,-1.5784,-1.5784,-1.5784,-1.5784,-1.5784,-1.5784,-1.5658,-1.5337,-1.4756,-1.4349,-1.4008,-1.3434,0.0,-1.2345,-1.2331,-1.2331,-1.2392,-1.2717,-1.2979,-1.3394,-1.4199,-1.5104,-1.5678,-1.5478,-1.6039,-1.6767,-1.7125,-1.7602,-1.8142,-1.8764,-1.8911,-1.9085,-1.9666,-1.98,-1.9987,-2.0568,-2.1226,-2.1722,-2.1937,-2.2478,-2.2928,-2.2928,-2.2928,-2.2928,-2.2928,-2.2928,-2.2928,-2.2928,-2.2928,-2.2993,-2.33,-2.3607,-2.3895,-2.4189,-2.4476,-2.4636,-2.4636,-2.643,-2.7433,-2.7505,-2.9329,-3.1166,-3.3101,-3.3101,-3.3653,-3.4602,-3.3774,-3.3384,-3.3418,-3.3418,-3.3418,-3.3418,-3.3418,-3.3418,-3.3418,-3.3418,-3.3418,-3.3418,-3.3418,-3.3418,-3.3301,0.0,0.0,0.0,-1.3662,-1.3477,-1.3301,-1.3301,-1.3057,-1.3027,-1.3447,-1.2968,0.0,0.0,0.0,0.0,0.0,-1.0861,-1.1162,-1.155,-1.2605,-1.3427,-1.3873,-1.4689,-1.5244,-1.5538,-1.5538,-1.5638,-1.5784,-1.5784,-1.5784,-1.5784,-1.5784,-1.5784,-1.5784,-1.5784,-1.5784,-1.5784,-1.5784,-1.5945,-1.6086,-1.5698,-1.5484,-1.5331,-1.4743,-1.3968,-1.3186,0.0,0.0,-1.2245,-1.185,-1.185,-1.21,-1.2395,-1.2697,-1.3159,-1.4202,-1.5003,-1.5691,-1.6422,-1.6914,-1.7455,-1.815,-1.8477,-1.8731,-1.9125,-1.9219,-1.9325,-1.972,-1.9646,-1.9693,-2.0274,-2.0702,-2.1129,-2.1623,-2.2184,-2.2639,-2.2901,-2.2928,-2.2928,-2.2928,-2.2928,-2.2928,-2.2928,-2.2928,0.0,-2.33,-2.3607,-2.3895,-2.4189,-2.4476,-2.5205,-2.6502,-2.7143,-2.8708,-3.1254,-3.1887,-3.3161,-3.5021,-3.4441,-3.4365,-3.4668,-3.3809,-3.3418,-3.3418,-3.3418,-3.3418,-3.3418,-3.3418,-3.3418,-3.3418,-3.3418,-3.3418,-3.3418,-3.3418,-3.3418,-3.334,0.0,0.0,0.0,0.0,0.0,0.0,0.0,0.0,0.0,0.0,0.0,0.0,0.0,0.0,0.0,0.0,0.0,-1.0962,-1.1249,-1.2055,-1.2792,-1.33,-1.3909,-1.4398,-1.4763,-1.477,-1.4917,-1.5204,-1.5311,-1.5418,-1.5518,-1.5518,-1.5518,-1.5518,-1.5518,-1.5518,-1.5518,-1.5518,-1.5631,-1.5812,-1.5277,-1.5023,-1.4863,-1.4275,-1.3507,0.0,0.0,0.0,-1.2044,-1.1349,-1.145,-1.194,-1.2091,-1.2824,-1.3749,-1.4576,-1.5398,-1.6213,-1.7125,-1.7648,-1.807,-1.8751,-1.9005,-1.9132,-1.9325,-1.9285,-1.9265,-1.9452,-1.9259,-1.9199,-1.9679,-2.0007,-2.0468,-2.1269,-2.1797,-2.2285,-2.2861,-2.2928,-2.2928,-2.2928,-2.2928,-2.2928,-2.2928,-2.2928,-2.2946,-2.3146,-2.3541,-2.3855,-2.4035,-2.5059,-2.6218,-2.7433,-2.8852,-3.0689,-3.317,-3.3882,-3.473,-3.5791,-3.5049,-3.4619,-3.4453,-3.374,-3.3418,-3.3418,-3.3418,-3.3418,-3.3418,-3.3418,-3.3418,-3.3418,-3.3418,-3.3418,-3.3418,-3.3418,-3.3418,-3.3359,0.0,0.0,0.0,0.0,0.0,0.0,0.0,0.0,0.0,0.0,0.0,0.0,0.0,0.0,0.0,0.0,0.0,0.0,-1.0955,0.0,0.0,-1.2683,-1.2757,-1.3019,-1.3567,-1.3593,-1.3746,-1.4088,-1.4362,-1.4643,-1.4961,-1.4961,-1.4961,-1.4961,-1.4961,-1.4961,-1.4961,-1.4961,-1.4975,-1.4955,-1.4603,-1.4315,-1.4021,-1.3434,0.0,0.0,0.0,-1.1913,-1.1779,-1.0955,-1.1276,-1.2027,-1.2053,-1.3427,-1.5095,-1.5371,-1.6315,-1.7273,-1.7542,-1.8063,-1.8584,-1.8871,-1.9158,-1.9424,-1.941,-1.9125,-1.8918,-1.8905,-1.8671,-1.8557,-1.8844,-1.9158,-1.9746,-2.0902,-2.1363,-2.1943,-2.2807,-2.2928,-2.2928,-2.2928,-2.2879,-2.2886,-2.2886,-2.303,-2.3112,-2.3112,0.0,-2.3846,-2.393,-2.6243,-2.7578,-2.7787,-3.1333,-3.324,-3.3309,-3.5089,-3.581,-3.5391,-3.4922,-3.4482,-3.4053,-3.3623,-3.3418,-3.3418,-3.3418,-3.3418,-3.3418,-3.3418,-3.3418,-3.3418,-3.3418,-3.3418,-3.3418,-3.3418,-3.3408,-3.333,0.0,0.0,0.0,0.0,0.0,0.0,0.0,0.0,0.0,0.0,0.0,0.0,0.0,0.0,0.0,0.0,0.0,0.0,-1.07,0.0,0.0,0.0,0.0,-1.2965,-1.3273,-1.3493,-1.3746,-1.4088,-1.4162,-1.4235,-1.4309,-1.4309,-1.4309,-1.4309,-1.4309,-1.4309,-1.4309,-1.4309,-1.4436,-1.4589,0.0,-1.3955,-1.4021,0.0,0.0,0.0,0.0,-1.2051,-1.1906,-1.1857,-1.2599,-1.3635,-1.4077,-1.4727,-1.5431,-1.6159,-1.674,-1.7367,-1.8056,-1.8531,-1.8885,-1.9178,-1.9312,-1.9305,-1.9085,-1.8978,-1.8865,-1.8644,-1.837,-1.8195,-1.8544,-1.9018,-1.9738,-2.0635,-2.1403,-2.2104,-2.2834,-2.2928,-2.2928,-2.2928,-2.3066,-2.3207,-2.3207,-2.4685,-2.5626,-2.5626,-2.4496,-2.4483,-2.6082,-2.6986,-2.878,-3.1685,-3.2674,-3.3882,-3.5236,-3.5733,-3.581,-3.5391,-3.4922,-3.4482,-3.4053,-3.3623,-3.3418,-3.3418,-3.3418,-3.3418,-3.3418,-3.3418,-3.3418,-3.3418,-3.3418,-3.3418,-3.3418,-3.3418,-3.3223,-3.2939,0.0,0.0,0.0,0.0,0.0,0.0,0.0,0.0,0.0,0.0,0.0,0.0,0.0,0.0,0.0,0.0,0.0,0.0,0.0,-1.0868,0.0,0.0,-1.1625,-1.1966,-1.2231,-1.2652,-1.2946,0.0,0.0,0.0,-1.3707,-1.3707,-1.3627,-1.3541,-1.3641,-1.3627,-1.3548,-1.3641,0.0,0.0,0.0,0.0,0.0,0.0,0.0,0.0,-1.2305,-1.2538,-1.2945,-1.3327,-1.3828,-1.4422,-1.5316,-1.5738,-1.6119,-1.6867,-1.7395,-1.7956,-1.8664,-1.9085,-1.9345,-1.9512,-1.9559,-1.9412,-1.8858,-1.8731,-1.8577,-1.8016,-1.7769,-1.7662,-1.7702,-1.8183,-1.8918,-1.994,-2.0842,-2.1704,-2.2552,-2.2779,-2.2928,-2.2928,-2.314,-2.3662,-2.4469,-2.5831,-2.703,-2.8012,-2.7064,-2.7007,-2.8225,-2.9359,-3.0972,-3.3101,-3.402,-3.4943,-3.6016,-3.584,-3.5527,-3.5078,-3.4639,-3.4199,-3.3779,-3.3535,-3.3418,-3.3418,0.0,-3.3418,-3.3418,-3.3418,-3.3418,-3.3418,-3.3418,-3.3418,-3.3418,-3.3418,-3.3154,-3.2793,0.0,0.0,0.0,0.0,0.0,0.0,0.0,0.0,0.0,0.0,-1.1668,0.0,0.0,0.0,0.0,0.0,0.0,0.0,0.0,0.0,0.0,0.0,-1.076,-1.0767,-1.0982,-1.1564,-1.1846,-1.1846,0.0,0.0,0.0,0.0,0.0,0.0,0.0,0.0,0.0,0.0,0.0,0.0,0.0,0.0,0.0,0.0,0.0,0.0,-1.2392,-1.3086,-1.4082,-1.4874,-1.4963,-1.4997,-1.61,-1.662,-1.6994,-1.7542,-1.8103,-1.8677,-1.9265,-1.9606,-1.98,-1.98,-1.9773,-1.9526,-1.8684,-1.843,-1.8136,-1.7373,-1.7172,-1.7065,-1.6754,-1.7221,-1.8023,-1.9236,-2.0134,-2.1129,-2.2258,-2.2672,-2.2928,-2.2928,-2.3341,-2.4351,-2.607,-2.6916,-2.8213,-3.0171,-3.0552,-3.0613,-3.0335,-3.2131,-3.3309,-3.3596,-3.5158,-3.5986,-3.5937,-3.5576,-3.5137,-3.4609,-3.4248,-3.3838,-3.3418,-3.3418,-3.3418,-3.3418,0.0,0.0,-3.3418,-3.3418,-3.3418,-3.3418,-3.3418,-3.3418,-3.3418,-3.3418,-3.3115,-3.2715,0.0,0.0,0.0,0.0,0.0,0.0,0.0,0.0,0.0,0.0,-1.1076,-1.0744,0.0,0.0,0.0,0.0,0.0,0.0,0.0,0.0,0.0,0.0,-1.0847,-1.0942,-1.0995,-1.1329,-1.1503,-1.1503,-1.1622,0.0,0.0,0.0,0.0,0.0,0.0,0.0,0.0,0.0,0.0,0.0,0.0,0.0,0.0,0.0,0.0,0.0,-1.2872,-1.3186,-1.3601,-1.5157,-1.5965,-1.6406,-1.6904,-1.7375,-1.7829,-1.823,-1.8577,-1.8978,-1.9566,-1.976,-1.98,-1.98,-1.9619,-1.9279,-1.8637,-1.8103,-1.7629,-1.7286,-1.7005,-1.6767,-1.6714,-1.7395,-1.827,-1.9212,-2.0307,-2.1356,-2.2285,-2.2672,-2.2928,-2.2928,-2.4472,-2.5778,-2.6446,-2.9537,-3.1788,-3.254,-3.4056,-3.4271,-3.2706,-3.2986,-3.3882,-3.5451,-3.5811,-3.585,-3.5508,-3.543,-3.499,-3.418,-3.4101,-3.3838,-3.3418,-3.3418,-3.3418,-3.3418,-3.3418,0.0,-3.3418,-3.3418,-3.3418,-3.3418,-3.3418,-3.3418,-3.3418,-3.3418,-3.2939,-3.2275,0.0,0.0,0.0,0.0,0.0,0.0,0.0,-1.2003,-1.1804,-1.1852,-1.1637,-1.1383,-1.1042,-1.0875,-1.076,0.0,0.0,0.0,0.0,0.0,0.0,0.0,0.0,-1.0868,-1.0989,-1.143,-1.1657,-1.1657,0.0,-1.1957,-1.1657,-1.1657,-1.1577,-1.1402,-1.1737,-1.1906,-1.1926,0.0,0.0,0.0,0.0,0.0,0.0,0.0,0.0,0.0,-1.324,-1.3534,-1.3841,-1.499,-1.5765,-1.638,-1.7134,-1.7682,-1.8049,-1.8404,-1.8804,-1.9285,-1.9867,-2.014,-2.0221,-2.0067,-1.9806,-1.9312,-1.8257,-1.7796,-1.7368,-1.662,-1.6473,-1.6433,-1.6279,-1.6981,-1.7769,-1.8343,-1.9432,-2.0561,-2.159,-2.1991,-2.2739,-2.4064,-2.5271,-2.6816,-2.8872,-3.1005,-3.2688,-3.3913,-3.4844,-3.5114,-3.4708,-3.4461,-3.4775,-3.5693,-3.5459,-3.5234,-3.5039,-3.4814,-3.4492,-3.4072,-3.3838,-3.3623,-3.3418,-3.3418,-3.3418,-3.3418,-3.3418,0.0,-3.3418,-3.3418,-3.3418,-3.3418,-3.3418,-3.3418,-3.3389,-3.3174,-3.2705,-3.2139,0.0,0.0,0.0,0.0,0.0,0.0,0.0,-1.1847,-1.173,-1.2325,-1.2458,-1.2291,-1.1764,-1.1396,-1.1069,0.0,0.0,0.0,0.0,0.0,0.0,0.0,0.0,-1.0821,-1.1082,0.0,0.0,-1.1906,-1.2301,0.0,0.0,0.0,0.0,0.0,-1.1737,-1.1906,-1.1926,-1.2178,0.0,0.0,0.0,-1.2576,0.0,0.0,0.0,0.0,0.0,-1.3713,-1.4008,-1.4767,-1.5224,-1.5745,-1.6854,-1.7549,-1.7996,-1.823,-1.8764,-1.9399,-1.998,-2.0307,-2.0448,-2.0274,-1.992,-1.9272,-1.7976,-1.7535,-1.7114,-1.6126,-1.6059,-1.6106,-1.5872,-1.6446,-1.7146,-1.7515,-1.8531,-1.9877,-2.1423,-2.1979,-2.3226,-2.5798,-2.6612,-2.8207,-3.1112,-3.2013,-3.3048,-3.4556,-3.4697,-3.5,-3.5693,-3.542,-3.5244,-3.5244,-3.4892,-3.4658,-3.457,-3.4238,-3.4023,-3.3935,-3.3584,-3.3418,-3.3418,-3.3418,-3.3418,-3.3418,-3.3418,0.0,0.0,-3.3418,-3.3418,-3.3418,-3.3418,-3.3418,-3.3369,-3.2949,-3.2529,-3.21,0.0,0.0,0.0,0.0,0.0,0.0,0.0,-1.1552,-1.2074,-1.267,-1.2953,-1.2999,-1.2697,-1.2161,-1.1598,0.0,0.0,0.0,0.0,0.0,0.0,0.0,0.0,0.0,0.0,0.0,0.0,-1.1906,-1.1657,0.0,0.0,0.0,0.0,0.0,0.0,-1.1906,-1.1926,-1.2178,0.0,0.0,0.0,0.0,0.0,0.0,0.0,0.0,0.0,-1.3453,-1.346,-1.4626,-1.4816,-1.4803,-1.5658,-1.674,-1.7629,-1.7655,-1.8283,-1.9092,-1.9679,-1.986,-1.994,-2.0174,-1.9613,-1.8831,-1.8102,-1.7375,-1.668,-1.6306,-1.6039,-1.5865,-1.5832,-1.6119,-1.667,-1.7448,-1.8357,-2.0034,-2.3103,-2.3978,-2.5195,-2.7686,-2.937,-3.0645,-3.1348,-3.2898,-3.4148,-3.4668,-3.4697,-3.4736,-3.4814,-3.4785,-3.4766,-3.4766,-3.4717,-3.4512,-3.4131,-3.4092,-3.3877,-3.3476,-3.3437,-3.3418,-3.3418,-3.3418,-3.3418,-3.3418,-3.3418,0.0,0.0,-3.3418,-3.3418,-3.3418,-3.3418,-3.3418,-3.3369,-3.2949,-3.2529,-3.21,0.0,0.0,0.0,0.0,0.0,0.0,-1.1553,-1.157,-1.2004,-1.314,-1.324,-1.3227,-1.328,-1.2363,-1.1378,-1.0424,0.0,0.0,0.0,0.0,0.0,0.0,0.0,0.0,0.0,0.0,-1.2098,-1.2435,-1.2465,0.0,0.0,0.0,0.0,0.0,0.0,-1.2,-1.2138,-1.2251,0.0,0.0,0.0,0.0,0.0,0.0,0.0,0.0,0.0,0.0,-1.3808,-1.4318,-1.4476,-1.4583,-1.493,-1.5605,-1.6406,-1.7166,-1.7956,-1.8791,-1.9379,-1.9793,-2.0047,-1.9987,-1.9446,-1.8718,-1.7943,-1.7215,-1.6573,-1.6099,-1.5912,-1.5784,-1.5784,-1.6072,-1.6496,-1.6967,-1.7508,-1.8577,-2.058,-2.1956,-2.3947,-2.6961,-2.8907,-3.071,-3.2426,-3.328,-3.375,-3.3916,-3.3935,0.0,-3.3935,-3.418,-3.4326,-3.4326,-3.4062,-3.3848,-3.3682,-3.3682,-3.3594,-3.3418,-3.3418,-3.3418,-3.3418,-3.3418,-3.3418,-3.3418,-3.3418,0.0,0.0,-3.3418,-3.3418,-3.3418,-3.3418,-3.3271,-3.2998,-3.2578,-3.2148,-3.1719,0.0,0.0,0.0,0.0,0.0,-1.1482,-1.16,-1.1577,-1.1964,-1.306,-1.2942,-1.2795,-1.2947,-1.2151,-1.1117,-1.0014,-1.0408,0.0,0.0,0.0,0.0,0.0,0.0,0.0,0.0,0.0,-1.2703,-1.3179,-1.3273,-1.316,0.0,0.0,-1.2498,-1.2167,0.0,0.0,0.0,0.0,0.0,0.0,0.0,0.0,0.0,0.0,0.0,0.0,0.0,0.0,0.0,0.0,0.0,-1.4396,-1.4396,-1.4736,-1.5364,-1.6596,-1.7514,-1.8243,-1.8925,-1.9406,-1.9686,-1.9573,-1.9098,-1.845,-1.7642,-1.7068,-1.654,-1.5904,-1.5784,-1.5784,-1.5784,-1.5999,-1.6266,-1.6647,-1.6954,-1.7799,-1.9577,-2.1363,-2.3707,-2.6924,-2.8939,-3.084,-3.2844,-3.3271,-3.3418,-3.3418,-3.3418,0.0,-3.3418,-3.3711,-3.3877,-3.3877,-3.3584,-3.3418,-3.3418,-3.3418,-3.3418,-3.3418,-3.3418,-3.3418,-3.3418,-3.3418,-3.3418,-3.3418,-3.3418,0.0,0.0,-3.3418,-3.3418,-3.3418,-3.3418,-3.3164,-3.2744,-3.2324,-3.1894,-3.1455,0.0,0.0,0.0,0.0,0.0,0.0,-1.0955,-1.149,-1.2013,-1.2278,-1.1964,-1.1662,-1.153,-1.1347,-1.0858,-0.9989,-0.9408,0.0,0.0,0.0,0.0,0.0,0.0,0.0,0.0,0.0,-1.3219,-1.4075,-1.374,-1.3746,-1.4062,-1.3726,-1.3307,-1.2777,0.0,0.0,0.0,0.0,0.0,0.0,0.0,0.0,0.0,0.0,0.0,0.0,0.0,0.0,0.0,0.0,0.0,0.0,0.0,-1.4295,-1.4763,-1.5939,-1.675,-1.7414,-1.8257,-1.8504,-1.8577,-1.8865,-1.8435,-1.7896,-1.7347,-1.6921,-1.654,-1.5904,-1.5784,-1.5784,-1.5784,-1.5784,-1.5977,-1.6613,-1.6954,-1.8328,-2.1508,-2.3505,-2.5637,-2.8282,-3.0322,-3.1689,-3.2139,-3.293,-3.3418,-3.3418,-3.3418,0.0,-3.3418,-3.3428,-3.3428,-3.3428,-3.3418,-3.3418,-3.3418,-3.3418,-3.3418,-3.3418,-3.3418,-3.3418,-3.3418,-3.3418,-3.3418,0.0,0.0,0.0,0.0,-3.3418,-3.3418,-3.3418,-3.3418,-3.3164,-3.2744,-3.2324,-3.1894,-3.1455,0.0,0.0,0.0,0.0,0.0,0.0,0.0,-1.1015,-1.133,-1.2184,-1.1428,-1.1021,-1.1563,-1.0981,-1.0405,-1.0151,-1.0827,0.0,0.0,0.0,0.0,0.0,0.0,0.0,0.0,-1.2991,-1.34,-1.4088,-1.4195,-1.4289,-1.4376,-1.4088,-1.3734,-1.3347,-1.3153,-1.3013,0.0,0.0,0.0,0.0,0.0,0.0,0.0,0.0,0.0,0.0,0.0,0.0,0.0,0.0,0.0,0.0,0.0,0.0,0.0,-1.5196,-1.6079,-1.6907,-1.7194,-1.7722,-1.811,-1.7789,-1.7569,-1.7328,-1.6934,-1.662,-1.6299,-1.5912,-1.5784,-1.5784,-1.5784,-1.5784,-1.6416,-1.8253,-1.7782,-1.8487,-2.2091,-2.3822,-2.56,-2.8029,-3.0962,-3.2871,0.0,0.0,-3.3418,-3.3418,0.0,0.0,-3.3418,-3.3418,-3.3418,-3.3418,-3.3418,-3.3418,-3.3418,-3.3418,-3.3418,-3.3418,-3.3418,-3.3418,-3.3418,-3.3418,-3.3418,0.0,0.0,0.0,0.0,-3.3418,-3.3418,-3.3389,-3.3105,-3.2734,-3.2314,-3.1885,-3.1455,-3.1064,0.0,0.0,0.0,0.0,0.0,0.0,0.0,-1.0801,-1.1055,-1.1857,-1.1067,-1.0666,-1.1353,-1.0914,-1.0667,-1.0841,-1.1928,0.0,0.0,0.0,0.0,0.0,0.0,0.0,-1.2951,-1.322,-1.3774,-1.4583,-1.4763,-1.4903,-1.501,-1.483,-1.4409,-1.376,-1.3621,-1.342,0.0,0.0,0.0,0.0,0.0,0.0,0.0,0.0,0.0,0.0,0.0,0.0,0.0,0.0,0.0,0.0,0.0,0.0,0.0,0.0,-1.5391,-1.6119,-1.6453,-1.6947,-1.7315,-1.7048,-1.7032,-1.6907,-1.6607,-1.64,-1.6186,-1.5892,-1.5784,-1.5784,-1.5784,-1.5784,-1.6553,-1.8771,-1.8369,-1.8942,-2.2364,-2.4289,-2.6319,-2.9095,-3.1527,0.0,0.0,-3.333,-3.3418,0.0,0.0,0.0,-3.3418,-3.3418,-3.3418,-3.3418,-3.3418,-3.3418,-3.3418,-3.3418,-3.3418,-3.3418,-3.3418,-3.3418,-3.3418,-3.3418,-3.3418,0.0,0.0,0.0,0.0,-3.3252,-3.3184,-3.3144,-3.2725,-3.2295,-3.1894,-3.1621,-3.125,-3.0889,0.0,0.0,0.0,0.0,0.0,0.0,0.0,-1.0821,-1.1069,-1.1349,-1.0732,-1.0425,-1.0941,-1.1072,-1.1333,-1.184,0.0,0.0,0.0,0.0,0.0,0.0,0.0,0.0,-1.3233,-1.3487,-1.4193,-1.5364,-1.5404,-1.5578,-1.5865,-1.5865,-1.5257,-1.4175,-1.4162,-1.3821,0.0,0.0,0.0,0.0,0.0,0.0,0.0,0.0,0.0,0.0,0.0,0.0,0.0,0.0,0.0,0.0,0.0,0.0,0.0,0.0,0.0,0.0,0.0,-1.6179,-1.6315,-1.6493,-1.6567,-1.6506,-1.6239,-1.6228,0.0,-1.5852,-1.5839,-1.59,-1.5994,-1.6042,-1.6758,-1.875,-1.9034,-1.9892,-2.2689,-2.5136,-2.7884,-3.1179,-3.1992,0.0,-3.2803,-3.3193,-3.3418,0.0,0.0,0.0,-3.3418,-3.3418,-3.3418,-3.3418,-3.3418,-3.3418,-3.3418,-3.3418,-3.3418,-3.3418,-3.3418,-3.3418,-3.3418,-3.3389,-3.3379,0.0,0.0,0.0,0.0,-3.291,-3.2754,-3.2715,-3.2285,-3.1875,-3.1514,-3.1484,-3.123,-3.0889,0.0,0.0,0.0,0.0,0.0,0.0,0.0,0.0,0.0,0.0,-0.9927,-0.9366,-1.0706,-1.0612,-1.0809,0.0,0.0,0.0,0.0,0.0,0.0,0.0,0.0,0.0,-1.3493,-1.3834,-1.4335,-1.5109,-1.5504,-1.5879,-1.6166,-1.6166,-1.5785,-1.5084,-1.4901,-1.4429,0.0,0.0,0.0,0.0,0.0,0.0,0.0,0.0,0.0,0.0,-1.3626,-1.3706,0.0,0.0,0.0,0.0,0.0,0.0,0.0,0.0,-1.4242,-1.4389,-1.4816,0.0,-1.5511,-1.513,-1.5204,-1.5403,0.0,-1.5316,-1.5363,-1.5464,-1.625,-1.7023,-1.7629,-1.8462,-1.9899,-2.2284,-2.1996,-2.2663,-2.6067,-2.842,-3.047,-3.2253,-3.2871,-3.3164,-3.3262,-3.3359,0.0,0.0,0.0,-3.3418,-3.3418,-3.3418,-3.3418,-3.3418,-3.3418,-3.3418,-3.3418,-3.3418,-3.3418,-3.3418,-3.3418,-3.3418,-3.3408,-3.3086,0.0,0.0,0.0,0.0,-3.2451,-3.2353,-3.2314,-3.2275,-3.1836,-3.1611,-3.1475,-3.1152,-3.0976,-3.0889,0.0,0.0,0.0,0.0,0.0,0.0,0.0,0.0,0.0,0.0,0.0,-1.0213,-1.1372,-1.1537,0.0,0.0,0.0,0.0,0.0,0.0,0.0,0.0,0.0,-1.344,-1.36,-1.4068,-1.4636,-1.5357,-1.5812,-1.6253,-1.6723,-1.6583,-1.6086,-1.5371,-1.481,-1.4432,0.0,0.0,0.0,0.0,0.0,0.0,0.0,0.0,0.0,0.0,-1.35,-1.36,0.0,-1.4142,-1.4282,-1.4282,0.0,0.0,0.0,0.0,-1.4088,-1.4122,-1.4282,-1.485,-1.5351,-1.517,-1.5244,-1.5357,-1.5357,-1.5202,-1.5055,-1.5209,-1.6266,-1.7409,-1.7989,-1.9224,-2.0852,-2.3259,-2.3297,-2.4333,-2.8023,-3.0059,-3.1582,-3.2666,-3.3164,-3.3418,0.0,0.0,0.0,0.0,0.0,-3.3418,-3.3418,-3.3418,-3.3418,-3.3418,-3.3418,-3.3418,-3.3418,-3.3418,-3.3418,-3.3418,-3.3223,-3.3135,-3.3115,-3.2695,-3.251,0.0,0.0,0.0,-3.2148,-3.1953,-3.1875,-3.1826,-3.1396,-3.123,-3.1201,-3.0976,-3.0889,-3.0889,0.0,0.0,0.0,0.0,0.0,0.0,0.0,0.0,0.0,0.0,0.0,0.0,0.0,0.0,0.0,0.0,0.0,0.0,0.0,0.0,0.0,0.0,-1.3666,-1.3693,-1.3733,-1.4309,-1.4977,-1.5718,-1.6152,-1.6643,-1.7132,-1.6914,-1.6346,-1.5424,-1.4589,-1.4168,0.0,0.0,0.0,0.0,0.0,0.0,0.0,0.0,0.0,0.0,0.0,0.0,0.0,-1.4159,-1.4416,-1.4456,-1.4456,0.0,0.0,0.0,0.0,0.0,-1.4195,-1.483,-1.5491,-1.5598,-1.5651,-1.5799,-1.5933,-1.5448,-1.5111,-1.5542,-1.663,-1.7705,-1.8489,-1.9865,-2.1483,-2.3459,-2.4223,-2.5769,-2.9215,-3.0732,-3.1816,-3.2607,-3.3125,0.0,0.0,0.0,0.0,0.0,0.0,-3.3232,-3.3232,-3.3232,-3.3232,-3.3232,-3.3232,-3.3232,-3.3232,-3.3301,-3.3301,-3.3223,-3.2871,-3.2695,-3.2685,-3.2266,-3.207,0.0,0.0,0.0,-3.1943,-3.1572,-3.1426,-3.1387,-3.1025,-3.0889,-3.0889,-3.0889,-3.0889,-3.0889,0.0,0.0,0.0,0.0,0.0,0.0,0.0,0.0,0.0,0.0,0.0,0.0,0.0,0.0,0.0,0.0,0.0,0.0,0.0,0.0,0.0,-1.4021,-1.4021,-1.4135,-1.4382,-1.4723,-1.5084,-1.5464,-1.6253,-1.6687,-1.678,-1.7235,-1.6847,-1.5684,-1.5104,-1.4599,-1.4088,-1.4088,0.0,0.0,0.0,0.0,0.0,0.0,0.0,0.0,0.0,0.0,0.0,-1.3626,-1.3948,-1.4155,-1.4155,0.0,0.0,0.0,0.0,0.0,-1.474,-1.5284,-1.5591,-1.4852,-1.5097,-1.5661,-1.6453,-1.5803,-1.5645,-1.7979,-1.8653,-1.9437,-2.1518,-2.3222,-2.466,-2.5739,-2.6882,-2.8193,-2.9893,-3.0918,-3.1709,-3.2207,0.0,0.0,0.0,0.0,0.0,0.0,0.0,-3.2363,-3.2363,-3.2363,-3.2363,-3.2363,-3.2363,-3.2363,-3.2363,-3.2715,-3.2715,-3.2363,-3.2295,-3.2266,-3.2307,-3.1816,-3.1621,0.0,0.0,-3.1084,-3.1084,-3.1016,-3.0986,-3.0986,-3.0918,-3.0889,-3.0889,-3.0889,-3.0889,-3.0889,0.0,0.0,0.0,0.0,0.0,0.0,0.0,0.0,0.0,0.0,0.0,0.0,0.0,0.0,0.0,0.0,0.0,0.0,0.0,0.0,-1.4155,-1.4315,-1.4322,-1.4382,-1.4516,-1.5117,-1.5578,-1.5872,-1.6593,-1.7027,-1.7174,-1.6974,-1.642,-1.5571,-1.4983,-1.4489,-1.4088,-1.4088,-1.4088,0.0,0.0,0.0,0.0,0.0,0.0,0.0,0.0,0.0,0.0,0.0,-1.3975,-1.4115,-1.4269,0.0,0.0,0.0,0.0,0.0,-1.4459,-1.503,-1.5677,-1.5977,-1.6643,-1.7512,-1.869,-1.8284,-1.802,-1.9253,-2.0183,-2.1145,-2.246,-2.4193,-2.5859,-2.7197,-2.8301,-2.9268,-3.0078,-3.0957,-3.1592,0.0,0.0,0.0,0.0,0.0,0.0,0.0,0.0,0.0,-3.2229,-3.2229,-3.2229,-3.2229,-3.2229,-3.206,-3.1816,-3.2012,-3.2129,-3.2229,-3.1934,-3.1816,-3.1807,-3.1377,-3.1182,-3.1172,0.0,-3.0889,-3.0889,-3.0889,-3.0889,-3.0889,-3.0889,-3.0889,-3.0889,-3.0889,-3.0889,-3.0889,0.0,0.0,0.0,0.0,0.0,0.0,0.0,0.0,0.0,0.0,0.0,0.0,0.0,0.0,0.0,0.0,0.0,0.0,0.0,-1.3915,-1.4215,-1.4502,-1.4589,-1.4689,-1.4823,-1.5438,-1.6005,-1.6373,-1.6945,-1.7347,-1.7569,-1.6827,-1.6126,-1.5478,-1.4957,-1.4489,-1.4088,-1.4088,-1.4088,0.0,0.0,0.0,0.0,0.0,0.0,0.0,0.0,0.0,0.0,0.0,0.0,0.0,0.0,0.0,0.0,-1.4155,-1.4041,-1.4028,-1.4235,-1.473,-1.5641,-1.7417,-1.8138,-1.8954,-2.0925,-2.061,-2.0192,-2.1072,-2.1912,-2.2666,-2.3353,-2.4851,-2.6562,-2.8184,-2.9072,-2.9756,-3.0283,-3.1025,-3.1514,-3.1514,-3.1904,0.0,0.0,0.0,0.0,0.0,0.0,0.0,-3.1925,-3.1925,-3.1925,-3.1925,-3.1925,-3.1709,-3.1377,-3.1367,-3.1543,-3.1865,-3.1533,-3.1367,-3.1357,-3.1035,-3.0889,-3.0889,-3.0889,-3.0889,-3.0889,-3.0889,-3.0889,-3.0889,-3.0889,-3.0889,-3.0889,-3.0889,-3.0889,-3.0889,0.0,0.0,0.0,0.0,0.0,0.0,0.0,0.0,0.0,0.0,0.0,0.0,0.0,0.0,0.0,0.0,0.0,0.0,0.0,-1.3323,-1.4215,-1.4502,-1.4783,-1.5184,-1.5678,-1.5751,-1.6106,-1.6673,-1.7045,-1.7347,-1.7575,-1.7293,-1.6627,-1.5738,-1.5471,-1.487,-1.4088,-1.4088,-1.4088,-1.4088,-1.4088,0.0,0.0,0.0,0.0,0.0,0.0,0.0,0.0,0.0,0.0,0.0,0.0,0.0,-1.4115,-1.4095,-1.3895,-1.3813,-1.4676,-1.4743,-1.5337,-1.8531,-1.8457,-1.8527,-2.2206,-2.1514,-2.1084,-2.4554,-2.416,-2.3692,-2.5208,-2.6298,-2.7353,-2.8662,-2.9258,-2.9863,-3.0723,0.0,-3.1514,-3.1514,0.0,0.0,0.0,0.0,0.0,0.0,0.0,0.0,-3.0986,-3.0986,-3.0986,-3.0986,-3.0986,-3.0967,-3.0937,-3.0937,-3.0957,-3.0986,-3.0947,-3.0937,-3.0937,-3.0898,-3.0889,-3.0889,-3.0889,-3.0889,-3.0889,-3.0889,-3.0889,-3.0889,-3.0889,-3.0889,-3.0889,-3.0889,-3.0889,-3.0889,0.0,0.0,0.0,0.0,0.0,0.0,0.0,0.0,0.0,0.0,0.0,0.0,0.0,0.0,0.0,0.0,0.0,0.0,0.0,-1.3494,-1.3979,-1.4496,-1.4629,-1.4963,-1.5545,-1.6092,-1.6573,-1.7032,-1.7326,-1.7434,-1.736,-1.7014,-1.6406,-1.5545,-1.5257,-1.4843,-1.4342,-1.4162,-1.4195,-1.4342,-1.4162,0.0,0.0,0.0,0.0,0.0,0.0,0.0,0.0,0.0,-1.312,-1.3353,-1.3507,-1.3794,-1.4048,-1.3868,-1.4124,-1.4471,-1.421,-1.5512,-1.7282,-1.8721,-1.9692,-2.1,-2.3757,-2.3992,-2.4139,-2.6109,-2.6037,-2.5769,-2.6394,-2.7021,-2.7666,-2.8408,-2.9336,-3.0078,-3.041,-3.084,0.0,0.0,0.0,0.0,0.0,0.0,0.0,0.0,0.0,0.0,0.0,-3.0889,-3.0889,-3.0889,-3.0889,-3.0889,-3.0889,-3.0889,-3.0889,-3.0889,-3.0889,-3.0889,-3.0889,-3.0889,-3.0732,-3.0459,-3.0459,-3.0312,-3.0068,-3.0068,-3.0225,-3.0488,-3.0781,-3.0889,-3.0859,-3.0566,-3.0644,-3.085,0.0,0.0,0.0,0.0,0.0,0.0,0.0,0.0,0.0,0.0,0.0,0.0,0.0,0.0,0.0,0.0,0.0,0.0,-1.3333,-1.3413,-1.3726,-1.4355,-1.4382,-1.4703,-1.5384,-1.6079,-1.662,-1.7058,-1.7353,-1.7347,-1.7052,-1.6707,-1.6246,-1.5651,-1.5223,-1.485,-1.4636,-1.4249,-1.4202,-1.4362,-1.4168,-1.3788,0.0,0.0,0.0,0.0,0.0,0.0,0.0,0.0,-1.2924,-1.3093,-1.3287,-1.3621,-1.3943,-1.4056,-1.4701,-1.5253,-1.4854,-1.6521,-1.8513,-1.9256,-2.0669,-2.2437,-2.4773,-2.5518,-2.5966,-2.7021,-2.7109,-2.7012,-2.7012,-2.7256,-2.7646,0.0,-2.9141,-2.9893,-3.0156,0.0,0.0,0.0,0.0,0.0,0.0,0.0,0.0,0.0,0.0,0.0,0.0,-3.0547,-3.0469,0.0,-3.0469,-3.0469,-3.0469,-3.0469,-3.0469,-3.0469,-3.0469,-3.0625,-3.0889,-3.0742,-3.0498,-3.0185,-3.0059,-2.9834,-2.9626,-2.9626,-2.9736,-3.0029,-3.0351,-3.0469,-3.0439,-3.0117,-3.0195,-3.043,0.0,0.0,0.0,0.0,0.0,0.0,0.0,0.0,0.0,0.0,0.0,0.0,0.0,0.0,0.0,0.0,0.0,0.0,-1.2784,-1.3033,-1.3474,-1.4055,-1.4082,-1.4489,-1.5364,-1.5671,-1.6112,-1.6707,-1.7052,-1.7038,-1.6693,-1.6406,-1.6315,-1.6268,-1.5397,-1.5008,-1.4968,-1.4335,-1.4088,-1.4088,-1.4088,-1.3908,-1.3573,0.0,0.0,0.0,0.0,0.0,0.0,0.0,-1.2784,-1.2891,-1.3407,-1.36,-1.3804,-1.4783,-1.5482,-1.6101,-1.7041,-1.7763,-1.8641,-2.0474,-2.1216,-2.228,-2.5044,-2.5693,-2.6113,-2.7454,-2.7324,-2.7021,-2.7021,-2.7021,-2.7295,-2.8144,-2.8643,-2.9219,0.0,0.0,0.0,0.0,0.0,0.0,0.0,0.0,0.0,0.0,0.0,0.0,0.0,-2.9795,0.0,0.0,-2.9626,-2.9626,-2.9626,-2.9626,-2.9626,-2.9626,-2.9626,-3.0029,-3.0859,-3.04,-3.0185,-3.0166,-2.9746,-2.956,-2.9616,-2.956,-2.956,-2.956,-2.9626,-2.9626,-2.9626,-2.956,-2.9626,-2.9626,0.0,0.0,0.0,0.0,0.0,0.0,0.0,0.0,0.0,0.0,0.0,0.0,0.0,0.0,0.0,0.0,0.0,0.0,-1.277,-1.2871,-1.3186,-1.3706,-1.3733,-1.3995,-1.4462,-1.4963,-1.5705,-1.6707,-1.6587,-1.6536,-1.6393,-1.6099,-1.5745,-1.539,-1.5129,-1.485,-1.4629,-1.4249,-1.4208,-1.4369,-1.4168,-1.3908,-1.3573,0.0,0.0,0.0,0.0,0.0,0.0,0.0,0.0,0.0,-1.2991,-1.3447,-1.4075,-1.458,-1.5487,-1.6365,-1.6507,-1.8378,-2.0354,-2.0512,-2.2539,-2.466,-2.5518,-2.5977,-2.6562,-2.7842,-2.7773,-2.7471,-2.7471,-2.7471,-2.7559,-2.7812,-2.8447,-2.9004,0.0,0.0,0.0,0.0,0.0,0.0,0.0,0.0,0.0,0.0,0.0,0.0,0.0,0.0,0.0,0.0,-2.9626,-2.9626,-2.9626,-2.9626,-2.9626,-2.9626,-2.9626,-2.9763,-2.9951,-2.9824,-2.959,-2.9287,-2.917,-2.8945,-2.8691,-2.8984,-2.9111,-2.9141,-2.9453,-2.9626,-2.9531,-2.9228,-2.9307,-2.9531,0.0,0.0,0.0,0.0,0.0,0.0,0.0,0.0,0.0,0.0,-0.6911,-0.7555,0.0,0.0,0.0,0.0,0.0,0.0,0.0,-1.2603,-1.2839,-1.3407,-1.3427,-1.3721,-1.4249,-1.4767,-1.5357,-1.6012,-1.5952,-1.5913,-1.5799,-1.5685,-1.5531,-1.5304,-1.519,-1.497,-1.4669,-1.4262,-1.4122,-1.4113,-1.3981,-1.376,-1.3573,0.0,0.0,0.0,0.0,0.0,0.0,0.0,0.0,0.0,-1.275,-1.3427,-1.4321,-1.5224,-1.6578,-1.7869,-1.8545,-2.0413,-2.2256,-2.2252,-2.3873,-2.5605,-2.6074,-2.6582,-2.7168,-2.8096,-2.7959,-2.7767,-2.7933,-2.7836,0.0,-2.7891,-2.834,-2.873,0.0,0.0,0.0,0.0,0.0,0.0,0.0,0.0,0.0,0.0,0.0,0.0,0.0,0.0,0.0,0.0,-2.9062,-2.9062,-2.9062,-2.9062,-2.9062,-2.9062,-2.9062,-2.9062,-2.9072,-2.9238,-2.917,-2.8906,-2.874,-2.8525,-2.831,-2.8564,-2.8672,-2.8701,-2.8955,-2.9062,-2.9033,-2.8769,-2.8838,-2.9023,0.0,0.0,0.0,0.0,0.0,0.0,0.0,0.0,0.0,0.0,-0.7783,-0.8199,0.0,0.0,0.0,0.0,0.0,0.0,0.0,-1.2305,-1.2572,-1.3186,-1.3287,-1.3714,-1.4543,-1.4796,-1.4968,-1.4968,-1.5184,-1.5197,-1.5015,-1.5237,-1.5498,-1.5738,-1.5444,-1.5157,-1.4894,-1.4255,-1.3854,-1.356,-1.356,-1.356,-1.3527,-1.3247,0.0,0.0,0.0,0.0,0.0,0.0,0.0,0.0,-1.269,-1.3476,-1.4577,-1.626,-1.8099,-1.9939,-2.1816,-2.2988,-2.3887,-2.4832,-2.5145,-2.5508,-2.6738,-2.7324,-2.7734,-2.8193,-2.7988,-2.7894,-2.8223,-2.7978,-2.7851,-2.8232,-2.8291,0.0,0.0,0.0,0.0,0.0,0.0,0.0,0.0,0.0,0.0,0.0,0.0,0.0,0.0,0.0,0.0,-2.8291,-2.8252,-2.8232,-2.8232,-2.8193,-2.8174,0.0,-2.8174,-2.8174,-2.8193,-2.8652,-2.8867,-2.8838,-2.8457,-2.8291,-2.8291,-2.8291,-2.8291,-2.8291,-2.8291,-2.8291,-2.8291,-2.8291,-2.8291,-2.8291,0.0,0.0,0.0,0.0,0.0,0.0,0.0,0.0,0.0,0.0,0.0,0.0,0.0,0.0,0.0,0.0,0.0,0.0,0.0,-1.2305,-1.2572,-1.3186,-1.3874,-1.4436,-1.4863,-1.4703,-1.4616,-1.4616,-1.4676,-1.4796,-1.5008,-1.5075,-1.5135,-1.5182,-1.4843,-1.4549,-1.4235,-1.3647,-1.336,-1.3307,-1.3307,-1.3307,-1.3247,-1.2705,-1.2636,0.0,0.0,0.0,0.0,0.0,0.0,0.0,-1.269,-1.3586,-1.4705,-1.5627,-1.7308,-1.919,-2.0601,-2.1865,-2.3076,-2.4258,-2.5332,-2.6269,-2.6875,-2.709,-2.7373,-2.8135,-2.8223,-2.8184,-2.8271,-2.8223,-2.8193,-2.8281,0.0,0.0,0.0,0.0,0.0,0.0,0.0,0.0,0.0,0.0,0.0,0.0,0.0,0.0,0.0,0.0,0.0,-2.8291,-2.7969,-2.7855,-2.7855,-2.7461,-2.7285,0.0,-2.7285,-2.7285,-2.7314,-2.8086,-2.8428,-2.8418,-2.833,-2.8291,-2.8291,-2.8291,-2.8291,-2.8291,-2.8291,-2.8291,-2.8291,-2.8291,-2.8291,-2.8291,0.0,0.0,0.0,0.0,0.0,0.0,0.0,0.0,0.0,0.0,0.0,0.0,0.0,0.0,0.0,0.0,0.0,0.0,0.0,-1.2225,-1.2572,-1.3186,-1.4048,-1.4462,-1.4335,-1.4322,-1.4242,-1.4059,-1.3919,-1.4115,-1.4593,-1.4874,-1.5008,-1.5001,-1.4803,-1.4489,-1.4048,-1.346,-1.3126,-1.3025,-1.3025,-1.2906,-1.2739,-1.2425,-1.2225,-1.2078,-1.177,0.0,0.0,0.0,0.0,0.0,0.0,0.0,-1.5059,-1.6074,-1.7762,-1.9548,-2.0857,-2.2139,-2.3437,-2.468,-2.5566,-2.6191,-2.6621,-2.6709,-2.6894,-2.7549,-2.7851,-2.7988,-2.7988,-2.8154,-2.8291,0.0,0.0,0.0,0.0,0.0,0.0,0.0,0.0,0.0,0.0,0.0,0.0,0.0,0.0,0.0,0.0,-2.7793,-2.7685,-2.7685,-2.7471,-2.7353,-2.7353,-2.7129,-2.7012,-2.7012,-2.7012,-2.7012,-2.7031,-2.748,-2.7685,-2.7685,-2.7685,-2.7685,-2.7695,-2.791,-2.7988,-2.8018,-2.8213,-2.8291,-2.8291,-2.8291,-2.8291,-2.8291,0.0,0.0,0.0,0.0,0.0,0.0,0.0,0.0,0.0,0.0,0.0,0.0,0.0,0.0,0.0,0.0,0.0,0.0,0.0,-1.2111,-1.2572,-1.3186,-1.3955,-1.4126,-1.3686,-1.3908,-1.3895,-1.36,-1.3313,-1.3534,-1.4175,-1.4663,-1.4961,-1.5008,-1.4955,-1.4563,-1.3968,-1.3327,-1.2872,-1.263,-1.2576,-1.2409,-1.2144,-1.2091,-1.1804,-1.1382,-1.1335,-1.1543,-1.1832,-1.1886,0.0,0.0,0.0,0.0,-1.5452,-1.6563,-1.8132,-1.9844,-2.1006,-2.248,-2.3994,-2.5303,-2.5635,-2.5781,-2.6191,-2.6279,-2.6377,-2.6719,-2.7197,-2.7559,-2.7559,-2.79,-2.8184,0.0,0.0,0.0,0.0,0.0,0.0,0.0,0.0,0.0,0.0,0.0,0.0,0.0,0.0,0.0,-2.7559,-2.7207,-2.7012,-2.7012,-2.6943,-2.6904,-2.6904,-2.6836,-2.6797,-2.6797,-2.6797,-2.6797,-2.6797,-2.6797,-2.6875,-2.7012,-2.7012,-2.7012,-2.7041,-2.7402,-2.7559,-2.7588,-2.7939,-2.8125,-2.8184,-2.8184,-2.8232,-2.8291,0.0,0.0,0.0,0.0,0.0,0.0,0.0,0.0,0.0,0.0,-1.019,-1.1027,-1.1641,-1.1828,0.0,0.0,0.0,0.0,-1.1483,0.0,0.0,-1.3186,-1.3527,-1.3806,-1.4021,-1.3773,-1.364,-1.36,-1.3313,-1.3641,-1.4462,-1.4543,-1.4716,-1.4995,-1.4696,-1.4213,-1.3606,-1.2786,-1.2251,-1.2,-1.1703,-1.1542,-1.1475,-1.1263,-1.1276,-1.1362,-1.1142,-1.1236,-1.1523,-1.1819,-1.2214,0.0,0.0,0.0,-1.5328,-1.5513,-1.6857,-1.8389,-1.889,-2.1113,-2.3599,-2.4844,-2.5449,-2.5703,-2.5762,-2.5771,-2.5791,-2.5849,-2.6543,-2.71,-2.71,-2.7461,0.0,0.0,0.0,0.0,0.0,0.0,0.0,0.0,0.0,0.0,0.0,0.0,0.0,0.0,0.0,0.0,-2.71,-2.7041,-2.7012,-2.7012,-2.666,-2.6475,-2.6475,-2.6094,-2.5859,-2.5859,-2.5859,-2.5859,-2.5859,-2.5859,-2.6318,-2.7012,-2.7012,-2.7012,-2.7021,-2.708,-2.71,-2.7109,-2.7168,-2.7412,-2.7806,-2.7806,-2.7978,-2.8291,0.0,0.0,0.0,0.0,0.0,0.0,0.0,0.0,0.0,0.0,0.0,-1.1638,-1.1635,-1.1623,0.0,0.0,0.0,0.0,-1.1382,-1.1824,0.0,-1.2685,-1.2986,-1.312,-1.3086,-1.2959,-1.2854,-1.2854,-1.2394,-1.3086,-1.4763,-1.4429,-1.4783,-1.5718,-1.5044,-1.4536,-1.4013,-1.2826,-1.2138,-1.1879,-1.1543,-1.1588,-1.185,-1.1229,-1.1276,-1.1597,-1.1008,-1.0935,-1.1202,-1.1336,-1.1975,-1.2811,-1.3447,0.0,0.0,0.0,-1.6664,-1.8008,-1.9611,-2.124,-2.2871,-2.4675,-2.5215,-2.543,-2.5635,-2.5693,-2.5693,-2.5693,-2.5986,-2.6367,-2.6621,0.0,0.0,0.0,0.0,0.0,0.0,0.0,0.0,0.0,0.0,0.0,0.0,0.0,0.0,0.0,0.0,-2.666,-2.666,-2.6426,-2.6249,-2.6249,-2.6123,-2.6025,-2.6025,-2.5781,-2.5693,-2.5693,-2.5693,-2.5693,-2.5693,-2.5693,-2.5888,-2.6249,-2.6249,-2.6249,-2.6269,-2.6562,-2.666,-2.6689,-2.6924,-2.7139,-2.7305,-2.7305,-2.7422,-2.7617,0.0,0.0,0.0,0.0,0.0,0.0,0.0,0.0,0.0,0.0,0.0,-1.1997,-1.1449,0.0,0.0,0.0,0.0,0.0,-1.1296,0.0,0.0,0.0,0.0,-1.2455,-1.2198,-1.2191,-1.2151,-1.2078,-1.1955,-1.29,-1.4888,-1.4729,-1.5395,-1.6567,-1.5732,-1.4963,-1.4329,-1.3146,-1.2478,-1.2214,-1.1797,-1.1911,-1.2251,-1.183,-1.1891,-1.2141,-1.133,-1.1129,-1.1196,-1.1042,-1.1803,-1.2897,-1.3696,-1.4553,0.0,0.0,0.0,-1.7373,-1.9639,-2.0732,-2.1709,-2.3795,-2.4636,-2.5019,-2.5469,-2.5606,-2.5693,0.0,-2.5693,-2.5791,0.0,0.0,0.0,0.0,0.0,0.0,0.0,0.0,0.0,0.0,0.0,0.0,0.0,0.0,0.0,0.0,0.0,-2.6221,-2.6221,-2.5869,-2.5693,-2.5693,-2.5693,-2.5693,-2.5693,-2.5693,-2.5693,-2.5693,-2.5693,-2.5693,-2.5693,-2.5693,-2.5693,-2.5693,-2.5693,-2.5693,-2.5713,-2.6084,-2.6221,-2.626,-2.6572,-2.6758,-2.6855,-2.6855,-2.6924,-2.706,0.0,0.0,0.0,0.0,0.0,0.0,0.0,0.0,0.0,0.0,0.0,0.0,-1.1422,-1.1389,-1.1189,-1.064,-1.0606,0.0,0.0,0.0,0.0,0.0,0.0,0.0,-1.1926,-1.1926,-1.1757,-1.1435,-1.2618,-1.3672,-1.4549,-1.5732,-1.6709,-1.7475,-1.6593,-1.547,-1.4088,-1.3686,-1.3367,-1.3093,-1.2492,-1.2278,-1.2392,-1.316,-1.3313,-1.306,-1.2438,-1.2044,-1.1772,-1.1176,-1.1887,-1.3032,-1.3337,-1.4351,-1.541,0.0,0.0,0.0,-1.7207,-1.8486,-1.9844,-2.1611,-2.3262,-2.456,-2.5047,-2.543,-2.5693,-2.5693,-2.5693,-2.5693,0.0,0.0,0.0,0.0,0.0,0.0,0.0,0.0,0.0,0.0,0.0,0.0,0.0,0.0,0.0,0.0,0.0,-2.5723,-2.5723,-2.5703,-2.5693,-2.5693,-2.5693,-2.5693,-2.5693,-2.5693,-2.5693,-2.5693,-2.5693,-2.5693,-2.5693,-2.5693,-2.5693,-2.5693,-2.5693,-2.5693,-2.5693,-2.5713,-2.5723,-2.5723,-2.5742,-2.6055,-2.6426,-2.6426,-2.667,-2.7021,0.0,0.0,0.0,0.0,0.0,0.0,0.0,0.0,0.0,0.0,0.0,0.0,0.0,-1.1149,-1.0989,-1.0626,-1.0593,0.0,0.0,0.0,0.0,0.0,0.0,0.0,-1.1343,-1.149,-1.1443,-1.1149,-1.1426,-1.2287,-1.3681,-1.4145,-1.4809,-1.5625,-1.5879,-1.5591,-1.4856,-1.3814,-1.3193,-1.2931,-1.271,-1.2971,-1.344,-1.3387,-1.3647,-1.3948,-1.3166,-1.2565,-1.2111,-1.1904,-1.2109,-1.2577,-1.3211,-1.3969,-1.4717,-1.5264,-1.5615,-1.6085,-1.7132,-1.791,-1.8877,-2.0644,-2.1924,-2.2969,-2.3672,-2.459,-2.5303,-2.5303,-2.5537,0.0,0.0,0.0,0.0,0.0,0.0,0.0,0.0,0.0,0.0,0.0,0.0,0.0,0.0,0.0,0.0,0.0,0.0,0.0,-2.5693,-2.5693,-2.5693,-2.5693,-2.5693,-2.5693,-2.5693,-2.5693,-2.5693,-2.5693,-2.5693,-2.5693,-2.5693,-2.5693,-2.5693,-2.5693,-2.5693,-2.5693,-2.5693,-2.5693,-2.5693,-2.5693,-2.5693,-2.5781,-2.5967,-2.5967,-2.6015,-2.6191,0.0,0.0,0.0,0.0,0.0,0.0,0.0,0.0,-1.1472,-1.0779,0.0,0.0,0.0,0.0,-1.1162,-1.0774,-1.0646,-1.0593,-1.0593,-1.0593,0.0,0.0,0.0,0.0,-1.1002,-1.1242,-1.1236,-1.0881,-1.1102,-1.1799,-1.2906,-1.3349,-1.3899,-1.4529,-1.4823,-1.5064,-1.5184,-1.4215,-1.3621,-1.338,-1.338,-1.3742,-1.4242,-1.4349,-1.4623,-1.4839,-1.4295,-1.3641,-1.3019,-1.2819,-1.2689,-1.277,-1.3483,-1.4115,-1.4717,-1.5235,-1.5615,-1.5997,-1.6562,-1.7139,-1.7988,-1.9744,-2.0684,-2.1562,-2.2852,-2.3809,-2.4502,-2.4785,-2.5205,0.0,0.0,0.0,0.0,0.0,0.0,0.0,0.0,0.0,0.0,0.0,0.0,0.0,0.0,0.0,0.0,0.0,0.0,0.0,-2.5693,-2.5693,-2.5693,-2.5693,-2.5693,-2.5693,-2.5693,-2.5693,-2.5693,-2.5693,-2.5693,-2.5693,-2.5693,-2.5693,-2.5693,-2.5693,-2.5693,-2.5693,-2.5693,-2.5693,-2.5693,-2.5693,-2.5693,-2.5693,-2.5693,-2.5693,-2.5693,-2.5732,0.0,0.0,0.0,0.0,0.0,0.0,0.0,0.0,-1.1121,-1.0245,0.0,0.0,0.0,0.0,0.0,-1.1069,-1.0774,-1.0606,-1.0606,-1.0593,-1.072,-1.0969,0.0,0.0,-1.0982,-1.1263,-1.1136,-1.0593,-1.1764,-1.2321,-1.2308,-1.3525,-1.4234,-1.4416,-1.3574,-1.3834,-1.4941,-1.4934,-1.4736,-1.4502,-1.4489,-1.4466,-1.4665,-1.6132,-1.6326,-1.5804,-1.5804,-1.5251,-1.4469,-1.3846,-1.3595,-1.3578,-1.4111,-1.4801,-1.543,-1.5391,-1.543,-1.542,0.0,0.0,0.0,-1.8779,-1.9521,-2.04,-2.2582,0.0,-2.3247,-2.418,-2.4697,0.0,0.0,0.0,0.0,0.0,0.0,0.0,0.0,0.0,0.0,0.0,0.0,0.0,0.0,0.0,0.0,0.0,0.0,-2.5693,-2.5693,-2.5693,-2.5693,-2.5693,-2.5693,-2.5693,-2.5693,-2.5693,-2.5693,-2.5693,-2.5693,-2.5693,-2.5693,-2.5693,-2.5693,-2.5693,-2.5693,-2.5693,-2.5693,-2.5693,-2.5693,-2.5693,-2.5693,-2.5693,-2.5693,-2.5693,-2.5693,-2.5693,0.0,0.0,0.0,0.0,0.0,-1.1163,-1.1003,-1.142,-1.16,0.0,0.0,0.0,-1.1459,-1.155,-1.157,-1.1658,-1.1162,-1.0875,-1.0875,-1.0707,-1.0626,-1.0707,-1.0955,-1.0982,-1.072,-1.0962,-1.0929,-1.0593,-1.0921,-1.1202,-1.1363,-1.1929,-1.2447,-1.2913,-1.2924,-1.3092,-1.3387,-1.3133,-1.3487,-1.4168,-1.3741,-1.4292,-1.5438,-1.5685,-1.6052,-1.6466,-1.6466,-1.6032,-1.5411,-1.5037,-1.4309,-1.3606,-1.3924,-1.4879,-1.585,-1.5508,-1.5839,-1.62,-1.5586,0.0,0.0,0.0,0.0,0.0,0.0,0.0,-2.123,-2.2734,0.0,0.0,0.0,0.0,0.0,0.0,0.0,0.0,0.0,0.0,0.0,0.0,0.0,0.0,0.0,0.0,0.0,0.0,-2.5693,-2.5693,-2.5693,-2.5693,-2.5693,-2.5693,-2.5693,-2.5693,-2.5693,-2.5693,-2.5693,-2.5693,-2.5693,-2.5693,-2.5693,-2.5693,-2.5693,-2.5693,-2.5693,-2.5693,-2.5693,-2.5693,-2.5693,-2.5693,-2.5693,-2.5693,-2.5693,-2.5693,-2.5693,-2.5693,0.0,0.0,-1.0854,-1.1073,-1.1407,-1.1471,-1.0977,-1.1565,-1.184,0.0,0.0,0.0,-1.1726,-1.1904,-1.1944,-1.1913,-1.1363,-1.0995,-1.0995,-1.0754,-1.0593,-1.0593,-1.0868,-1.0915,-1.0774,-1.0909,-1.0909,-1.0774,-1.0646,-1.068,-1.0847,-1.0982,-1.1309,-1.1757,-1.1846,-1.2007,-1.2201,-1.1785,-1.2368,-1.3594,-1.3828,-1.4556,-1.5518,-1.5959,-1.6366,-1.674,-1.6981,-1.6693,-1.6186,-1.6146,-1.5715,-1.5069,-1.4474,-1.5497,-1.6719,-1.5918,-1.6309,-1.6855,-1.6122,-1.6307,-1.6726,-1.6846,0.0,0.0,-1.8633,-1.9114,0.0,0.0,0.0,0.0,0.0,0.0,0.0,0.0,0.0,0.0,0.0,0.0,0.0,0.0,0.0,0.0,0.0,0.0,0.0,-2.5693,-2.5693,-2.5693,-2.5693,-2.5693,-2.5606,-2.5459,-2.5586,-2.5508,-2.5148,-2.5371,-2.5361,-2.5138,-2.5371,-2.5459,-2.5469,-2.5606,-2.5693,-2.5693,-2.5693,-2.5693,-2.5693,-2.5693,-2.5693,-2.5693,-2.5693,-2.5693,-2.5693,-2.5693,-2.5693,-2.5693,0.0,0.0,-1.1521,-1.0119,-1.1492,-1.2165,-1.0199,-1.1214,-1.1901,0.0,-1.1463,-1.1956,-1.2271,-1.2607,-1.2589,-1.21,-1.1416,-1.1042,-1.1042,-1.0774,-1.0593,-1.0593,-1.0841,-1.0949,-1.0949,-1.0949,-1.0949,-1.0949,-1.072,-1.0593,-1.0593,-1.0593,-1.0727,-1.0935,-1.0707,-1.0842,-1.1262,-1.0881,-1.1464,-1.2804,-1.4164,-1.4867,-1.5249,-1.6556,-1.6921,-1.6867,-1.7395,-1.7248,-1.6827,-1.7045,-1.7221,-1.7074,-1.5466,-1.6387,-1.7789,-1.666,-1.6936,-1.749,-1.697,-1.6872,-1.7058,-1.7715,-1.733,0.0,-1.8613,-1.8672,-1.8861,0.0,0.0,0.0,0.0,0.0,0.0,0.0,0.0,0.0,0.0,0.0,0.0,0.0,0.0,0.0,0.0,-2.5693,-2.5693,-2.5693,-2.5645,-2.5615,-2.5615,-2.5567,-2.541,-2.501,-2.5381,-2.5167,-2.4424,-2.4805,-2.4805,-2.4424,-2.4805,-2.5047,-2.501,-2.541,-2.5567,-2.5615,-2.5615,-2.5645,-2.5693,-2.5693,-2.5693,-2.5693,-2.5693,-2.5693,-2.5693,-2.5693,-2.5693,-2.5693,-1.0705,-1.0458,-1.0387,-1.1871,-1.251,-1.271,-1.2516,-1.2012,-1.1575,-1.1378,-1.1488,-1.1756,-1.2271,-1.2607,-1.2837,-1.2939,-1.1964,-1.1309,-1.1309,-1.0888,-1.0593,-1.0593,-1.0646,-1.0673,-1.0673,-1.0673,-1.0673,-1.0673,-1.062,-1.0593,-1.0593,-1.0593,-1.062,-1.0673,-1.062,-1.0653,-1.0787,-1.1109,-1.1563,-1.212,-1.2612,-1.3961,-1.5691,-1.5979,-1.664,-1.7428,-1.7542,-1.7508,-1.7315,-1.671,-1.6685,-1.6823,-1.6349,-1.7043,-1.8008,-1.7725,-1.8242,-1.875,-1.7969,-1.7974,-1.8022,-1.7165,-1.734,0.0,-1.6887,-1.6904,-1.7369,0.0,0.0,0.0,0.0,0.0,0.0,0.0,0.0,0.0,0.0,0.0,0.0,0.0,0.0,0.0,0.0,-2.5693,-2.5693,-2.5693,-2.54,-2.5195,-2.5195,-2.4863,-2.4639,-2.4551,-2.4629,-2.459,-2.4414,-2.4502,-2.4502,-2.4414,-2.4502,-2.4541,-2.4551,-2.4639,-2.4863,-2.5195,-2.5195,-2.54,-2.5693,-2.5693,-2.5693,-2.5693,-2.5693,-2.5693,-2.5693,-2.5693,-2.5693,-2.5693,-0.9722,-0.959,-0.9555,-1.0353,-1.1455,-1.1994,-1.1197,-1.143,-1.1554,-1.1219,-1.1807,-1.2391,-1.2725,-1.3039,-1.314,-1.2993,-1.2164,-1.1583,-1.1402,-1.1015,-1.0747,-1.06,-1.0593,-1.066,-1.0807,-1.0667,-1.0667,-1.0807,-1.0667,-1.0593,-1.0593,-1.0593,-1.0667,-1.0801,-1.066,-1.0673,-1.0821,-1.0929,-1.1249,-1.175,-1.2933,-1.4208,-1.5478,-1.6206,-1.6854,-1.742,-1.742,-1.7268,-1.7007,-1.6132,-1.6675,-1.7551,-1.6831,-1.7987,-1.9521,-1.8843,-1.9258,-1.9774,-1.8887,-1.8799,-1.8705,-1.7629,-1.7678,0.0,0.0,-1.6875,-1.7067,-1.8379,-1.7978,-1.7842,0.0,0.0,0.0,0.0,0.0,0.0,0.0,0.0,0.0,0.0,0.0,0.0,0.0,-2.5031,-2.5031,-2.5031,-2.4873,-2.4746,-2.4746,-2.4531,-2.4316,-2.4111,-2.4307,-2.4209,-2.3744,-2.3994,-2.3994,-2.3734,-2.4004,-2.4102,-2.4111,-2.4316,-2.4531,-2.4756,-2.5018,-2.5195,-2.542,-2.5644,-2.5693,-2.5693,-2.5693,-2.5693,-2.5693,-2.5693,-2.5693,-2.5693,-0.8706,-0.8854,-0.8799,-0.8462,-0.9996,-1.0778,-0.9309,-1.0302,-1.1097,-1.0823,-1.1854,-1.2862,-1.3491,-1.3661,-1.3581,-1.3246,-1.2516,-1.1964,-1.1748,-1.1336,-1.0969,-1.0767,-1.0653,-1.0727,-1.0982,-1.074,-1.0707,-1.0909,-1.0707,-1.0593,-1.0593,-1.0593,-1.072,-1.0935,-1.0754,-1.0807,-1.0982,-1.0834,-1.1129,-1.1888,-1.3613,-1.4496,-1.4908,-1.6321,-1.6898,-1.6965,-1.7072,-1.6907,-1.663,-1.6028,-1.6961,-1.8237,-1.7465,-1.9008,-2.0889,-1.9874,-2.0184,-2.0674,-1.9803,-1.96,-1.9409,-1.8392,-1.8296,-1.8369,0.0,0.0,0.0,-1.8545,-1.7978,0.0,0.0,0.0,0.0,0.0,0.0,0.0,0.0,0.0,0.0,0.0,0.0,0.0,0.0,-2.3975,-2.4062,-2.4394,-2.4111,-2.4043,-2.4287,-2.4219,-2.4014,-2.3682,-2.3994,-2.3793,-2.3101,-2.3486,-2.3486,-2.3101,-2.3496,-2.3662,-2.3682,-2.4014,-2.4219,-2.4316,-2.4668,-2.4959,-2.5145,-2.5459,-2.5615,-2.5693,-2.5693,-2.5693,-2.5693,-2.5693,-2.5693,-2.5693,-0.7318,-0.7508,-0.7879,-0.8981,-0.9493,-0.9755,-0.9769,-0.9223,-0.9262,-1.0631,-1.111,-1.2198,-1.4522,-1.4329,-1.4215,-1.472,-1.3487,-1.279,-1.2993,-1.1984,-1.1329,-1.1295,-1.0835,-1.0727,-1.0982,-1.074,-1.0606,-1.064,-1.0606,-1.0593,-1.0593,-1.0593,-1.0613,-1.0646,-1.0842,-1.0962,-1.1009,-1.1229,-1.1977,-1.3053,-1.35,-1.3726,-1.388,-1.5137,-1.5758,-1.6046,-1.6567,-1.6734,-1.6756,-1.7141,-1.7416,-1.7781,-1.8776,-1.9865,-2.0695,-2.0506,-2.1085,-2.1543,-2.0703,-2.0713,-2.0586,-1.8951,-1.9416,-1.9715,-1.7393,0.0,-1.7705,-1.7106,0.0,0.0,0.0,0.0,0.0,0.0,0.0,0.0,0.0,0.0,0.0,0.0,0.0,0.0,0.0,0.0,-2.2793,-2.4307,-2.3027,-2.2666,-2.3799,-2.3452,-2.3218,-2.3169,-2.3218,-2.3198,-2.3091,-2.314,-2.314,-2.3091,-2.314,-2.3169,-2.3169,-2.3218,-2.3452,-2.3867,-2.3906,-2.4411,-2.5116,-2.5174,-2.5381,-2.5693,-2.5693,-2.5693,-2.5693,-2.5693,-2.5693,-2.5693,-0.6198,-0.6373,-0.663,-0.7278,-0.7995,-0.8383,-0.8002,-0.848,-0.9426,-1.0777,-1.1709,-1.2999,-1.4995,-1.4689,-1.4509,-1.4975,-1.4278,-1.3614,-1.324,-1.2572,-1.2074,-1.1697,-1.1156,-1.0868,-1.0989,-1.074,-1.0593,-1.0593,-1.0593,-1.0593,-1.0593,-1.0593,-1.0774,-1.1069,-1.1189,-1.143,-1.175,-1.1703,-1.1971,-1.2472,-1.2939,-1.3126,-1.3327,-1.5197,-1.5979,-1.6119,-1.6366,-1.6339,-1.6154,0.0,-1.6876,0.0,-1.7895,-1.9311,-2.0887,-2.0382,-2.085,-2.1367,-2.0772,-2.0889,-2.0889,-1.958,-1.9527,-1.9311,-1.7389,-1.7108,-1.734,0.0,0.0,0.0,0.0,0.0,0.0,0.0,-1.7158,0.0,0.0,0.0,0.0,0.0,0.0,0.0,0.0,0.0,0.0,0.0,0.0,-2.1689,-2.2978,-2.2871,-2.2847,-2.3091,-2.3091,-2.3091,-2.3091,-2.3091,-2.3091,-2.3091,-2.3091,-2.3091,-2.3091,-2.3091,-2.3198,-2.3428,-2.3682,-2.3994,-2.4346,-2.459,-2.4951,-2.5352,-2.5352,-2.5508,-2.5693,-2.5693,-2.5693,-2.5693,-0.5539,-0.561,-0.5715,-0.5827,-0.6592,-0.7011,-0.6516,-0.7647,-0.9208,-1.0924,-1.1995,-1.3353,-1.5444,-1.5184,-1.5064,-1.5571,-1.5144,-1.4609,-1.3968,-1.334,-1.2837,-1.2371,-1.1557,-1.1149,-1.1229,-1.0901,-1.0673,-1.0593,-1.0593,-1.0593,-1.0593,-1.0593,-1.0814,-1.1196,-1.1436,-1.1784,-1.2184,-1.2254,-1.2378,-1.2632,-1.3099,-1.3414,-1.3802,-1.5363,-1.6012,-1.6152,-1.6152,-1.6012,-1.5752,-1.5602,-1.6558,0.0,-1.7311,-1.8727,-2.0444,-1.9982,-2.0315,-2.0816,-2.0635,0.0,0.0,0.0,0.0,0.0,0.0,0.0,0.0,0.0,0.0,0.0,0.0,0.0,-1.6843,-1.6716,0.0,-1.6502,0.0,0.0,0.0,0.0,0.0,0.0,0.0,0.0,0.0,0.0,0.0,0.0,-2.208,-2.2116,-2.2363,-2.2783,-2.275,-2.2808,-2.2925,-2.2925,-2.2984,-2.3091,-2.3091,-2.3091,-2.3091,-2.3091,-2.3091,-2.311,-2.3477,-2.3682,-2.3809,-2.4121,-2.4502,-2.4893,-2.4893,-2.5166,-2.5566,-2.5645,-2.5693,-2.5693,-0.5402,-0.5405,-0.5412,-0.5416,-0.5573,-0.5823,-0.6238,-0.6566,-0.7881,-1.0913,-1.1458,-1.2741,-1.5952,-1.5972,-1.6139,-1.7052,-1.6286,-1.5724,-1.5698,-1.4366,-1.3567,-1.3547,-1.2155,-1.155,-1.1873,-1.1276,-1.0874,-1.0593,-1.0593,-1.0593,-1.0593,-1.0593,-1.06,-1.066,-1.1511,-1.1899,-1.1973,-1.2799,-1.3661,-1.4436,-1.4456,-1.497,-1.5678,0.0,-1.5351,-1.5798,-1.5798,0.0,0.0,-1.668,-1.6965,0.0,0.0,0.0,0.0,0.0,0.0,0.0,0.0,0.0,0.0,-1.9056,0.0,0.0,0.0,0.0,-1.8325,0.0,0.0,0.0,-1.8154,-1.7656,-1.7227,-1.6775,-1.6697,0.0,0.0,0.0,0.0,0.0,0.0,0.0,0.0,0.0,0.0,0.0,0.0,0.0,-2.1122,-2.1239,-2.1475,-2.1914,-2.1924,-2.2119,-2.2529,-2.2539,-2.2691,-2.3091,-2.3091,-2.3091,-2.3091,-2.3091,-2.3091,-2.3091,-2.311,-2.3398,-2.3789,-2.3809,-2.4062,-2.4443,-2.4443,-2.4707,-2.5184,-2.5576,-2.5693,-2.5693,-0.5395,-0.5395,-0.5395,-0.5395,-0.5436,-0.5658,-0.6214,-0.7278,-0.8927,-1.1365,-1.2327,-1.3815,-1.6576,-1.6587,-1.6607,-1.7159,-1.6924,-1.654,-1.6146,-1.5117,-1.4516,-1.4516,-1.3093,-1.2382,-1.2482,-1.1906,-1.137,-1.0842,-1.0842,-1.078,-1.0593,-1.0593,-1.0693,-1.0908,-1.1598,-1.212,-1.2522,-1.2993,-1.3453,-1.3933,-1.4319,-1.4998,-1.5758,0.0,0.0,-1.5784,-1.5784,-1.5784,0.0,-1.6121,-1.6575,-1.6957,-1.667,-1.7796,-1.9124,-1.8701,-1.9445,0.0,0.0,0.0,-2.124,-1.9502,0.0,0.0,0.0,0.0,0.0,0.0,0.0,0.0,-1.8164,-1.7666,-1.7334,-1.7187,-1.667,-1.6212,0.0,0.0,0.0,0.0,0.0,0.0,0.0,0.0,0.0,0.0,-1.8242,0.0,0.0,-2.0635,-2.0996,-2.1405,-2.1738,-2.1953,-2.21,-2.21,-2.2168,-2.2314,-2.2598,-2.2682,-2.2691,-2.2974,-2.3091,-2.3091,-2.3091,-2.3179,-2.3359,-2.3359,-2.3613,-2.4004,-2.4004,-2.4258,-2.4687,-2.5137,-2.5478,-2.5693,-0.5405,-0.5395,-0.5395,-0.5395,-0.5528,-0.5801,-0.63,-0.7869,-0.9681,-1.1641,-1.2981,-1.468,-1.6939,-1.7032,-1.6981,-1.7333,-1.7353,-1.7058,-1.6368,-1.5792,-1.5336,-1.5022,-1.399,-1.332,-1.3105,-1.2592,-1.1951,-1.1149,-1.1149,-1.0949,-1.0593,-1.0593,-1.0693,-1.0901,-1.1598,-1.2174,-1.267,-1.3253,-1.3687,-1.3953,-1.4482,-1.5077,0.0,0.0,-1.5738,-1.5784,0.0,-1.5784,-1.5784,-1.5784,-1.6434,-1.7141,-1.6457,-1.7578,-1.91,-1.8735,-1.9347,-2.0231,-2.0528,-2.1026,0.0,-1.9648,-1.9404,0.0,-1.7705,0.0,-1.8486,0.0,0.0,0.0,0.0,-1.7871,-1.7383,-1.7383,-1.6672,-1.6036,0.0,-1.5586,0.0,0.0,0.0,-1.6865,0.0,0.0,-1.6904,-1.7857,-1.7428,0.0,0.0,0.0,-2.0312,-2.0713,-2.1191,-2.1494,-2.165,-2.165,-2.1728,-2.1894,-2.2158,-2.2295,-2.2295,-2.2568,-2.273,-2.2877,-2.2877,-2.2955,-2.3091,-2.3091,-2.3257,-2.3555,-2.3555,-2.3818,-2.4268,-2.4853,-2.5352,-2.5693,-0.5436,-0.5419,-0.5429,-0.5436,-0.5745,-0.6122,-0.6477,-0.8243,-1.0126,-1.1739,-1.3471,-1.5301,-1.705,-1.7226,-1.7333,-1.7555,-1.7582,-1.7228,-1.6442,-1.6362,-1.5973,-1.5135,-1.4736,-1.4252,-1.368,-1.3353,-1.2621,-1.1455,-1.1415,-1.1136,-1.0613,-1.06,-1.0593,-1.0626,-1.1484,-1.2004,-1.2378,-1.3527,-1.4215,-1.4543,-1.4863,-1.515,-1.5398,-1.5411,-1.5585,-1.5784,-1.5784,-1.5784,-1.5784,-1.5784,-1.6622,-1.7539,-1.7045,-1.7776,-1.8822,-1.9219,-1.9402,-1.9629,-2.039,-2.0615,-2.0439,-1.9597,0.0,0.0,0.0,0.0,-1.9551,0.0,0.0,0.0,0.0,-1.8262,-1.7465,-1.7425,-1.6672,-1.5938,-1.5469,-1.541,-1.542,0.0,0.0,0.0,-1.659,-1.6279,-1.6221,-1.6638,-1.6668,-1.7048,0.0,0.0,-1.9424,-1.9873,-2.0303,-2.0752,-2.1161,-2.1161,-2.1406,-2.1826,-2.1846,-2.1855,-2.1855,-2.1875,-2.2119,-2.251,-2.251,-2.2711,-2.3091,-2.3091,-2.3091,-2.3091,-2.3091,-2.3408,-2.3896,-2.4803,-2.5332,-2.5654,-0.5538,-0.5708,-0.5895,-0.6047,-0.5935,-0.6037,-0.6563,-0.8824,-1.0914,-1.2104,-1.4526,-1.6454,-1.7408,-1.7521,-1.7554,-1.7575,-1.7582,-1.7488,-1.7261,-1.684,-1.6493,-1.6266,-1.5558,-1.4997,-1.4636,-1.3908,-1.316,-1.2449,-1.175,-1.1236,-1.0875,-1.0693,-1.0593,-1.0613,-1.1055,-1.1623,-1.2338,-1.2904,-1.3641,-1.4563,-1.5077,-1.5331,-1.5424,0.0,-1.5718,-1.5784,-1.5784,-1.5784,-1.5784,-1.5784,-1.6015,-1.6236,-1.5888,-1.6967,-1.8335,-1.823,-1.9214,-2.034,-2.0547,-2.081,-2.0928,-2.0419,-2.0078,-1.9717,0.0,0.0,0.0,0.0,0.0,0.0,0.0,0.0,-1.8115,-1.749,-1.6672,-1.5938,-1.5469,-1.541,-1.5527,-1.5889,0.0,0.0,0.0,-1.5644,-1.5762,-1.6232,-1.6261,0.0,0.0,0.0,0.0,-1.9424,-1.9863,-2.0293,-2.0732,-2.0732,-2.0791,-2.0948,-2.124,-2.1356,-2.1375,-2.1738,-2.2119,-2.251,-2.251,-2.2711,-2.3091,-2.3091,-2.3091,-2.3091,-2.3091,-2.3408,-2.3896,-2.4803,-2.5184,-2.5426,-0.5783,-0.6074,-0.6352,-0.6437,-0.6366,-0.643,-0.6831,-0.9264,-1.1326,-1.2025,-1.4759,-1.6827,-1.7161,-1.7428,-1.7582,-1.7582,-1.7582,-1.7475,-1.7215,-1.7128,-1.686,-1.6346,-1.6092,-1.5712,-1.5209,-1.4543,-1.3801,-1.2985,-1.2184,-1.153,-1.0982,-1.0727,-1.0593,-1.0606,-1.0894,-1.141,-1.2158,-1.2846,-1.3527,-1.4133,-1.4636,-1.4903,0.0,-1.5337,-1.5531,-1.5645,-1.5645,-1.5718,-1.5784,-1.5784,-1.6061,-1.6348,-1.6046,-1.6911,-1.8033,-1.7672,-1.8313,-1.9274,-1.9756,-2.0063,-2.0315,-2.0547,-2.0527,-2.0332,-1.9707,-1.9893,-2.001,0.0,0.0,0.0,0.0,0.0,0.0,-1.7005,-1.6418,-1.5938,-1.5469,-1.541,-1.5498,-1.5752,-1.5557,0.0,0.0,0.0,-1.5508,-1.5762,0.0,0.0,0.0,0.0,0.0,-1.8711,-1.9502,-2.0029,-2.0283,-2.0507,-2.0605,-2.0605,-2.082,-2.0947,-2.0947,-2.1201,-2.1543,-2.1921,-2.2158,-2.248,-2.2838,-2.3023,-2.3091,-2.3091,-2.3091,-2.3247,-2.3584,-2.4258,-2.5109,-2.605,-0.6047,-0.6451,-0.6753,-0.6732,-0.6871,-0.6997,-0.7159,-0.9667,-1.1652,-1.1798,-1.474,-1.682,-1.682,-1.7275,-1.7582,-1.7582,-1.7582,-1.7368,-1.6854,-1.7295,-1.7094,-1.5992,-1.6433,-1.6313,-1.5471,-1.509,-1.4369,-1.3267,-1.2585,-1.1817,-1.0982,-1.0727,-1.0593,-1.06,-1.0854,-1.1303,-1.2033,-1.3074,-1.3586,-1.3686,-1.4021,-1.4322,-1.4603,-1.4908,-1.5189,-1.5398,-1.5398,-1.5585,-1.5771,-1.5745,-1.6241,-1.6876,-1.647,-1.6981,-1.7646,-1.7237,-1.7172,-1.7504,-1.851,-1.8798,-1.9036,-2.0118,-2.0652,-2.0739,-2.0138,-2.0293,-2.0498,-2.0078,-1.9707,-1.9668,0.0,0.0,-1.7686,-1.6467,-1.6222,-1.6046,-1.5635,-1.5537,-1.5518,-1.5547,0.0,0.0,0.0,0.0,0.0,0.0,0.0,0.0,0.0,0.0,0.0,-1.8008,-1.9189,0.0,-1.9912,0.0,-2.0605,-2.0605,-2.0605,-2.0605,-2.0605,-2.0605,-2.081,-2.122,-2.1699,-2.2129,-2.2549,-2.2925,-2.3091,-2.3091,-2.3091,-2.3091,-2.3149,-2.3633,-2.5058,-2.6827,-0.6373,-0.6756,-0.6984,-0.6866,-0.7112,-0.7383,-0.7651,-1.0137,-1.2146,-1.2556,-1.5406,-1.7428,-1.7428,-1.7522,-1.7582,-1.7582,-1.7582,-1.7542,-1.7435,-1.7522,-1.7275,-1.658,-1.6653,-1.6406,-1.5718,-1.4997,-1.4255,-1.3527,-1.2478,-1.1651,-1.0982,-1.0727,-1.0593,-1.0593,-1.0646,-1.1263,-1.2271,-1.2986,0.0,-1.4035,-1.4329,-1.4623,-1.4941,-1.4988,-1.5189,-1.5398,-1.5398,-1.5585,-1.5711,-1.5277,-1.542,-1.5611,-1.5065,-1.5612,-1.6369,-1.6084,-1.6601,-1.7334,-1.7545,-1.7585,-1.7868,-1.8997,-1.9338,-1.9594,-2.0324,-2.0546,-2.0586,-2.0507,-2.0429,-2.0312,-2.0068,0.0,0.0,0.0,0.0,-1.656,-1.6482,-1.6182,-1.6114,-1.6424,-1.6172,-1.5977,0.0,0.0,0.0,0.0,0.0,0.0,0.0,0.0,0.0,0.0,0.0,0.0,0.0,0.0,-2.0605,-2.0605,-2.0605,-2.0605,-2.0605,-2.0605,-2.081,-2.122,-2.1699,-2.2129,-2.2549,-2.2925,-2.3091,-2.3091,-2.3091,-2.3091,-2.3149,-2.3633,-2.4654,-2.6101,-0.6968,-0.7177,-0.738,-0.7387,-0.7506,0.0,0.0,-0.9937,-1.1651,-1.24,-1.4521,-1.6285,-1.7076,-1.7402,-1.7582,-1.7582,-1.7582,-1.7582,-1.7582,-1.7494,-1.7168,-1.6727,-1.656,-1.6279,-1.5791,-1.5117,-1.4462,-1.3874,-1.2679,-1.179,-1.1209,-1.0801,-1.0593,-1.0606,-1.0875,-1.141,0.0,0.0,0.0,-1.3895,-1.4342,-1.4603,-1.475,-1.4948,-1.5095,-1.517,-1.517,-1.5357,-1.5565,-1.5284,-1.5177,-1.5097,-1.4663,-1.4747,-1.505,-1.4902,-1.522,-1.576,-1.6322,-1.6887,-1.7577,-1.8718,-1.9402,-1.9962,-2.0479,-2.0605,-2.0605,-2.0605,-2.0605,-2.0468,-2.0,-1.9404,0.0,0.0,0.0,0.0,0.0,-1.6689,-1.6406,-1.6387,-1.6232,-1.6007,0.0,0.0,0.0,0.0,0.0,0.0,0.0,0.0,0.0,0.0,0.0,0.0,0.0,0.0,0.0,-2.0605,-2.0605,-2.0605,-2.0605,-2.0605,-2.0723,-2.0928,-2.1602,-2.2002,-2.2236,-2.2838,-2.3091,-2.3091,-2.3091,-2.3091,-2.312,-2.3335,-2.3974,-2.4945,-0.7465,-0.7587,-0.7729,-0.7841,-0.7885,-0.7991,-0.8286,-0.9442,-1.0651,-1.1771,-1.3523,-1.5125,-1.6316,-1.7146,-1.7582,-1.7582,-1.7522,-1.7488,-1.7488,-1.7266,-1.6978,-1.6627,-1.6393,-1.6132,-1.5791,-1.5317,-1.478,-1.4088,-1.3019,-1.2131,0.0,-1.0895,-1.0687,0.0,0.0,0.0,0.0,0.0,-1.3414,-1.374,-1.4242,-1.4469,-1.4536,-1.471,-1.4861,-1.4914,-1.4914,-1.5017,-1.5211,-1.5211,-1.5097,-1.4948,-1.4543,-1.4269,-1.4088,-1.4088,-1.4088,-1.4328,-1.5421,-1.6314,-1.7293,-1.8678,-1.9638,-2.0323,-2.0566,-2.0605,-2.0605,-2.0605,-2.0605,-2.0468,-2.0,-1.9717,0.0,0.0,0.0,0.0,0.0,-1.7012,-1.657,-1.6281,-1.6153,-1.5919,-1.5459,0.0,0.0,0.0,0.0,0.0,-1.541,-1.586,0.0,0.0,0.0,-1.8379,-1.9141,0.0,-2.0137,0.0,-2.0605,-2.0605,-2.0605,-2.0605,-2.0605,-2.0644,-2.1406,-2.1846,-2.208,-2.2789,-2.3091,-2.3091,-2.3091,-2.3091,-2.3091,-2.3091,-2.3315,-2.3826,-0.777,-0.7892,-0.7951,0.0,0.0,-0.8289,-0.832,-0.8611,-0.9422,-1.0824,-1.3535,-1.5347,-1.5506,-1.6791,-1.7582,-1.7582,-1.7393,-1.7239,-1.7239,-1.6914,-1.6613,-1.6326,-1.6286,-1.6132,-1.5791,-1.5518,-1.4937,0.0,0.0,-1.2545,0.0,-1.1102,-1.0955,0.0,0.0,0.0,0.0,-1.3053,-1.3534,-1.4048,-1.4102,-1.4282,-1.4496,-1.4255,-1.4335,-1.4563,-1.4563,-1.4576,-1.4603,-1.4603,-1.4763,-1.4908,-1.4309,-1.4108,-1.4088,-1.4088,-1.4088,-1.4328,-1.5421,-1.5779,-1.6347,-1.847,-1.9076,-1.9402,-2.0362,-2.0605,-2.0605,-2.0605,-2.0605,-2.0468,-2.0,-2.0205,-1.9959,0.0,0.0,0.0,0.0,0.0,-1.6687,-1.6648,-1.6309,-1.5919,0.0,0.0,0.0,0.0,0.0,0.0,-1.541,-1.586,0.0,-1.6153,0.0,-1.8198,-1.8656,-1.9512,0.0,-2.0605,-2.0605,-2.0605,-2.0605,-2.0605,-2.0605,-2.0635,-2.1084,-2.1697,-2.249,-2.2906,-2.3091,-2.3091,-2.3091,-2.3091,-2.3091,-2.3091,-2.312,-2.3203,0.0,0.0,0.0,0.0,0.0,0.0,0.0,-0.8574,-0.8887,-0.9368,-1.1393,-1.348,-1.5198,-1.5902,-1.6658,-1.7529,-1.7367,-1.7199,-1.7199,-1.6757,-1.6393,-1.6279,-1.6106,-1.5952,-1.5784,-1.5545,-1.505,0.0,0.0,0.0,0.0,0.0,0.0,0.0,0.0,-1.267,-1.306,-1.3534,-1.3975,-1.4376,-1.473,-1.4836,-1.4776,-1.47,-1.4727,-1.4783,-1.4783,-1.4897,-1.5044,-1.5044,-1.501,-1.4908,-1.4275,-1.4208,-1.4315,-1.4135,-1.4088,-1.4208,-1.4615,-1.522,-1.5902,-1.6797,-1.7496,-1.827,-1.9402,-1.9638,-1.9805,-2.0489,-2.0605,-2.0546,-2.0332,-2.0067,-1.9658,0.0,0.0,0.0,0.0,0.0,-1.7031,-1.6726,-1.6338,-1.5919,-1.5459,0.0,0.0,0.0,0.0,0.0,0.0,0.0,0.0,-1.6085,0.0,-1.7535,-1.8217,-1.9111,-1.9756,-2.0176,-2.0478,-2.0605,-2.0605,-2.0605,-2.0752,-2.0977,-2.1112,-2.1678,-2.2519,-2.2652,-2.2867,-2.3091,-2.3091,-2.3091,-2.3091,-2.3091,-2.3091,-2.3091,-0.8391,0.0,-0.8479,0.0,-0.8567,-0.8418,-0.8472,-0.8611,-0.8655,-0.8503,-0.965,-1.1378,-1.3857,-1.4877,-1.5796,-1.6876,-1.7021,-1.7072,-1.7072,-1.6466,-1.6146,-1.6146,-1.5939,0.0,-1.5784,-1.5625,-1.5277,-1.4776,-1.4068,0.0,0.0,0.0,0.0,0.0,-1.3005,-1.33,-1.35,-1.4001,-1.4382,-1.4683,-1.5104,-1.515,-1.5008,-1.5008,-1.5008,-1.5008,-1.5008,-1.5142,-1.5271,-1.5271,-1.519,-1.5048,-1.4502,-1.4422,-1.4482,-1.4275,-1.4155,-1.4173,-1.4489,-1.5137,-1.5786,-1.6108,-1.6723,-1.7496,-1.831,-1.8519,-1.8789,-1.9883,-2.0023,-2.0014,-2.0333,-1.9775,-1.9307,-1.9346,0.0,0.0,0.0,-1.7646,0.0,-1.6736,-1.6221,-1.5752,-1.5439,-1.541,0.0,0.0,0.0,0.0,0.0,0.0,0.0,0.0,0.0,0.0,0.0,-1.8857,-1.9502,-1.9922,-2.04,-2.0605,-2.0605,-2.0605,-2.0732,-2.1045,-2.1142,-2.1541,-2.2158,-2.2402,-2.2685,-2.2925,-2.3052,-2.3091,-2.3091,-2.3091,-2.3091,-2.3091,-0.8676,-0.8706,-0.8754,-0.8854,-0.8808,-0.8655,-0.8506,-0.8611,-0.8655,-0.8503,-0.8747,-0.9482,-1.1,-1.3696,-1.5417,-1.5417,-1.6208,-1.6707,-1.6707,-1.6159,-1.5832,0.0,0.0,-1.5784,-1.5784,-1.5778,-1.5678,-1.5384,0.0,0.0,-1.4055,0.0,-1.3427,-1.3227,-1.3808,-1.4075,-1.4095,-1.4389,-1.4689,-1.5001,-1.5015,-1.5015,-1.5008,-1.5008,-1.5008,-1.5008,-1.5008,-1.5015,-1.5015,-1.5015,-1.5157,-1.5337,-1.5089,-1.475,-1.4522,-1.4516,-1.4309,-1.4328,-1.5372,-1.5696,-1.5944,-1.7009,-1.7293,-1.7302,-1.7334,-1.7334,-1.7626,-1.8798,-1.8641,-1.864,-1.9724,-1.957,-1.9014,-1.8174,0.0,0.0,0.0,-1.7021,0.0,-1.6697,-1.5927,-1.542,-1.541,0.0,0.0,0.0,0.0,0.0,0.0,0.0,0.0,-1.6085,-1.6494,0.0,-1.8008,-1.8857,-1.9502,-1.9922,-2.04,-2.0605,-2.0605,-2.0605,-2.0605,-2.0635,-2.1045,-2.12,-2.1278,-2.2116,-2.2519,-2.2568,-2.2935,-2.3091,-2.3091,-2.3091,-2.3091,-2.3091,-0.8703,-0.8794,-0.8794,-0.8794,-0.8743,-0.8625,-0.8377,-0.8462,-0.8537,-0.8489,-0.8659,-0.8982,-0.9523,-1.1324,-1.3264,0.0,-1.5257,-1.5626,0.0,-1.6152,-1.5784,-1.5784,-1.5784,-1.5784,-1.5784,-1.5784,-1.5691,-1.5398,0.0,0.0,0.0,-1.4246,-1.4302,-1.4459,-1.4646,-1.4727,-1.4747,-1.499,-1.517,-1.5277,-1.5478,-1.5438,-1.5257,-1.5257,-1.5257,-1.5257,-1.5257,-1.5384,-1.5558,-1.5558,-1.5618,-1.5671,-1.5585,-1.5351,-1.5037,-1.4636,-1.4456,-1.4421,-1.4586,-1.4615,-1.4699,-1.5026,-1.5103,-1.5311,-1.6034,-1.7374,-1.8559,-1.8917,-1.9457,-1.9956,-2.0313,-1.9775,-1.9199,-1.8926,-1.8506,0.0,0.0,0.0,-1.6697,-1.6697,-1.5917,-1.541,0.0,-1.5684,0.0,0.0,0.0,0.0,0.0,0.0,0.0,0.0,-1.6787,0.0,-1.8008,-1.8857,-1.9502,-1.9922,-2.04,-2.0605,-2.0605,-2.0605,-2.0605,-2.0615,-2.0752,-2.1123,-2.1699,-2.1973,-2.2422,-2.2906,-2.3042,-2.3091,-2.3091,-2.3091,-2.3091,-2.3091,-0.8699,-0.874,-0.8774,-0.8794,-0.8659,-0.8503,-0.837,-0.8381,-0.8421,-0.8476,-0.8615,-0.8767,-0.8865,-0.9699,0.0,-1.3588,-1.4352,-1.5101,-1.5986,-1.6019,-1.5999,-1.5999,-1.5885,-1.5784,-1.5784,0.0,0.0,-1.5558,-1.5378,-1.519,-1.501,-1.501,-1.505,-1.5169,-1.5169,-1.5169,-1.5182,-1.5317,-1.5458,-1.5571,-1.5711,-1.5718,-1.5558,-1.5558,-1.5558,-1.5558,-1.5558,-1.5671,-1.5784,-1.5784,-1.5784,-1.5784,-1.5784,-1.5705,-1.5444,-1.4856,-1.4609,-1.4456,-1.4168,-1.4088,-1.4088,-1.4088,-1.4088,-1.437,-1.5455,-1.6756,-1.798,-1.8838,-1.939,-1.9793,-2.0079,-1.9512,-1.8994,-1.8838,-1.8359,-1.8008,-1.8008,0.0,-1.6765,0.0,0.0,0.0,0.0,-1.6152,0.0,0.0,0.0,0.0,0.0,0.0,0.0,-1.6309,-1.7012,0.0,-1.8208,-1.8936,-1.9502,-1.9922,-2.04,-2.0605,-2.0605,-2.0605,-2.0605,-2.0605,-2.0605,-2.0977,-2.165,-2.1816,-2.2295,-2.2877,-2.3033,-2.3091,-2.3091,-2.3091,-2.3091,-2.3091,-0.8665,-0.8587,0.0,0.0,-0.8557,0.0,-0.8435,-0.8347,-0.8374,-0.8462,-0.8615,-0.8767,-0.8865,-0.8885,-0.9427,-1.0836,0.0,0.0,0.0,-1.5732,-1.6195,-1.6321,-1.6005,-1.5811,-1.5811,-1.5791,-1.5784,-1.5784,-1.5784,-1.5784,-1.5784,-1.5784,-1.5685,-1.5424,-1.5424,-1.5424,-1.5424,-1.5424,-1.5585,-1.5784,-1.5784,-1.5784,-1.5784,-1.5784,-1.5784,-1.5784,-1.5784,-1.5784,-1.5784,-1.5784,-1.5784,-1.5784,-1.5784,-1.5784,-1.5718,-1.5157,-1.4783,-1.4489,-1.4195,-1.4102,-1.4088,-1.4088,-1.4088,-1.437,-1.5379,-1.5696,-1.6396,-1.847,-1.8659,-1.8643,-1.9296,-1.8994,-1.852,-1.8164,-1.8047,-1.7998,-1.7969,0.0,-1.6882,0.0,0.0,0.0,0.0,-1.6726,-1.6934,0.0,0.0,0.0,0.0,0.0,-1.6357,-1.6775,-1.7246,-1.7871,-1.8685,-1.9121,-1.9541,-1.9961,-2.041,-2.0605,-2.0605,-2.0605,-2.0605,-2.0605,-2.0605,-2.084,-2.1268,-2.1719,-2.2148,-2.2598,-2.2945,-2.3091,-2.3091,-2.3091,-2.3091,-2.3091,0.0,0.0,-0.8608,-0.8455,-0.8431,-0.8367,-0.8174,-0.8214,-0.8374,-0.8462,-0.8615,-0.8767,-0.8865,-0.8885,-0.9047,-0.9372,-1.0833,-1.2551,-1.4549,-1.4832,-1.5332,-1.6279,-1.6206,-1.6166,-1.6166,-1.5945,-1.5784,-1.5784,-1.5784,-1.5784,-1.5784,-1.5784,-1.5792,-1.5732,-1.5732,-1.5732,-1.5732,-1.5732,-1.5718,-1.5784,-1.5784,-1.5784,-1.5784,-1.5784,-1.5784,-1.5784,-1.5784,-1.5784,-1.5784,-1.5784,-1.5784,-1.5784,-1.5784,-1.5784,-1.5711,-1.5398,-1.509,-1.4796,-1.4496,-1.4255,-1.4088,-1.4088,-1.4088,-1.4173,-1.4412,-1.5752,-1.705,-1.7577,-1.8955,-2.0101,-2.0273,-1.9648,-1.9102,-1.9004,-1.8437,-1.79,-1.7578,-1.7353,0.0,0.0,-1.6668,-1.659,-1.6687,-1.7031,-1.7139,0.0,0.0,0.0,0.0,-1.7002,-1.7266,-1.7695,-1.8081,-1.8715,-1.9563,-1.9717,-1.998,-2.0449,-2.0556,-2.0605,-2.0605,-2.0605,-2.0605,-2.0605,-2.0605,-2.1006,-2.1738,-2.1846,-2.2324,-2.2955,-2.3052,-2.3091,-2.3091,-2.3091,-2.3091,-2.3091,-0.837,-0.8452,-0.8503,-0.8476,-0.8476,-0.8452,-0.836,-0.8357,-0.8421,-0.8567,-0.8659,-0.8767,-0.8865,-0.8885,-0.8885,-0.8885,-1.0101,-1.15,-1.2916,-1.4114,-1.4972,-1.5519,-1.6039,-1.6321,-1.6321,-1.5979,-1.5784,-1.5784,-1.5784,-1.5784,-1.5784,-1.5784,-1.5784,-1.5784,-1.5784,-1.5784,-1.5784,-1.5784,-1.5784,-1.5784,-1.5784,-1.5784,-1.5784,-1.5784,-1.5784,-1.5784,-1.5784,-1.5784,-1.5784,-1.5784,-1.5784,-1.5784,-1.5784,-1.5784,-1.5751,-1.5645,-1.5297,-1.4941,-1.4603,-1.4309,-1.4088,-1.4088,-1.4088,-1.4208,-1.4734,-1.5745,-1.6723,-1.7212,-1.827,-1.9052,-1.8861,-1.8324,-1.7962,-1.8199,-1.7743,-1.7425,-1.7628,-1.75,0.0,-1.7291,-1.7116,-1.7077,-1.7262,-1.7529,-1.7578,-1.7301,0.0,0.0,-1.7301,-1.7725,-1.7969,-1.8008,-1.8383,-1.9017,-1.9902,-2.0107,-2.037,-2.0605,-2.0605,-2.0605,-2.0605,-2.0605,-2.0605,-2.0605,-2.0605,-2.0957,-2.1602,-2.1807,-2.2266,-2.2828,-2.3023,-2.3091,-2.3091,-2.3091,-2.3091,-2.3091,-0.8272,-0.8354,-0.8381,-0.8632,-0.8587,-0.8554,-0.8659,-0.8584,-0.8564,-0.8693,-0.873,-0.8794,-0.8868,-0.8885,-0.8885,-0.8885,-1.0025,-1.0824,-1.1013,-1.3174,-1.4406,-1.431,-1.547,-1.6098,-1.6098,-1.5969,-1.5899,-1.5899,-1.5804,-1.5784,-1.5784,-1.5784,-1.5784,-1.5784,-1.5784,-1.5784,-1.5784,-1.5784,-1.5784,-1.5784,-1.5784,-1.5784,-1.5784,-1.5784,-1.5784,-1.5784,-1.5784,-1.5784,-1.5784,-1.5784,-1.5784,-1.5784,-1.5784,-1.5784,-1.5784,-1.5784,-1.5451,-1.5008,-1.4669,-1.4342,-1.4088,-1.4088,-1.4088,-1.4328,-1.5255,-1.5579,-1.5944,-1.6887,-1.7172,-1.7203,-1.6834,-1.647,-1.6392,-1.6988,-1.6838,-1.6904,-1.7784,0.0,-1.7588,-1.7881,-1.7656,-1.7617,-1.7978,-1.8008,-1.8008,-1.8008,-1.8008,-1.8008,0.0,-1.8373,-1.8471,-1.8213,-1.8578,-1.9173,-2.0,-2.0381,-2.0605,-2.0605,-2.0605,-2.0605,-2.0605,-2.0605,-2.0605,-2.0605,-2.0605,-2.0859,-2.1317,-2.1738,-2.2168,-2.2604,-2.2955,-2.3091,-2.3091,-2.3091,-2.3091,-2.3091,-0.8421,-0.8448,-0.8465,-0.8509,-0.8604,-0.8638,-0.8533,-0.8608,-0.8682,-0.8706,-0.8821,-0.8858,-0.8881,-0.8885,-0.8885,-0.8885,-0.9099,-0.9694,-1.0725,-1.1369,-1.21,-1.3048,-1.4418,-1.5176,-1.5176,-1.5873,-1.6206,-1.6206,-1.5952,-1.5784,-1.5784,-1.5784,-1.5784,-1.5784,-1.5784,-1.5784,-1.5784,-1.5784,-1.5784,-1.5784,-1.5784,-1.5784,-1.5784,-1.5784,-1.5784,-1.5784,-1.5784,-1.5784,-1.5784,-1.5784,-1.5784,-1.5784,-1.5784,-1.5784,-1.5784,-1.5784,-1.5591,-1.5264,-1.5022,-1.4502,-1.4088,-1.4088,-1.4088,-1.413,-1.4328,-1.5061,-1.5737,-1.5902,-1.6683,-1.7277,-1.7219,-1.6651,-1.6514,-1.7425,-1.7018,-1.6803,-1.742,0.0,-1.7803,-1.7519,-1.7734,-1.7939,-1.8008,-1.8008,-1.8008,-1.8008,-1.8008,-1.8008,-1.8008,-1.8373,-1.8734,-1.9082,-1.9492,-1.9961,-2.0498,-2.0566,-2.0605,-2.0605,-2.0605,-2.0605,-2.0605,-2.0605,-2.0605,-2.0605,-2.0605,-2.1065,-2.1787,-2.1855,-2.2344,-2.3003,-2.3071,-2.3091,-2.3091,-2.3091,-2.3091,-2.3091,-0.837,-0.8476,-0.8574,-0.8601,-0.873,-0.8808,-0.8737,-0.8788,-0.8832,-0.8832,-0.8841,-0.8885,-0.8885,-0.8885,-0.8885,-0.8885,-0.8885,-0.9127,-0.9701,-1.0572,-1.1292,-1.1628,-1.3041,-1.4082,-1.4727,-1.5161,-1.5673,-1.6321,-1.5972,-1.5784,-1.5784,-1.5784,-1.5784,-1.5784,-1.5784,-1.5784,-1.5784,-1.5784,-1.5919,-1.6052,-1.5892,-1.5925,-1.6052,-1.5885,-1.5784,-1.5784,-1.5784,-1.5784,-1.5784,-1.5784,-1.5784,-1.5784,-1.5784,-1.5784,-1.5784,-1.5784,-1.5625,-1.5331,-1.5089,-1.4649,-1.4322,-1.4322,-1.4202,-1.4088,-1.4088,-1.4489,-1.4852,-1.4852,-1.5228,-1.5594,-1.5594,-1.5153,-1.5144,-1.6162,-1.5744,0.0,0.0,-1.6915,-1.7185,-1.6998,-1.7566,-1.8008,-1.8008,-1.8008,-1.8008,-1.8008,-1.8008,-1.8105,-1.8295,-1.875,-1.918,-1.9609,-2.0039,-2.0361,-2.0605,-2.0605,-2.0605,-2.0605,-2.0605,-2.0605,-2.0605,-2.0605,-2.0605,-2.0605,-2.0605,-2.0937,-2.1553,-2.1787,-2.2246,-2.2779,-2.3003,-2.3091,-2.3091,-2.3091,-2.3091,-2.3091,-0.8438,-0.855,-0.8625,-0.875,-0.8807,-0.8885,-0.8885,-0.8885,-0.8885,-0.8885,-0.8885,-0.8885,-0.8885,-0.8885,-0.8885,-0.8885,-0.8885,-0.8885,-0.8885,-0.997,-1.0506,-1.0266,-1.1634,-1.2983,-1.4207,-1.4202,-1.4719,-1.5868,-1.5599,-1.565,-1.5932,-1.5932,-1.5965,-1.5977,-1.5844,-1.5858,-1.6025,-1.5838,-1.6039,-1.6339,-1.5979,-1.6005,-1.6239,-1.5945,-1.5872,-1.5925,-1.5804,-1.5872,-1.5919,-1.5852,-1.5784,-1.5784,-1.5784,-1.5784,-1.5784,-1.5784,-1.5671,-1.5431,-1.5189,-1.485,-1.4603,-1.4536,-1.4355,-1.4168,-1.4102,-1.4088,-1.4088,-1.4088,-1.4088,-1.4088,-1.4088,-1.3841,-1.392,-1.4944,0.0,0.0,0.0,-1.6105,-1.6484,-1.6585,-1.7301,-1.7841,-1.7983,-1.8008,-1.8047,-1.8144,-1.8066,-1.8193,-1.8578,-1.9053,-1.9531,-2.0049,-2.0429,-2.0605,-2.0605,-2.0605,-2.0605,-2.0605,-2.0605,-2.0605,-2.0605,-2.0605,-2.0605,-2.0605,-2.0605,-2.0879,-2.1375,-2.1748,-2.2197,-2.2685,-2.2974,-2.3091,-2.3091,-2.3091,-2.3091,-2.3091,-0.8807,-0.8788,-0.875,-0.8841,-0.8875,-0.8885,-0.8885,-0.8885,-0.8885,-0.8885,-0.8885,-0.8885,-0.8885,-0.8885,-0.8885,-0.8885,-0.8885,-0.8885,-0.8885,-0.8992,-0.904,-0.903,-1.0437,-1.1887,-1.338,-1.307,-1.3475,-1.4624,-1.4601,-1.5183,-1.6239,-1.6239,-1.6386,-1.662,-1.6072,-1.6132,-1.6607,-1.6059,-1.6152,-1.6627,-1.6004,-1.6005,-1.6239,-1.5945,-1.5999,-1.6206,-1.5925,-1.6005,-1.6199,-1.5919,-1.5784,-1.5784,-1.5784,-1.5784,-1.5784,-1.5784,-1.5764,-1.5684,-1.5444,-1.515,-1.4908,-1.4589,-1.4502,-1.4422,-1.4148,-1.4088,-1.4088,-1.4088,-1.4088,-1.4088,-1.4088,-1.3841,-1.392,-1.4944,0.0,0.0,-1.5483,-1.5843,-1.6195,-1.6543,-1.6874,-1.7329,-1.7944,-1.8008,-1.813,-1.8529,-1.8198,-1.8193,-1.8578,-1.9053,-1.9668,-2.0527,-2.0586,-2.0605,-2.0605,-2.0605,-2.0605,-2.0605,-2.0605,-2.0605,-2.0605,-2.0605,-2.0605,-2.0605,-2.0605,-2.1085,-2.1836,-2.1875,-2.2363,-2.3052,-2.3081,-2.3091,-2.3091,-2.3091,-2.3091,-2.3091,-0.8804,-0.8825,-0.8814,-0.8871,-0.8885,-0.8885,-0.8885,-0.8885,-0.8885,-0.8885,-0.8885,-0.8885,-0.8885,-0.8885,-0.8885,-0.8885,-0.8885,-0.8885,-0.8885,-0.8885,-0.8885,-0.8885,-0.9427,-1.0457,-1.1919,-1.167,-1.2159,-1.3434,-1.4214,-1.4809,-1.527,-1.6136,-1.66,-1.6693,-1.6473,-1.65,-1.6693,-1.6466,-1.6607,-1.6947,-1.654,-1.6553,-1.6837,-1.6486,-1.6446,-1.6506,-1.6206,-1.6179,-1.6301,-1.6146,-1.6106,-1.6106,-1.6106,-1.6106,-1.6072,-1.5838,-1.5784,-1.5758,-1.5698,-1.5451,-1.5164,-1.487,-1.4656,-1.4442,-1.4155,-1.4088,-1.4088,-1.4088,-1.4088,-1.4088,-1.4088,-1.3995,-1.404,-1.44,0.0,-1.4055,-1.4317,-1.4808,-1.5187,-1.5335,-1.5947,-1.6465,-1.6724,-1.7397,-1.7505,-1.6802,-1.7755,-1.8293,-1.8163,-1.9389,-2.0263,-2.0595,-2.0605,-2.0605,-2.0605,-2.0605,-2.0605,-2.0605,-2.0605,-2.0605,-2.0605,-2.0605,-2.0605,-2.0605,-2.0605,-2.0918,-2.1504,-2.1777,-2.2227,-2.273,-2.2994,-2.3091,-2.3091,-2.3091,-2.3091,-2.3091,-0.8804,-0.8811,-0.8885,-0.8885,-0.8885,-0.8885,-0.8885,-0.8885,-0.8885,-0.8885,-0.8885,-0.8885,-0.8885,-0.8885,-0.8885,-0.8885,-0.8885,-0.8885,-0.8885,-0.8885,-0.8885,-0.8885,-0.8885,-0.9372,-1.0402,-1.0233,-1.0782,-1.2144,-1.3059,-1.3661,-1.4054,-1.5497,-1.6215,-1.6292,-1.6579,-1.6807,-1.6967,-1.678,-1.6927,-1.73,-1.686,-1.6881,-1.7166,-1.682,-1.6767,-1.6794,-1.6413,-1.6442,-1.6569,-1.6382,-1.6382,-1.6393,-1.6348,-1.6213,-1.6092,-1.5885,-1.5784,-1.5784,-1.5784,-1.5685,-1.5464,-1.517,-1.4943,-1.4716,-1.4429,-1.4289,-1.4222,-1.4222,-1.4155,-1.4088,-1.4088,-1.4088,-1.4088,-1.4088,-1.3915,-1.3706,-1.3613,-1.41,-1.4489,-1.4599,-1.5265,-1.5784,-1.597,-1.6699,-1.6836,-1.6009,-1.7085,-1.7862,-1.8022,-1.9535,-2.0458,-2.0595,-2.0605,-2.0605,-2.0605,-2.0605,-2.0605,-2.0605,-2.0605,-2.0605,-2.0605,-2.0605,-2.0605,-2.0605,-2.0605,-2.0898,-2.1455,-2.1768,-2.2207,-2.2744,-2.2984,-2.3091,-2.3091,-2.3091,-2.3091,-2.3091,-0.8885,-0.8885,-0.8885,-0.8885,-0.8885,-0.8885,-0.8885,-0.8885,-0.8885,-0.8885,-0.8885,-0.8885,-0.8885,-0.8885,-0.8885,-0.8885,-0.8885,-0.8885,-0.8885,-0.8885,-0.8885,-0.8885,-0.8885,-0.8885,-0.8885,-0.8885,-0.9512,-1.0675,-1.0962,-1.1652,-1.2831,-1.43,-1.5124,-1.5394,-1.6292,-1.7034,-1.7542,-1.6961,-1.7048,-1.7528,-1.6947,-1.6894,-1.7172,-1.682,-1.6894,-1.7125,-1.6536,-1.6703,-1.7112,-1.6529,-1.6473,-1.666,-1.6373,-1.6072,-1.5784,-1.5784,-1.5784,-1.5784,-1.5784,-1.5784,-1.5758,-1.5471,-1.5398,-1.5317,-1.5075,-1.4736,-1.4479,-1.4479,-1.4295,-1.4088,-1.4088,-1.4088,-1.4088,-1.4088,-1.4088,-1.3981,-1.3646,-1.3901,-1.4227,-1.454,-1.4905,-1.5321,-1.5926,-1.6008,-1.6193,-1.663,-1.6242,-1.6661,-1.8219,-1.9298,-2.0117,-2.0586,-2.0605,-2.0605,-2.0605,-2.0605,-2.0605,-2.0605,-2.0605,-2.0605,-2.0605,-2.0605,-2.0605,-2.0605,-2.0605,-2.1104,-2.1875,-2.1885,-2.2373,-2.3081,-2.3091,-2.3091,-2.3091,-2.3091,-2.3091,-2.3091,-0.8885,-0.8885,-0.8885,-0.8885,-0.8885,-0.8885,-0.8885,-0.8885,-0.8885,-0.8885,-0.8885,-0.8885,-0.8885,-0.8885,-0.8885,-0.8885,-0.8885,-0.8885,-0.8885,-0.8885,-0.8885,-0.8885,-0.8885,-0.8885,-0.8885,-0.8885,-0.9078,-0.941,-1.0538,-1.1293,-1.1666,-1.3115,-1.3848,-1.396,-1.5206,-1.5915,-1.6109,-1.6964,-1.7422,-1.7569,-1.7395,-1.7375,-1.7442,-1.7355,-1.7375,-1.7402,-1.7072,-1.7052,-1.7172,-1.6998,-1.6991,-1.7052,-1.6965,-1.6589,-1.6139,-1.6139,-1.5992,-1.5784,-1.5784,-1.5784,-1.5758,-1.5471,-1.5398,-1.5317,-1.5075,-1.4941,-1.483,-1.483,-1.4596,-1.4389,-1.4389,-1.4222,-1.4088,-1.4088,-1.4088,-1.4055,-1.3968,-1.4035,-1.4147,-1.4248,-1.4345,-1.4483,-1.4666,-1.5371,-1.5433,-1.4596,-1.512,-1.6,-1.7125,-1.7742,-1.8505,-1.9441,-1.9481,-1.9844,-2.0605,-2.0605,-2.0605,-2.0605,-2.0605,-2.0605,-2.0605,-2.0605,-2.0605,-2.0605,-2.0605,-2.0752,-2.1045,-2.1672,-2.2031,-2.2314,-2.2867,-2.3091,-2.3091,-2.3091,-2.3091,-2.3091,-0.8885,-0.8885,-0.8885,-0.8885,-0.8885,-0.8885,-0.8885,-0.8885,-0.8885,-0.8885,-0.8885,-0.8885,-0.8885,-0.8885,-0.8885,-0.8885,-0.8885,-0.8885,-0.8885,-0.8885,-0.8885,-0.8885,-0.8885,-0.8885,-0.8885,-0.8885,-0.8885,-0.8885,-0.9809,-1.0241,-1.0241,-1.1755,-1.2403,-1.2512,-1.3911,-1.4556,-1.4609,-1.553,-1.6227,-1.6717,-1.6717,-1.7094,-1.7582,-1.7582,-1.7582,-1.7542,-1.7306,-1.7273,-1.7353,-1.7239,-1.7199,-1.7199,-1.7199,-1.6878,-1.644,-1.644,-1.6313,-1.6152,-1.6039,-1.6005,-1.5932,-1.5645,-1.5565,-1.5524,-1.5344,-1.5217,-1.5182,-1.5182,-1.4897,-1.4663,-1.4543,-1.4376,-1.4222,-1.4108,-1.4088,-1.4088,-1.4088,-1.4088,-1.4088,-1.4088,-1.4088,-1.4088,-1.4088,-1.4699,-1.4691,-1.3869,-1.4815,-1.5721,-1.6277,-1.6928,-1.7626,-1.831,-1.831,-1.863,-1.9274,-1.9756,-2.0167,-2.0605,-2.0605,-2.0605,-2.0605,-2.0605,-2.0605,-2.0605,-2.0605,-2.0703,-2.0889,-2.1602,-2.1982,-2.2197,-2.2838,-2.3091,-2.3091,-2.3091,-2.3091,-2.3091,-0.8881,-0.8885,-0.8885,-0.8885,-0.8885,-0.8885,-0.8885,-0.8885,-0.8885,-0.8885,-0.8885,-0.8885,-0.8885,-0.8885,-0.8885,-0.8885,-0.8885,-0.8885,-0.8885,-0.8885,-0.8885,-0.8885,-0.8885,-0.8885,-0.8885,-0.8885,-0.8885,-0.8885,-0.8885,-0.8885,-0.8937,-1.0296,-1.0891,-1.0945,-1.2457,-1.3102,-1.3102,-1.3264,-1.4019,-1.5198,-1.5198,-1.6062,-1.7417,-1.7417,-1.7477,-1.7549,-1.7333,-1.7414,-1.7542,-1.7326,-1.7239,-1.7239,-1.7239,-1.6987,-1.6747,-1.6747,-1.6727,-1.6647,-1.6386,-1.6342,-1.6206,-1.5939,-1.5798,-1.5784,-1.5784,-1.5625,-1.5438,-1.5438,-1.5184,-1.4928,-1.4609,-1.4516,-1.4396,-1.4128,-1.4088,-1.4088,-1.4088,-1.4088,-1.4088,-1.4088,-1.4088,-1.4088,-1.4088,-1.4088,-1.4088,-1.4088,-1.5019,-1.5579,-1.5579,-1.6486,-1.705,-1.7131,-1.7172,-1.7253,-1.7464,-1.847,-1.9481,-2.044,-2.0557,-2.0605,-2.0605,-2.0605,-2.0605,-2.0605,-2.0605,-2.0801,-2.1171,-2.1689,-2.2119,-2.25,-2.2916,-2.3091,-2.3091,-2.3091,-2.3091,-2.3091,-0.866,-0.8885,-0.8885,-0.8885,-0.8885,-0.8885,-0.8885,-0.8885,-0.8885,-0.8885,-0.8885,-0.8885,-0.8885,-0.8885,-0.8885,-0.8885,-0.8885,-0.8885,-0.8885,-0.8885,-0.8885,-0.8885,-0.8885,-0.8885,-0.8885,-0.8885,-0.8885,-0.8885,-0.8885,-0.8885,-0.8885,-0.921,-0.9372,-0.9427,-1.0945,-1.1592,-1.1647,-1.2832,-1.348,-1.375,-1.375,-1.4609,-1.5902,-1.5902,-1.6605,-1.7575,-1.7508,-1.7528,-1.7569,-1.7508,-1.7488,-1.7488,-1.7488,-1.734,-1.7105,-1.7105,-1.6887,-1.6693,-1.6627,-1.6446,-1.6259,-1.6192,-1.6005,-1.5784,-1.5784,-1.5785,-1.5684,-1.5684,-1.5324,-1.4988,-1.4921,-1.4489,-1.4162,-1.4095,-1.4088,-1.4088,-1.4088,-1.4088,-1.4088,-1.4088,-1.4088,-1.4088,-1.4088,-1.4088,-1.4088,-1.4088,-1.4328,-1.4454,-1.4454,-1.4657,-1.5186,-1.6026,-1.6067,-1.6879,-1.859,-1.8877,-1.9116,-1.9362,-2.0206,-2.0605,-2.0605,-2.0605,-2.0605,-2.0605,-2.0605,-2.0664,-2.0771,-2.1562,-2.1934,-2.21,-2.2808,-2.3091,-2.3091,-2.3091,-2.3091,-2.3091,-0.7706,-0.8432,-0.8885,-0.8885,-0.8885,-0.8885,-0.8885,-0.8885,-0.8885,-0.8885,-0.8885,-0.8885,-0.8885,-0.8885,-0.8885,-0.8885,-0.8885,-0.8885,-0.8885,-0.8885,-0.8885,-0.8885,-0.8885,-0.8885,-0.8885,-0.8885,-0.8885,-0.8885,-0.8885,-0.8885,-0.8885,-0.8885,-0.8885,-0.8937,-0.9699,-1.0025,-1.0076,-1.0891,-1.1592,-1.224,-1.224,-1.3102,-1.4449,-1.5144,-1.5902,-1.6658,-1.7364,-1.7582,-1.7582,-1.7582,-1.7582,-1.7582,-1.7582,-1.7475,-1.7407,-1.7407,-1.7248,-1.7094,-1.6954,-1.6857,-1.6677,-1.6388,-1.6152,-1.6005,-1.5865,-1.5784,-1.5784,-1.5784,-1.5585,-1.5291,-1.5062,-1.4754,-1.4459,-1.4135,-1.4088,-1.4088,-1.4088,-1.4088,-1.4088,-1.4088,-1.4088,-1.4088,-1.4088,-1.4088,-1.4088,-1.4088,-1.4088,-1.4088,-1.4088,-1.4088,-1.437,-1.4936,-1.4936,-1.5504,-1.665,-1.7658,-1.8189,-1.823,-1.9835,-2.0605,-2.0605,-2.0605,-2.0605,-2.0605,-2.0605,-2.0605,-2.0674,-2.1564,-2.1885,-2.1973,-2.2812,-2.3091,-2.3091,-2.3091,-2.3091,-2.3091,-0.6589,-0.7706,-0.8602,-0.8881,-0.8885,-0.8885,-0.8885,-0.8885,-0.8885,-0.8885,-0.8885,-0.8885,-0.8885,-0.8885,-0.8885,-0.8885,-0.8885,-0.8885,-0.8885,-0.8885,-0.8885,-0.8885,-0.8885,-0.8885,-0.8885,-0.8885,-0.8885,-0.8885,-0.8885,-0.8885,-0.8885,-0.8885,-0.8885,-0.8885,-0.8885,-0.8885,-0.8885,-0.8885,-0.9588,-1.0726,-1.0726,-1.1592,-1.3048,-1.4234,-1.4984,-1.5577,-1.677,-1.7364,-1.7582,-1.7582,-1.7582,-1.7582,-1.7582,-1.7582,-1.7582,-1.7582,-1.7582,-1.7528,-1.734,-1.7239,-1.7085,-1.6596,-1.6395,-1.6213,-1.5965,-1.5818,-1.5784,-1.5784,-1.5744,-1.5611,-1.5169,-1.5042,-1.4847,-1.4358,-1.4235,-1.4215,-1.4168,-1.4162,-1.4142,-1.4095,-1.4088,-1.4088,-1.4088,-1.4088,-1.4088,-1.4088,-1.4088,-1.4088,-1.4088,-1.4088,-1.4088,-1.4088,-1.4088,-1.4173,-1.437,-1.6124,-1.7212,-1.7617,-1.9432,-2.0401,-2.0605,-2.0605,-2.0605,-2.0605,-2.0605,-2.0605,-2.0674,-2.1564,-2.1885,-2.1973,-2.2812,-2.3091,-2.3091,-2.3091,-2.3091,-2.3091,-0.6197,-0.6869,-0.7426,-0.866,-0.8885,-0.8885,-0.8885,-0.8885,-0.8885,-0.8885,-0.8885,-0.8885,-0.8885,-0.8885,-0.8885,-0.8885,-0.8885,-0.8885,-0.8885,-0.8885,-0.8885,-0.8885,-0.8885,-0.8885,-0.8885,-0.8885,-0.8885,-0.8885,-0.8885,-0.8885,-0.8885,-0.8885,-0.8885,-0.8885,-0.8885,-0.8885,-0.8885,-0.8885,-0.8992,-0.921,-0.921,-1.008,-1.1428,-1.1592,-1.321,-1.5417,-1.5636,-1.6499,-1.7582,-1.7582,-1.7582,-1.7582,-1.7582,-1.7582,-1.7582,-1.7582,-1.7582,-1.7575,-1.7535,-1.7393,-1.7186,-1.7105,-1.6697,-1.6308,-1.6219,-1.6012,-1.5784,-1.5784,-1.5631,-1.5431,-1.5351,-1.5182,-1.4981,-1.4901,-1.4894,-1.48,-1.4502,-1.4462,-1.4369,-1.4115,-1.4088,-1.4088,-1.4088,-1.4088,-1.4088,-1.4088,-1.4088,-1.4088,-1.4088,-1.4088,-1.4088,-1.4088,-1.4088,-1.4531,-1.5455,-1.5779,-1.6879,-1.8758,-1.9076,-1.9678,-2.0605,-2.0605,-2.0605,-2.0605,-2.0605,-2.0605,-2.0674,-2.1564,-2.1885,-2.1973,-2.2812,-2.3091,-2.3091,-2.3091,-2.3091,-2.3091,-0.391,-0.5528,-0.6924,-0.754,-0.8377,-0.8885,-0.8885,-0.8885,-0.8885,-0.8885,-0.8885,-0.8885,-0.8885,-0.8885,-0.8885,-0.8885,-0.8885,-0.8885,-0.8885,-0.8885,-0.8885,-0.8885,-0.8885,-0.8885,-0.8885,-0.8885,-0.8885,-0.8885,-0.8885,-0.8885,-0.8885,-0.8885,-0.8885,-0.8885,-0.8885,-0.8885,-0.8885,-0.8885,-0.8885,-0.8885,-0.8885,-0.9265,-0.997,-1.0781,-1.1914,-1.321,-1.4824,-1.5796,-1.6499,-1.7312,-1.7582,-1.7582,-1.7582,-1.7582,-1.7582,-1.7582,-1.7582,-1.7582,-1.7582,-1.7488,-1.7407,-1.7239,-1.7005,-1.673,-1.6395,-1.6172,-1.6032,-1.5865,-1.5732,-1.5585,-1.5424,-1.5291,-1.515,-1.5035,-1.5008,-1.4961,-1.4783,-1.477,-1.4656,-1.4362,-1.4329,-1.4262,-1.4102,-1.4088,-1.4088,-1.4088,-1.4088,-1.4088,-1.4088,-1.4088,-1.4088,-1.4088,-1.4088,-1.4334,-1.4817,-1.5421,-1.6191,-1.7163,-1.7779,-1.8957,-2.0605,-2.0605,-2.0605,-2.0605,-2.0605,-2.0752,-2.0996,-2.1621,-2.2021,-2.2295,-2.2857,-2.3091,-2.3091,-2.3091,-2.3091,-2.3091]}]]